[[{"header":{"parameterUnit":"m.s-1","parameterCategory":1,"la1":30.6,"la2":28.766,"lo1":-90.7593,"lo2":-88.6598,"dx":0.0162,"dy":0.0183,"nx":116,"ny":114,"refTime":"2022-12-05T18:00:00:Z","depth":0,"parameterNumber":2,"parameterNumberName":"U-component_of_WINDS"},"data":[0.0,0.0,0.0,0.0,0.0,0.0,0.0,0.0,0.0,0.0,0.0,0.0,0.0,0.0,0.0,0.0,0.0,0.0,0.0,0.0,0.0,0.0,0.0,0.0,0.0,0.0,0.0,0.0,0.0,0.0,0.0,0.0,0.0,0.0,0.0,0.0,0.0,0.0,0.0,0.0,0.0,0.0,0.0,0.0,0.0,0.0,0.0,0.0,0.0,0.0,0.0,0.0,0.0,0.0,0.0,0.0,0.0,0.0,0.0,0.0,0.0,0.0,0.0,0.0,0.0,0.0,0.0,0.0,0.0,0.0,0.0,0.0,0.0,0.0,0.0,0.0,0.0,0.0,0.0,0.0,0.0,0.0,0.0,0.0,0.0,0.0,0.0,0.0,0.0,0.0,0.0,0.0,0.0,0.0,0.0,0.0,0.0,0.0,0.0,0.0,0.0,0.0,0.0,0.0,0.0,0.0,0.0,0.0,0.0,0.0,0.0,0.0,0.0,0.0,0.0,0.0,0.0,0.0,0.0,0.0,0.0,0.0,0.0,0.0,0.0,0.0,0.0,0.0,0.0,0.0,0.0,0.0,0.0,0.0,0.0,0.0,0.0,0.0,0.0,0.0,0.0,0.0,0.0,0.0,0.0,0.0,0.0,0.0,0.0,0.0,0.0,0.0,0.0,0.0,0.0,0.0,0.0,0.0,0.0,0.0,0.0,0.0,0.0,0.0,0.0,0.0,0.0,0.0,0.0,0.0,0.0,0.0,0.0,0.0,0.0,0.0,0.0,0.0,0.0,0.0,0.0,0.0,0.0,0.0,0.0,0.0,0.0,0.0,0.0,0.0,0.0,0.0,0.0,0.0,0.0,0.0,0.0,0.0,0.0,0.0,0.0,0.0,0.0,0.0,0.0,0.0,0.0,0.0,0.0,0.0,0.0,0.0,0.0,0.0,0.0,0.0,0.0,0.0,0.0,0.0,0.0,0.0,0.0,0.0,0.0,0.0,0.0,0.0,0.0,0.0,0.0,0.0,0.0,0.0,0.0,0.0,0.0,0.0,0.0,0.0,0.0,0.0,0.0,0.0,0.0,0.0,0.0,0.0,0.0,0.0,0.0,0.0,0.0,0.0,0.0,0.0,0.0,0.0,0.0,0.0,0.0,0.0,0.0,0.0,0.0,0.0,0.0,0.0,0.0,0.0,0.0,0.0,0.0,0.0,0.0,0.0,0.0,0.0,0.0,0.0,0.0,0.0,0.0,0.0,0.0,0.0,0.0,0.0,0.0,0.0,0.0,0.0,0.0,0.0,0.0,0.0,0.0,0.0,0.0,0.0,0.0,0.0,0.0,0.0,0.0,0.0,0.0,0.0,0.0,0.0,0.0,0.0,0.0,0.0,0.0,0.0,0.0,0.0,0.0,0.0,0.0,0.0,0.0,0.0,0.0,0.0,0.0,0.0,0.0,0.0,0.0,0.0,0.0,0.0,0.0,0.0,0.0,0.0,0.0,0.0,0.0,0.0,0.0,0.0,0.0,0.0,0.0,0.0,0.0,0.0,0.0,0.0,0.0,0.0,0.0,0.0,0.0,0.0,0.0,0.0,0.0,0.0,0.0,0.0,0.0,0.0,0.0,0.0,0.0,0.0,0.0,0.0,0.0,0.0,0.0,0.0,0.0,0.0,0.0,0.0,0.0,0.0,0.0,0.0,0.0,0.0,0.0,0.0,0.0,0.0,0.0,0.0,0.0,0.0,0.0,0.0,0.0,0.0,0.0,0.0,0.0,0.0,0.0,0.0,0.0,0.0,0.0,0.0,0.0,0.0,0.0,0.0,0.0,0.0,0.0,0.0,0.0,0.0,0.0,0.0,0.0,0.0,0.0,0.0,0.0,0.0,0.0,0.0,0.0,0.0,0.0,0.0,0.0,0.0,0.0,0.0,0.0,0.0,0.0,0.0,0.0,0.0,0.0,0.0,0.0,0.0,0.0,0.0,0.0,0.0,0.0,0.0,0.0,0.0,0.0,0.0,0.0,0.0,0.0,0.0,0.0,0.0,0.0,0.0,0.0,0.0,0.0,0.0,0.0,0.0,0.0,0.0,0.0,0.0,0.0,0.0,0.0,0.0,0.0,0.0,0.0,0.0,0.0,0.0,0.0,0.0,0.0,0.0,0.0,0.0,0.0,0.0,0.0,0.0,0.0,0.0,0.0,0.0,0.0,0.0,0.0,0.0,0.0,0.0,0.0,0.0,0.0,0.0,0.0,0.0,0.0,0.0,0.0,0.0,0.0,0.0,0.0,0.0,0.0,0.0,0.0,0.0,0.0,0.0,0.0,0.0,0.0,0.0,0.0,0.0,0.0,0.0,0.0,0.0,0.0,0.0,0.0,0.0,0.0,0.0,0.0,0.0,0.0,0.0,0.0,0.0,0.0,0.0,0.0,0.0,0.0,0.0,0.0,0.0,0.0,0.0,0.0,0.0,0.0,0.0,0.0,0.0,0.0,0.0,0.0,0.0,0.0,0.0,0.0,0.0,0.0,0.0,0.0,0.0,0.0,0.0,0.0,0.0,0.0,0.0,0.0,0.0,0.0,0.0,0.0,0.0,0.0,0.0,0.0,0.0,0.0,0.0,0.0,0.0,0.0,0.0,0.0,0.0,0.0,0.0,0.0,0.0,0.0,0.0,0.0,0.0,0.0,0.0,0.0,0.0,0.0,0.0,0.0,0.0,0.0,0.0,0.0,0.0,0.0,0.0,0.0,0.0,0.0,0.0,0.0,0.0,0.0,0.0,0.0,0.0,0.0,0.0,0.0,0.0,0.0,0.0,0.0,0.0,0.0,0.0,0.0,0.0,0.0,0.0,0.0,0.0,0.0,0.0,0.0,0.0,0.0,0.0,0.0,0.0,0.0,0.0,0.0,0.0,0.0,0.0,0.0,0.0,0.0,0.0,0.0,0.0,0.0,0.0,0.0,0.0,0.0,0.0,0.0,0.0,0.0,0.0,0.0,0.0,0.0,0.0,0.0,0.0,0.0,0.0,0.0,0.0,0.0,0.0,0.0,0.0,0.0,0.0,0.0,0.0,0.0,0.0,0.0,0.0,0.0,0.0,0.0,0.0,0.0,0.0,0.0,0.0,0.0,0.0,0.0,0.0,0.0,0.0,0.0,0.0,0.0,0.0,0.0,0.0,0.0,0.0,0.0,0.0,0.0,0.0,0.0,0.0,0.0,0.0,0.0,0.0,0.0,0.0,0.0,0.0,0.0,0.0,0.0,0.0,0.0,0.0,0.0,0.0,0.0,0.0,0.0,0.0,0.0,0.0,0.0,0.0,0.0,0.0,0.0,0.0,0.0,0.0,0.0,0.0,0.0,0.0,0.0,0.0,0.0,0.0,0.0,0.0,0.0,0.0,0.0,0.0,0.0,0.0,0.0,0.0,0.0,0.0,0.0,0.0,0.0,0.0,0.0,0.0,0.0,0.0,0.0,0.0,0.0,0.0,0.0,0.0,0.0,0.0,0.0,0.0,0.0,0.0,0.0,0.0,0.0,0.0,0.0,0.0,0.0,0.0,0.0,0.0,0.0,0.0,0.0,0.0,0.0,0.0,0.0,0.0,0.0,0.0,0.0,0.0,0.0,0.0,0.0,0.0,0.0,0.0,0.0,0.0,0.0,0.0,0.0,0.0,0.0,0.0,0.0,0.0,0.0,0.0,0.0,0.0,0.0,0.0,0.0,0.0,0.0,0.0,0.0,0.0,0.0,0.0,0.0,0.0,0.0,0.0,0.0,0.0,0.0,0.0,0.0,0.0,0.0,0.0,0.0,0.0,0.0,0.0,0.0,0.0,0.0,0.0,0.0,0.0,0.0,0.0,0.0,0.0,0.0,0.0,0.0,0.0,0.0,0.0,0.0,0.0,0.0,0.0,0.0,0.0,0.0,0.0,0.0,0.0,0.0,0.0,0.0,0.0,0.0,0.0,0.0,0.0,0.0,0.0,0.0,0.0,0.0,0.0,0.0,0.0,0.0,0.0,0.0,0.0,0.0,0.0,0.0,0.0,0.0,0.0,0.0,0.0,0.0,0.0,0.0,0.0,0.0,0.0,0.0,0.0,0.0,0.0,0.0,0.0,0.0,0.0,0.0,0.0,0.0,0.0,0.0,0.0,0.0,0.0,0.0,0.0,0.0,0.0,0.0,0.0,0.0,0.0,0.0,0.0,0.0,0.0,0.0,0.0,0.0,0.0,0.0,0.0,0.0,0.0,0.0,0.0,0.0,0.0,0.0,0.0,0.0,0.0,0.0,0.0,0.0,0.0,0.0,0.0,0.0,0.0,0.0,0.0,0.0,0.0,0.0,0.0,0.0,0.0,0.0,0.0,0.0,0.0,0.0,0.0,0.0,0.0,0.0,0.0,0.0,0.0,0.0,0.0,0.0,0.0,0.0,0.0,0.0,0.0,0.0,0.0,0.0,0.0,0.0,0.0,0.0,0.0,0.0,0.0,0.0,0.0,0.0,0.0,0.0,0.0,0.0,0.0,0.0,0.0,0.0,0.0,0.0,0.0,0.0,0.0,0.0,0.0,0.0,0.0,0.0,0.0,0.0,0.0,0.0,0.0,0.0,0.0,0.0,0.0,0.0,0.0,0.0,0.0,0.0,0.0,0.0,0.0,0.0,0.0,0.0,0.0,0.0,0.0,0.0,0.0,0.0,0.0,0.0,0.0,0.0,0.0,0.0,0.0,0.0,0.0,0.0,0.0,0.0,0.0,0.0,0.0,0.0,0.0,0.0,0.0,0.0,0.0,0.0,0.0,0.0,0.0,0.0,0.0,0.0,0.0,0.0,0.0,0.0,0.0,0.0,0.0,0.0,0.0,0.0,0.0,0.0,0.0,0.0,0.0,0.0,0.0,0.0,0.0,0.0,0.0,0.0,0.0,0.0,0.0,0.0,0.0,0.0,0.0,0.0,0.0,0.0,0.0,0.0,0.0,0.0,0.0,0.0,0.0,0.0,0.0,0.0,0.0,0.0,0.0,0.0,0.0,0.0,0.0,0.0,0.0,0.0,0.0,0.0,0.0,0.0,0.0,0.0,0.0,0.0,0.0,0.0,0.0,0.0,0.0,0.0,0.0,0.0,0.0,0.0,0.0,0.0,0.0,0.0,0.0,0.0,0.0,0.0,0.0,0.0,0.0,0.0,0.0,0.0,0.0,0.0,0.0,0.0,0.0,0.0,0.0,0.0,0.0,0.0,0.0,0.0,0.0,0.0,0.0,0.0,0.0,0.0,0.0,0.0,0.0,0.0,0.0,0.0,0.0,0.0,0.0,0.0,0.0,0.0,0.0,0.0,0.0,0.0,0.0,0.0,0.0,0.0,0.0,0.0,0.0,0.0,0.0,0.0,0.0,0.0,0.0,0.0,0.0,0.0,0.0,0.0,0.0,0.0,0.0,0.0,0.0,0.0,0.0,0.0,0.0,0.0,0.0,0.0,0.0,0.0,0.0,0.0,0.0,0.0,0.0,0.0,0.0,0.0,0.0,0.0,0.0,0.0,0.0,0.0,0.0,0.0,0.0,0.0,0.0,0.0,0.0,0.0,0.0,0.0,0.0,0.0,0.0,0.0,0.0,0.0,0.0,0.0,0.0,0.0,0.0,0.0,0.0,0.0,0.0,0.0,0.0,0.0,0.0,0.0,0.0,0.0,0.0,0.0,0.0,0.0,0.0,0.0,0.0,0.0,0.0,0.0,0.0,0.0,0.0,0.0,0.0,0.0,0.0,0.0,0.0,0.0,0.0,0.0,0.0,0.0,0.0,0.0,0.0,0.0,0.0,0.0,0.0,0.0,0.0,0.0,0.0,0.0,0.0,0.0,0.0,0.0,0.0,0.0,0.0,0.0,0.0,0.0,0.0,0.0,0.0,0.0,0.0,0.0,0.0,0.0,0.0,0.0,0.0,0.0,0.0,0.0,0.0,0.0,0.0,0.0,0.0,0.0,0.0,0.0,0.0,0.0,0.0,0.0,0.0,0.0,0.0,0.0,0.0,0.0,0.0,0.0,0.0,0.0,0.0,0.0,0.0,0.0,0.0,0.0,0.0,0.0,0.0,0.0,0.0,0.0,0.0,-3.2146,0.0,0.0,0.0,0.0,0.0,0.0,0.0,0.0,0.0,0.0,0.0,0.0,0.0,0.0,0.0,0.0,0.0,0.0,0.0,0.0,0.0,0.0,0.0,0.0,-2.5564,-2.5551,-2.5551,-2.5465,0.0,0.0,0.0,0.0,0.0,0.0,0.0,0.0,0.0,-2.4517,-2.4976,-2.5859,-2.7128,-2.8779,-2.831,-2.7691,-2.6914,0.0,0.0,0.0,0.0,0.0,0.0,0.0,0.0,0.0,0.0,0.0,0.0,0.0,0.0,0.0,0.0,0.0,0.0,0.0,0.0,0.0,0.0,0.0,0.0,0.0,0.0,0.0,0.0,0.0,0.0,0.0,0.0,0.0,0.0,0.0,0.0,0.0,0.0,0.0,0.0,0.0,0.0,0.0,0.0,0.0,0.0,0.0,0.0,0.0,0.0,0.0,0.0,0.0,0.0,0.0,0.0,0.0,0.0,0.0,0.0,0.0,0.0,0.0,0.0,0.0,0.0,0.0,0.0,0.0,0.0,0.0,-3.2153,0.0,0.0,0.0,0.0,0.0,0.0,0.0,0.0,0.0,0.0,0.0,0.0,0.0,0.0,0.0,0.0,0.0,0.0,0.0,0.0,0.0,-2.4675,-2.5605,-2.5658,-2.5629,-2.5629,-2.5515,-2.5431,-2.5418,-2.535,0.0,0.0,0.0,0.0,0.0,-2.5573,-2.6145,-2.7226,-2.8535,-2.9858,-3.115,-3.115,-3.0444,-2.9077,-2.7341,0.0,0.0,0.0,0.0,0.0,0.0,0.0,0.0,0.0,0.0,0.0,0.0,0.0,0.0,0.0,0.0,0.0,0.0,0.0,0.0,0.0,0.0,0.0,0.0,0.0,0.0,0.0,0.0,0.0,0.0,0.0,0.0,0.0,0.0,0.0,0.0,0.0,0.0,0.0,0.0,0.0,0.0,0.0,0.0,0.0,0.0,0.0,0.0,0.0,0.0,0.0,0.0,0.0,0.0,0.0,0.0,0.0,0.0,0.0,0.0,0.0,0.0,0.0,-3.2647,-3.3168,-3.4055,-3.4828,-3.595,-3.711,-3.4287,-3.3725,-3.4666,-3.3283,0.0,0.0,0.0,0.0,0.0,0.0,0.0,0.0,0.0,0.0,0.0,0.0,0.0,0.0,0.0,0.0,0.0,0.0,0.0,-2.4717,-2.5605,-2.5683,-2.5683,-2.5683,-2.5629,-2.5551,-2.5481,-2.5418,0.0,0.0,0.0,0.0,-2.5594,-2.5658,-2.6484,-2.8125,-3.1211,-3.2808,-3.297,-3.297,-3.281,-3.2489,-3.0788,-3.0046,-2.995,0.0,0.0,0.0,0.0,0.0,0.0,0.0,0.0,0.0,0.0,0.0,0.0,0.0,0.0,0.0,0.0,0.0,0.0,0.0,0.0,0.0,0.0,0.0,0.0,0.0,0.0,0.0,0.0,0.0,0.0,0.0,0.0,0.0,0.0,0.0,0.0,0.0,0.0,0.0,0.0,0.0,-3.1711,-3.1881,0.0,0.0,0.0,0.0,0.0,0.0,0.0,0.0,0.0,0.0,0.0,0.0,0.0,-3.3018,-3.3346,-3.3871,-3.4513,-3.5279,-3.5976,-3.679,-3.7706,-3.7827,-3.8065,-3.8357,-3.7909,0.0,-3.6625,-3.6414,0.0,0.0,0.0,0.0,0.0,0.0,0.0,0.0,0.0,0.0,0.0,0.0,0.0,0.0,0.0,0.0,0.0,0.0,0.0,0.0,0.0,-2.6426,-2.6621,-2.7129,-2.7101,-2.6819,-2.6279,-2.6207,0.0,0.0,0.0,-2.5566,-2.5601,-2.6638,-2.8476,-3.1172,-3.3119,-3.4267,-3.4659,-3.461,-3.4566,-3.4466,-3.3751,-3.2419,-3.0608,-2.9899,0.0,0.0,0.0,0.0,0.0,0.0,0.0,0.0,0.0,0.0,0.0,0.0,0.0,0.0,0.0,0.0,0.0,0.0,0.0,0.0,0.0,0.0,0.0,0.0,0.0,0.0,0.0,0.0,0.0,0.0,0.0,0.0,0.0,0.0,0.0,0.0,0.0,0.0,0.0,-3.0636,-3.143,-3.1893,-3.1893,-3.1647,0.0,0.0,0.0,0.0,0.0,0.0,0.0,0.0,0.0,-3.3907,-3.444,-3.4944,-3.5446,-3.6242,-3.6839,-3.7209,-3.7493,-3.8091,-3.8961,-3.9046,-3.9357,-3.9833,-3.992,-3.9678,-3.9134,-3.7698,-3.6411,-3.5295,0.0,0.0,0.0,0.0,-3.2639,-3.1801,0.0,0.0,0.0,0.0,0.0,0.0,0.0,0.0,0.0,0.0,0.0,0.0,-2.6855,-2.7207,-2.7598,-2.8242,-2.8257,-2.7926,-2.7201,-2.6931,-2.6498,-2.5815,-2.5654,-2.5597,-2.5611,-2.7811,-3.041,-3.3376,-3.4413,-3.5181,-3.5667,-3.5616,-3.5568,-3.5507,-3.5558,-3.4197,-3.1841,-3.1439,-3.0567,-2.9407,0.0,0.0,0.0,0.0,0.0,0.0,0.0,0.0,0.0,0.0,0.0,0.0,0.0,0.0,0.0,0.0,0.0,0.0,0.0,0.0,0.0,0.0,0.0,0.0,0.0,0.0,0.0,0.0,0.0,0.0,0.0,0.0,0.0,0.0,0.0,0.0,0.0,-3.1655,-3.1954,-3.2589,-3.2617,-3.223,0.0,0.0,0.0,0.0,0.0,0.0,-3.4196,-3.4231,-3.4647,-3.5519,-3.6223,-3.6894,-3.7503,-3.8043,-3.8429,-3.8634,-3.853,-3.8932,-3.9761,-3.9866,-4.0229,-4.0801,-4.0911,-4.0962,-4.0861,-3.8986,-3.7902,-3.7359,-3.6726,-3.569,-3.4659,-3.5746,-3.5344,-3.4556,0.0,0.0,0.0,0.0,0.0,0.0,0.0,0.0,0.0,0.0,0.0,-2.6894,-2.6992,-2.7734,-2.8242,-2.8301,-2.8301,-2.8259,-2.8142,-2.7303,-2.6807,-2.6827,-2.5972,-2.5563,-2.5683,-2.9023,-3.1598,-3.3305,-3.5004,-3.5764,-3.5601,-3.5591,-3.5568,-3.55,-3.5507,-3.5456,-3.5253,-3.372,-3.3022,-3.2662,-2.9483,0.0,0.0,0.0,0.0,0.0,0.0,0.0,0.0,0.0,0.0,0.0,0.0,0.0,0.0,0.0,0.0,0.0,0.0,0.0,0.0,0.0,0.0,0.0,0.0,0.0,0.0,0.0,0.0,0.0,0.0,0.0,0.0,0.0,0.0,0.0,0.0,0.0,0.0,-3.4461,-3.4461,0.0,0.0,0.0,0.0,-3.4308,-3.446,-3.5246,-3.6908,-3.7066,-3.75,-3.8379,-3.8437,-3.8413,-3.8337,-3.8374,-3.8789,-3.9525,-3.954,-3.9949,-4.0735,-4.0739,-4.0758,-4.0797,-4.0805,-4.0877,-4.1,-4.0992,-4.0019,-3.8515,-3.8404,-3.6813,-3.4804,-3.65,-3.7067,-3.7251,0.0,0.0,0.0,-2.5308,-2.5308,-2.5308,-2.5308,-2.5404,-2.5491,-2.5491,-2.6371,-2.7207,-2.7773,-2.8613,-2.9355,-2.9922,-2.9961,-2.9705,-2.9083,-2.8248,-2.8013,-2.8553,-2.7759,-2.8354,-3.0605,-3.1875,-3.3316,-3.4963,-3.5515,-3.5709,-3.5605,-3.557,-3.5522,-3.55,-3.55,-3.5515,-3.5502,-3.4927,-3.4065,-3.2971,-3.1774,-3.0046,0.0,0.0,0.0,0.0,0.0,0.0,0.0,0.0,0.0,0.0,0.0,0.0,0.0,0.0,0.0,0.0,0.0,0.0,0.0,0.0,0.0,0.0,0.0,0.0,0.0,0.0,0.0,0.0,0.0,0.0,0.0,0.0,0.0,0.0,0.0,0.0,0.0,-3.3902,-3.4821,0.0,-3.4243,-3.5181,-3.5963,-3.6277,-3.685,-3.7458,-3.8064,-3.8125,-3.8281,-3.8594,-3.9055,-3.9273,-3.9236,-3.9664,-4.0019,-4.0305,-4.0209,-4.034,-4.0617,-4.0617,-4.0617,-4.0604,-4.0699,-4.0794,-4.0877,-4.1021,-4.0755,-4.0273,-4.0252,-3.9618,-3.8796,-3.9421,-3.9655,-3.9737,0.0,0.0,0.0,-2.5308,-2.5308,-2.5308,-2.5308,-2.5398,-2.5582,-2.59,-2.6792,-2.7753,-2.8633,-2.9512,-3.0273,-3.0859,-3.0898,-3.0644,-3.0012,-2.9175,-2.8824,-2.9073,-2.8573,-2.9766,-3.293,-3.3262,-3.4192,-3.5836,-3.5732,-3.5655,-3.5574,-3.5515,-3.55,-3.55,-3.55,-3.55,-3.55,-3.55,-3.486,-3.3782,-3.3221,-3.1719,-2.973,0.0,0.0,0.0,0.0,0.0,0.0,0.0,0.0,0.0,0.0,0.0,0.0,0.0,0.0,0.0,0.0,0.0,0.0,0.0,0.0,0.0,0.0,0.0,0.0,0.0,0.0,0.0,0.0,0.0,0.0,0.0,0.0,0.0,0.0,0.0,-3.4922,-3.4355,-3.582,-3.6523,-3.5664,-3.6894,-3.7851,-3.8164,-3.8711,-3.918,-3.9453,-3.9473,-3.9453,-3.9409,-3.9878,-4.0116,-4.0042,-4.048,-4.0674,-4.0636,-4.0537,-4.0496,-4.0496,-4.0496,-4.0496,-4.0504,-4.0589,-4.067,-4.0766,-4.0859,-4.0952,-4.1078,-4.1151,-4.1149,-4.1076,-4.1076,-4.1076,-4.1076,0.0,0.0,-2.5308,-2.5308,-2.5308,-2.5308,-2.5308,-2.5359,-2.5738,-2.6678,-2.7612,-2.8563,-2.9492,-3.0371,-3.0898,-3.0898,-3.0898,-3.0898,-3.0898,-2.9991,-2.9131,-2.8418,-2.8476,-2.9726,-3.2266,-3.3086,-3.4204,-3.571,-3.571,-3.5639,-3.5507,-3.5507,-3.5507,-3.55,-3.55,-3.55,-3.55,-3.55,-3.55,-3.536,-3.373,-3.3044,-3.275,0.0,0.0,0.0,0.0,0.0,0.0,0.0,0.0,0.0,0.0,0.0,0.0,0.0,0.0,0.0,0.0,0.0,0.0,0.0,0.0,0.0,0.0,0.0,0.0,0.0,0.0,0.0,0.0,0.0,0.0,0.0,0.0,0.0,-3.4746,-3.5488,-3.6055,-3.6074,-3.7598,-3.8301,-3.7461,-3.8164,-3.9023,-3.9883,-3.9941,-4.0312,-4.1152,-4.1191,-4.1148,-4.1019,-4.0994,-4.0903,-4.0709,-4.0697,-4.063,-4.0496,-4.0496,-4.0496,-4.0496,-4.0496,-4.0496,-4.0496,-4.0496,-4.0581,-4.0697,-4.0697,-4.0747,-4.0839,-4.1081,-4.1191,-4.1171,-4.1171,-4.1191,-4.1191,-2.5308,-2.5308,-2.5308,-2.5308,-2.5308,-2.5308,-2.5308,-2.5354,-2.5732,-2.6678,-2.7612,-2.8563,-2.9492,-3.0288,-3.0747,-3.0747,-3.0702,-3.0696,-3.0746,-2.9373,-2.9049,-3.0137,-3.2559,-3.4219,-3.4941,-3.5176,-3.5463,-3.5843,-3.5843,-3.5746,-3.5566,-3.5566,-3.5546,-3.55,-3.55,-3.55,-3.55,-3.55,-3.55,-3.5462,-3.5001,-3.4087,-3.2933,0.0,0.0,0.0,0.0,0.0,0.0,0.0,0.0,0.0,0.0,0.0,0.0,0.0,0.0,0.0,0.0,0.0,0.0,0.0,0.0,0.0,0.0,0.0,0.0,0.0,0.0,0.0,0.0,0.0,0.0,0.0,0.0,-3.5644,-3.5644,-3.6387,-3.7187,-3.7812,-3.8867,-3.9453,-3.9219,-3.9961,-4.0586,-4.082,-4.084,-4.0957,-4.1191,-4.1105,-4.108,-4.1149,-4.0903,-4.0786,-4.077,-4.0623,-4.0549,-4.0496,-4.0496,-4.0496,-4.0496,-4.0496,-4.0496,-4.0496,-4.0496,-4.0581,-4.0697,-4.0697,-4.0747,-4.0805,-4.0877,-4.0877,-4.0846,-4.0846,-4.0878,-4.092,-2.5308,-2.5308,-2.5308,-2.5308,-2.5308,-2.5308,-2.5308,-2.533,-2.5824,-2.7132,-2.7787,-2.861,-2.9878,-3.0407,-3.0665,-3.0665,-3.0959,-3.0886,-3.0243,-2.9301,-2.9585,-3.1367,-3.3672,-3.5078,-3.5449,-3.5801,-3.5973,-3.5901,-3.5901,-3.5816,-3.5633,-3.5633,-3.5611,-3.5574,-3.5574,-3.5579,-3.5534,-3.5534,-3.5528,-3.55,-3.55,-3.4912,-3.4015,-3.363,-3.2926,-3.2019,-3.1303,-3.1051,-3.107,-3.1225,0.0,0.0,0.0,0.0,0.0,0.0,0.0,0.0,0.0,0.0,0.0,0.0,0.0,0.0,0.0,0.0,0.0,0.0,0.0,0.0,0.0,0.0,0.0,0.0,-3.6855,-3.7226,-3.7578,-3.8066,-3.8574,-3.9082,-3.9902,-4.0449,-4.0449,-4.0898,-4.1191,-4.1191,-4.1191,-4.1191,-4.1191,-4.1077,-4.1019,-4.1026,-4.0818,-4.069,-4.066,-4.0568,-4.0496,-4.0496,-4.0496,-4.0496,-4.0496,-4.0496,-4.0496,-4.0496,-4.0496,-4.0537,-4.0616,-4.0616,-4.0636,0.0,0.0,0.0,0.0,0.0,-4.0761,-4.0809,-2.5303,-2.5274,-2.5269,-2.5303,-2.5308,-2.5308,-2.5308,-2.5385,-2.6053,-2.7783,-2.809,-2.8768,-3.0422,-3.0597,-3.0591,-3.0591,-3.1453,-3.1423,-3.0017,-3.0073,-3.082,-3.2266,-3.3203,-3.4062,-3.4824,-3.5605,-3.5973,-3.591,-3.591,-3.5845,-3.572,-3.572,-3.5713,-3.5707,-3.5707,-3.5675,-3.5611,-3.5611,-3.5566,-3.5515,-3.5515,-3.552,-3.5423,-3.4641,-3.4359,-3.4141,-3.266,-3.2141,-3.2045,-3.1442,0.0,0.0,0.0,0.0,0.0,0.0,0.0,0.0,0.0,0.0,0.0,0.0,0.0,0.0,0.0,0.0,0.0,0.0,0.0,0.0,0.0,0.0,0.0,0.0,-3.8242,-3.9043,-3.9922,-4.0059,-4.0059,-4.0059,-4.0723,-4.1191,-4.1191,-4.1191,-4.1191,-4.1191,-4.1191,-4.1191,-4.1191,0.0,0.0,0.0,0.0,-4.063,-4.0508,-4.06,-4.0593,-4.0496,-4.0593,-4.0593,-4.0496,-4.0593,-4.065,-4.065,-4.065,-4.065,-4.065,-4.0535,-4.0496,-4.0515,-4.0692,-4.076,-4.076,-4.076,-4.0788,-4.08,-2.5398,-2.5168,-2.5105,-2.5269,-2.5308,-2.5308,-2.5308,-2.5904,-2.6747,-2.7861,-2.857,-2.9385,-3.048,-3.0544,-3.0513,-3.0513,-3.1869,-3.2638,-3.249,-3.3266,-3.3555,-3.3184,-3.4668,-3.5586,-3.5742,-3.5918,-3.5996,-3.5975,-3.5975,-3.5947,-3.5869,-3.5869,-3.5805,-3.5707,-3.5707,-3.5696,-3.5678,-3.5678,-3.5633,-3.5588,-3.5588,-3.5552,-3.5481,-3.5308,-3.525,-3.5212,-3.4885,-3.4769,-3.4942,-3.6142,-3.5682,-3.4849,-3.622,-3.583,0.0,0.0,0.0,0.0,0.0,0.0,0.0,0.0,0.0,0.0,0.0,0.0,0.0,0.0,0.0,0.0,0.0,0.0,0.0,-3.9141,-3.9531,-3.9941,-4.082,-4.0957,-4.0957,-4.0957,-4.1094,-4.1191,-4.1191,-4.1191,-4.1191,-4.1191,-4.1191,-4.1191,-4.1191,-4.0964,-4.0874,-4.0957,-4.0688,-4.0588,-4.0655,-4.1258,-4.12,-4.0516,0.0,0.0,-4.0516,-4.1239,-4.1546,-4.1546,-4.1546,-4.1546,-4.1489,-4.0785,-4.0496,-4.0504,-4.054,-4.0568,-4.0568,-4.0568,-4.0636,-4.0724,-2.5609,-2.5628,-2.5531,-2.534,-2.5308,-2.5308,-2.5308,-2.6038,-2.6915,-2.7836,-2.8652,-2.9487,-3.0393,-3.0076,-2.9791,-2.9791,-3.0567,-3.1656,-3.3119,-3.3692,-3.4019,-3.4043,-3.5293,-3.5996,-3.5996,-3.5996,-3.5996,-3.5996,-3.5996,-3.5975,-3.5948,-3.5948,-3.5902,-3.5845,-3.5845,-3.5832,-3.5802,-3.5802,-3.5712,-3.5611,-3.5611,-3.5556,-3.55,-3.55,-3.55,-3.55,-3.55,-3.575,-3.6231,-3.7065,-3.7114,-3.6941,-3.7825,-3.7635,-3.6869,0.0,0.0,0.0,0.0,0.0,0.0,0.0,0.0,0.0,0.0,0.0,0.0,0.0,0.0,-3.7051,0.0,0.0,-3.8958,-4.0332,-4.0856,-4.1264,-4.1738,-4.1797,-4.1641,-4.125,-4.1191,-4.1191,-4.1191,-4.1191,-4.1367,-4.1777,-4.1797,-4.1992,-4.2422,-4.2239,-4.2128,-4.2191,-4.1931,-4.1825,-4.1902,-4.2268,-4.2239,-4.1816,-4.2239,-4.222,-4.1816,-4.2258,-4.245,-4.245,-4.249,-4.2225,-4.1731,-4.0854,-4.0496,-4.0496,-4.0496,-4.0496,-4.0496,-4.0496,-4.0537,-4.0596,-2.6191,-2.6367,-2.6166,-2.5601,-2.5677,-2.575,-2.5577,-2.6288,-2.7101,-2.7818,-2.8607,-2.9429,-3.0308,-2.9621,-2.9242,-2.9588,-2.9666,-3.0835,-3.3521,-3.3763,-3.4142,-3.4922,-3.5625,-3.5996,-3.5996,-3.5996,-3.5996,-3.5996,-3.5996,-3.5996,-3.5996,-3.5996,-3.5996,-3.5996,-3.5996,-3.5973,-3.5914,-3.5914,-3.5791,-3.5631,-3.5631,-3.5566,-3.55,-3.55,-3.55,-3.55,-3.55,-3.6019,-3.6731,-3.6904,-3.7529,-3.8304,-3.8528,-3.8718,-3.8562,-3.7269,-3.7312,0.0,0.0,0.0,0.0,0.0,0.0,0.0,0.0,0.0,-3.6784,-3.77,-3.7982,-3.8496,-3.9883,-4.0051,-4.0316,-4.1289,-4.1925,-4.2407,-4.2617,-4.2656,-4.2402,-4.1758,-4.1406,-4.1328,-4.1641,-4.1523,-4.1777,-4.2598,-4.2656,-4.2949,-4.3631,-4.3499,-4.3396,-4.3354,-4.3199,-4.3104,-4.3104,-4.3258,-4.3258,-4.3104,-4.3258,-4.3258,-4.3104,-4.3258,-4.3335,-4.3344,-4.3385,-4.2804,-4.175,-4.1046,-4.065,-4.0496,-4.0496,-4.0496,-4.0496,-4.0496,-4.0496,-4.0496,-2.7568,-2.7289,-2.6691,-2.6263,-2.6981,-2.7351,-2.6563,-2.7198,-2.7799,-2.7895,-2.8607,-2.9429,-3.0308,-2.9621,-2.9723,-3.1275,-3.1463,-3.2617,-3.5252,-3.5541,-3.5685,-3.5859,-3.5957,-3.5996,-3.5996,-3.5996,-3.5996,-3.5996,-3.5996,-3.5996,-3.5996,-3.5996,-3.5996,-3.5996,-3.5996,-3.5996,-3.5995,-3.5995,-3.5872,-3.5689,-3.5689,-3.5616,-3.55,-3.55,-3.55,-3.55,-3.55,-3.6019,-3.6808,-3.7584,-3.8472,-3.9375,-4.0155,-4.0544,-4.0656,-4.0485,-4.0047,-3.959,-3.9492,0.0,0.0,-3.8457,-3.8437,-3.8807,0.0,0.0,-3.9686,-4.0566,-4.0742,-4.082,-4.1016,-4.1035,-4.1308,-4.2129,-4.2324,-4.2656,-4.3437,-4.3555,-4.3516,-4.3437,-4.2109,-4.1777,-4.3281,-4.2715,-4.2617,-4.3496,-4.3555,-4.3571,-4.3619,-4.3487,-4.3355,-4.322,-4.3146,-4.3104,-4.3104,-4.3816,-4.3816,-4.3104,-4.3816,-4.3797,-4.3124,-4.3835,-4.4162,-4.4162,-4.4168,-4.3264,-4.1788,-4.1692,-4.12,-4.0496,-4.0496,-4.0496,-4.0496,-4.0496,-4.0496,-4.0496,-2.7177,-2.7737,-2.7914,-2.7627,-2.7526,-2.7465,-2.7363,-2.7524,-2.7725,-2.7879,-2.8184,-2.8549,-2.8909,-2.8621,-2.8703,-2.941,-3.0863,-3.243,-3.4085,-3.5154,-3.58,-3.5942,-3.5945,-3.5951,-3.5996,-3.5996,-3.5996,-3.5996,-3.5996,-3.5996,-3.5996,-3.5996,-3.5996,-3.5996,-3.5996,-3.5996,-3.5996,-3.5996,-3.5927,-3.5807,-3.5726,-3.5633,-3.5556,-3.5556,-3.5556,-3.5614,-3.6128,-3.6485,0.0,-3.8432,-3.9148,-3.9564,-4.0471,-4.0519,-4.0331,-4.0859,-4.0478,-4.0019,-4.0527,0.0,0.0,0.0,-3.9558,-3.9936,-4.0104,-4.0269,-4.0464,-4.0838,-4.1005,-4.1081,-4.1081,-4.1504,-4.1964,0.0,-4.3219,-4.3996,-4.4394,-4.4453,-4.4648,-4.5156,-4.3691,-4.293,-4.3633,-4.3379,-4.3516,-4.4394,-4.4453,-4.4625,-4.5037,-4.4922,-4.4812,-4.4712,-4.4604,-4.4547,-4.4547,-4.4902,-4.4902,-4.4547,-4.4902,-4.4883,-4.4566,-4.4902,-4.5104,-4.5136,-4.4548,-4.3659,-4.2567,-4.2036,-4.1296,-4.0496,-4.0496,-4.0496,-4.0496,-4.0496,-4.0496,-4.0496,-2.7037,-2.8032,-2.8738,-2.882,-2.807,-2.7514,-2.7682,-2.7535,-2.7438,-2.7466,-2.7451,-2.7487,-2.7544,-2.7544,-2.764,-2.7876,-3.0006,-3.1832,-3.3025,-3.4667,-3.5666,-3.5838,-3.5843,-3.5861,-3.5927,-3.5952,-3.5974,-3.5974,-3.5996,-3.5996,-3.5996,-3.5996,-3.5996,-3.5996,-3.5996,-3.5996,-3.5996,-3.5996,-3.5951,-3.59,-3.5799,-3.5705,-3.5626,-3.5626,-3.549,-3.5408,-3.6255,-3.6651,-3.6971,-3.8127,-3.8789,-3.9203,-3.9645,-3.9602,-3.9627,-4.0722,-4.0678,-4.0332,-4.0742,0.0,0.0,-3.9715,-4.024,-4.0621,-3.9941,-4.0269,-4.0721,-4.0721,-4.0866,-4.1074,-4.1308,-4.1894,-4.2507,-4.3027,-4.4135,-4.5028,-4.5312,-4.5351,-4.5586,-4.6211,-4.5195,-4.4394,-4.4372,-4.4179,-4.4394,-4.5231,-4.5331,-4.556,-4.6028,-4.5944,-4.5846,-4.5754,-4.566,-4.5594,-4.5594,-4.5594,-4.5594,-4.5594,-4.5594,-4.5594,-4.5594,-4.5594,-4.564,-4.5701,-4.4969,-4.4214,-4.3459,-4.2765,-4.1854,-4.0873,-4.1131,-4.092,-4.0535,-4.0766,-4.0708,-4.0496,-2.7755,-2.8302,-2.8747,-2.9525,-2.8774,-2.7876,-2.7301,-2.7212,-2.6998,-2.6416,-2.6346,-2.6427,-2.6624,-2.664,-2.6986,-2.7838,-2.9467,-3.1196,-3.2986,-3.4667,-3.563,-3.5707,-3.571,-3.571,-3.5713,-3.5841,-3.5903,-3.5903,-3.5973,-3.5996,-3.5996,-3.5996,-3.5996,-3.5996,-3.5996,-3.5996,-3.5996,-3.5996,-3.5951,-3.5901,-3.59,-3.5809,-3.57,-3.57,-3.521,-3.4643,-3.5447,-3.6277,-3.6868,-3.6087,-3.6988,-3.8294,-3.7472,-3.7876,-3.8965,-4.0683,-4.1172,-4.0976,-4.0156,0.0,-3.9708,-3.9706,-4.024,-4.0797,-4.0754,-4.0774,-4.0793,-4.0793,-4.0908,-4.1269,-4.2091,-4.2336,-4.2949,-4.4648,-4.4961,-4.5293,-4.6133,-4.6269,-4.6269,-4.6308,-4.625,-4.6169,0.0,-4.5384,-4.527,-4.6017,-4.6185,-4.6157,-4.5916,-4.5903,-4.5817,-4.562,-4.5594,-4.5594,-4.5594,-4.5594,-4.5594,-4.5594,-4.5594,-4.5594,-4.5594,-4.5594,-4.5594,-4.5603,-4.5575,-4.5075,-4.4248,-4.4248,-4.3258,-4.1827,-4.2701,-4.1989,-4.0593,-4.145,-4.1239,-4.0496,-2.8252,-2.9122,-2.9749,-2.97,-2.9398,-2.8802,-2.776,-2.736,-2.7188,-2.7166,-2.7279,0.0,0.0,0.0,0.0,0.0,-3.0275,-3.1742,-3.2879,-3.4036,-3.4955,-3.5611,-3.5635,-3.5655,-3.5703,-3.5732,-3.5766,-3.5766,-3.5884,-3.5922,-3.5922,-3.5975,-3.5996,-3.5996,-3.5996,-3.5996,-3.5996,-3.5996,-3.5995,-3.5952,-3.5914,-3.6224,-3.6757,-3.7284,-3.6638,-3.5548,0.0,-3.5786,-3.4617,-3.5589,-3.5892,-3.5944,-3.6279,-3.66,-3.7226,-3.8965,-4.0293,-4.1113,-4.073,-4.0168,-3.9804,-4.0252,-4.0553,-4.071,-4.061,-4.0604,-4.0604,-4.0604,-4.1194,-4.1825,-4.2101,-4.324,-4.4316,-4.4902,-4.5488,-4.5957,-4.6269,-4.6308,-4.6308,-4.6308,-4.6308,0.0,0.0,0.0,0.0,-4.6093,-4.6145,-4.6084,-4.5907,-4.5861,-4.5764,-4.5603,-4.5594,-4.5594,-4.5594,-4.5594,-4.5594,-4.5594,-4.5594,-4.5594,-4.5594,-4.5594,-4.5594,-4.5594,-4.5594,-4.5114,-4.4297,-4.4297,-4.3643,-4.2701,-4.2989,-4.2393,-4.1393,-4.1692,-4.1258,-4.0496,-2.8992,-2.9699,-3.0244,-3.0179,-2.9586,0.0,0.0,0.0,0.0,0.0,0.0,0.0,0.0,0.0,0.0,0.0,0.0,-3.1583,-3.2429,-3.3564,-3.4462,-3.5065,-3.509,-3.5115,-3.5165,-3.4901,-3.5053,-3.5652,-3.5491,-3.5717,-3.6299,-3.6025,-3.5882,-3.5882,-3.5882,-3.5926,-3.5972,-3.6304,-3.6619,-3.6894,-3.6535,-3.6919,-3.7681,-3.7584,-3.6684,0.0,-3.6151,-3.5048,-3.3409,-3.4333,-3.4431,-3.4285,-3.4882,-3.5937,-3.7148,-3.8262,-3.9609,-4.0761,-4.095,-4.0355,-3.9835,-4.0527,-4.0655,-4.0603,-4.0527,-4.0496,-4.0593,-4.0893,-4.1579,-4.2288,-4.2911,-4.411,-4.5098,-4.541,-4.5937,-4.6308,-4.6308,-4.6308,-4.6308,-4.6308,-4.6308,-4.6203,0.0,0.0,0.0,-4.5997,-4.6061,-4.6027,-4.5862,-4.5853,-4.5796,-4.568,-4.5673,-4.5673,-4.5673,-4.5618,-4.5594,-4.5594,-4.5594,-4.5594,-4.5594,-4.5594,-4.5594,-4.5594,-4.5594,-4.5287,-4.4759,-4.4759,-4.4278,-4.3566,-4.3874,-4.3085,-4.1846,-4.2162,-4.1527,-4.0496,-3.0028,-3.0169,-3.0327,0.0,0.0,0.0,0.0,0.0,0.0,0.0,0.0,0.0,0.0,0.0,0.0,0.0,0.0,0.0,-3.1641,-3.3179,-3.4109,-3.4205,-3.4205,-3.4225,-3.4263,-3.3569,-3.4003,-3.56,-3.4894,-3.5366,-3.6907,-3.6089,-3.5707,-3.5707,-3.5707,-3.5805,-3.6015,-3.6801,-3.7662,-3.8457,-3.7578,-3.7754,-3.8359,-3.6758,-3.5566,-3.4766,-3.4824,-3.4219,-3.3281,-3.2578,-3.2851,-3.3535,-3.3594,-3.5898,-3.8613,-3.8652,-3.9277,-4.0116,-4.079,-4.0334,-3.9822,-4.0527,-4.0589,-4.0496,-4.0496,-4.0535,-4.0804,-4.1639,-4.2044,-4.2735,0.0,0.0,-4.5332,-4.6172,-4.6308,-4.6308,-4.6308,-4.6308,-4.6308,0.0,0.0,0.0,0.0,0.0,0.0,-4.5821,0.0,-4.6017,-4.5821,-4.5871,-4.5876,-4.5816,-4.5816,-4.5809,-4.5803,-4.5665,-4.5594,-4.5594,-4.5594,-4.5594,-4.5594,-4.5594,-4.5594,-4.5594,-4.5594,-4.5594,-4.5594,-4.5594,-4.5114,-4.4451,-4.5287,-4.4066,-4.1962,-4.2797,-4.1989,-4.0496,0.0,0.0,0.0,0.0,0.0,0.0,0.0,0.0,0.0,0.0,0.0,0.0,0.0,0.0,0.0,0.0,0.0,0.0,-3.1641,-3.2102,-3.2891,-3.4148,-3.4205,-3.4507,-3.5154,-3.4969,-3.5111,-3.5528,-3.5382,-3.5543,-3.595,-3.5788,-3.5707,-3.5707,-3.5707,-3.6083,-3.6703,-3.6372,-3.6728,-3.742,-3.6639,-3.6855,-3.7656,-3.7851,-3.6992,-3.5742,-3.6406,-3.5234,-3.3476,-3.3906,0.0,0.0,0.0,-3.7363,-3.873,-3.9375,-4.0112,-4.075,-4.0821,-4.0643,-4.0444,-4.0537,-4.0534,-4.0496,-4.0496,-4.0989,-4.1555,-4.1879,-4.3058,-4.4203,0.0,0.0,0.0,-4.6269,-4.6308,0.0,-4.6308,-4.6308,0.0,-4.6308,0.0,-4.6247,-4.6115,-4.6198,0.0,0.0,-4.588,-4.592,-4.6031,-4.5906,-4.5842,-4.5872,-4.5872,-4.5845,-4.5803,-4.5665,-4.5594,-4.5594,-4.5594,-4.5594,-4.5594,-4.5594,-4.5594,-4.5594,-4.5594,-4.5594,-4.5594,-4.5594,-4.5479,-4.5287,-4.5518,-4.4432,-4.2797,-4.3028,-4.1989,-4.0496,0.0,0.0,0.0,0.0,0.0,0.0,0.0,0.0,0.0,0.0,0.0,0.0,0.0,0.0,0.0,0.0,0.0,0.0,0.0,-3.2025,-3.2641,-3.3583,-3.3622,-3.3853,-3.4346,-3.3635,-3.4,-3.55,-3.4428,-3.4842,-3.6612,-3.5155,-3.4672,-3.504,-3.504,-3.5339,-3.5849,-3.6186,-3.6849,0.0,0.0,-3.7068,-3.7832,-3.7559,-3.6855,-3.6055,-3.6543,-3.6289,-3.582,0.0,0.0,-3.666,-3.7148,-3.8164,-3.9258,-3.9682,0.0,-4.0957,-4.0807,-4.0726,-4.0661,-4.0523,-4.0496,-4.0496,-4.0496,-4.1219,-4.2007,-4.244,-4.3733,0.0,0.0,0.0,0.0,0.0,0.0,0.0,-4.6308,-4.6308,-4.6308,0.0,-4.6308,0.0,-4.6199,-4.6201,-4.6174,0.0,-4.5983,-4.5951,-4.6001,-4.5959,-4.5946,-4.5985,-4.5988,-4.5933,-4.5803,-4.5665,-4.5594,-4.5594,-4.5594,-4.5594,-4.5594,-4.5594,-4.5594,-4.5594,0.0,-4.5594,-4.5594,-4.5594,-4.5594,-4.5594,-4.5594,-4.4566,-4.3104,-4.3104,-4.1989,-4.0496,0.0,0.0,0.0,0.0,0.0,0.0,0.0,0.0,0.0,-3.0885,-3.0712,-3.0865,0.0,0.0,0.0,0.0,0.0,0.0,0.0,0.0,-3.2949,-3.3064,-3.2968,-3.2949,-3.3064,-3.1519,-3.2173,-3.5154,-3.2949,-3.3737,-3.7257,-3.441,-3.3468,-3.4205,-3.4321,-3.4455,-3.4714,-3.6139,-3.7308,-3.814,-3.734,-3.7502,-3.8085,0.0,-3.6054,-3.6171,-3.6308,-3.7324,-3.873,-3.9609,-3.8965,-3.7812,-3.7812,-3.8847,-4.0017,-3.9914,-4.0398,-4.0925,-4.0751,-4.0686,-4.0655,-4.0534,-4.0496,-4.0535,-4.065,-4.1447,-4.2412,-4.3224,0.0,-4.5275,-4.5982,-4.6223,-4.6308,-4.6308,0.0,-4.6308,-4.6308,-4.6308,-4.6308,-4.6308,-4.6308,-4.6308,-4.6308,-4.6199,-4.6174,-4.6289,-4.6199,-4.6077,-4.5967,-4.6045,-4.6113,-4.6138,-4.6087,-4.599,-4.5815,-4.568,-4.5594,-4.5594,-4.5594,-4.5594,-4.5594,-4.5594,-4.5594,-4.5594,-4.5594,-4.5594,-4.5594,-4.5594,-4.5594,-4.5594,-4.5594,-4.4566,-4.3104,-4.3104,-4.1989,-4.0496,0.0,0.0,0.0,0.0,0.0,0.0,0.0,0.0,0.0,0.0,-3.2333,-3.1525,0.0,0.0,0.0,0.0,0.0,0.0,0.0,0.0,0.0,-3.3936,-3.3276,-3.3237,-3.3955,-3.2987,-3.2756,-3.3353,-3.291,-3.3064,-3.3795,-3.391,-3.4071,-3.4225,-3.4949,-3.5655,-3.6266,-3.5969,-3.6375,-3.7176,-3.631,-3.6121,-3.6344,-3.603,0.0,0.0,-3.787,-3.834,-3.873,-3.9609,-4.0176,-4.0527,-4.0527,-4.0659,-4.0792,-4.0783,-4.0753,-4.0745,-4.0715,-4.0623,-4.0534,-4.0504,-4.0496,-4.0689,-4.1412,-4.2309,0.0,0.0,0.0,-4.5966,-4.6227,-4.6289,-4.6308,-4.6308,0.0,0.0,0.0,0.0,-4.6308,0.0,0.0,0.0,0.0,0.0,0.0,0.0,0.0,-4.6267,-4.6225,-4.6147,-4.6147,-4.6268,-4.6045,-4.5912,-4.5886,-4.5691,-4.5594,-4.5594,-4.5594,-4.5594,-4.5594,-4.5594,-4.5594,-4.5594,-4.5594,0.0,-4.5594,-4.5594,-4.5594,-4.5594,-4.5594,-4.4566,-4.3104,-4.3104,-4.1989,-4.0496,0.0,0.0,0.0,0.0,0.0,0.0,0.0,-3.3006,-3.3603,-3.5276,-3.5199,-3.4661,-3.3769,-3.3622,-3.3757,0.0,0.0,0.0,0.0,0.0,0.0,-3.3983,-3.3729,-3.3717,-3.3983,-3.3268,-3.3333,-3.425,0.0,-3.3583,-3.4853,-3.3949,-3.3782,-3.4225,-3.4641,-3.5045,-3.5417,-3.5515,-3.5831,-3.6274,-3.6317,-3.6382,-3.6515,0.0,0.0,0.0,0.0,-3.9277,-3.9336,-3.9766,-4.0488,-4.1191,-4.1126,-4.1103,-4.1074,-4.0896,-4.0794,-4.0722,-4.0623,-4.0545,-4.0496,-4.0496,-4.0835,-4.1309,-4.1786,0.0,0.0,0.0,0.0,-4.6224,-4.6289,-4.6308,0.0,0.0,0.0,0.0,0.0,0.0,0.0,0.0,0.0,0.0,0.0,0.0,0.0,0.0,0.0,-4.6308,-4.6308,-4.6246,-4.6226,-4.6308,-4.6039,-4.5899,-4.5899,-4.5706,-4.5594,-4.5594,-4.5594,-4.5594,-4.5594,-4.5594,-4.5594,-4.5594,-4.5594,0.0,-4.5594,-4.5594,-4.5594,-4.5594,-4.5594,-4.4566,-4.3104,-4.3104,-4.1989,-4.0496,0.0,0.0,0.0,0.0,0.0,0.0,0.0,-3.4737,-3.5468,-3.7519,-3.8238,-3.8027,-3.6712,-3.5641,-3.5141,0.0,0.0,0.0,0.0,0.0,0.0,0.0,0.0,0.0,0.0,0.0,0.0,-3.4942,-3.3564,0.0,0.0,0.0,0.0,0.0,-3.4398,-3.4468,-3.4526,-3.5212,-3.5547,0.0,0.0,-3.69,0.0,0.0,0.0,0.0,0.0,-4.0059,-3.9922,-4.0117,-4.0488,-4.0894,-4.0937,-4.1026,-4.1109,-4.1,-4.0856,-4.0698,-4.054,-4.0496,-4.0496,-4.0496,-4.1182,-4.1931,-4.2195,-4.3549,0.0,0.0,-4.5773,-4.6308,-4.6308,-4.6308,-4.6308,0.0,-4.6308,0.0,0.0,0.0,0.0,0.0,0.0,0.0,0.0,0.0,0.0,0.0,0.0,0.0,-4.6308,-4.6308,-4.6308,-4.6308,-4.6075,-4.5924,-4.5899,-4.5729,-4.5618,-4.5594,-4.5594,-4.5594,-4.5594,-4.5594,-4.5594,-4.5594,-4.5594,0.0,0.0,-4.5594,-4.5594,-4.5594,-4.5594,-4.4566,-4.3104,-4.3104,-4.1989,-4.0496,0.0,0.0,0.0,0.0,0.0,0.0,0.0,-3.6462,-3.7635,-4.0904,-4.07,-4.0208,-4.0054,-3.8604,-3.7065,0.0,0.0,0.0,0.0,0.0,0.0,0.0,0.0,0.0,0.0,0.0,0.0,-3.3141,-3.2987,0.0,0.0,0.0,0.0,0.0,0.0,-3.5385,-3.5385,-3.5462,0.0,0.0,0.0,0.0,0.0,0.0,0.0,0.0,0.0,-4.0566,-4.0019,0.0,0.0,-3.9958,-4.0607,-4.0839,-4.0976,-4.1679,0.0,0.0,-4.0504,-4.0496,-4.0496,-4.0496,-4.1252,-4.2169,-4.2917,0.0,0.0,-4.5835,-4.6163,-4.6308,-4.6308,-4.6308,-4.6308,0.0,-4.6308,-4.6308,-4.6308,0.0,0.0,0.0,0.0,0.0,0.0,0.0,0.0,0.0,0.0,0.0,-4.6308,-4.6308,-4.6308,-4.6308,-4.617,-4.6011,-4.5903,-4.5826,-4.573,-4.5594,-4.5594,-4.5594,-4.5594,-4.5594,-4.5594,-4.5594,-4.5594,0.0,0.0,-4.5594,-4.5594,-4.5594,-4.5594,-4.4566,-4.3104,-4.3104,-4.1989,-4.0496,0.0,0.0,0.0,0.0,0.0,0.0,-3.7055,-3.7038,-3.8115,-4.2066,-4.1816,-4.1277,-4.1277,-4.07,-3.92,-3.6462,0.0,0.0,0.0,0.0,0.0,0.0,0.0,0.0,0.0,0.0,-3.4692,-3.5199,-3.5199,0.0,0.0,0.0,0.0,0.0,0.0,-3.5942,-3.55,-3.55,0.0,0.0,0.0,0.0,0.0,0.0,0.0,0.0,0.0,0.0,-4.0664,0.0,0.0,0.0,-4.0726,-4.0766,0.0,0.0,-4.1233,-4.1279,-4.0662,-4.0496,-4.0642,-4.1247,-4.206,-4.2995,-4.3989,0.0,-4.575,-4.6142,-4.6268,-4.6308,-4.6308,-4.5879,-4.5683,-4.6211,-4.5859,-4.5703,-4.623,-4.6308,0.0,0.0,0.0,0.0,0.0,0.0,0.0,0.0,0.0,0.0,-4.6308,-4.6308,-4.6308,-4.6308,-4.6173,-4.6077,-4.6027,-4.5869,-4.5763,-4.573,-4.5635,-4.5594,-4.5594,-4.5594,-4.5594,-4.5594,-4.5594,0.0,0.0,-4.5594,-4.5594,-4.5594,-4.5594,-4.4566,-4.3104,-4.3104,-4.1989,-4.0496,0.0,0.0,0.0,0.0,0.0,-3.5235,-3.7973,-3.7853,-3.8815,-4.2604,-4.2566,-4.2181,-4.2181,-4.1942,-4.0731,-3.8065,-3.7135,0.0,0.0,0.0,0.0,0.0,0.0,0.0,0.0,0.0,-3.5885,-3.6692,-3.6692,-3.7161,0.0,0.0,-3.768,-3.7065,0.0,0.0,0.0,0.0,0.0,0.0,0.0,0.0,0.0,0.0,0.0,0.0,0.0,0.0,0.0,0.0,0.0,0.0,-4.0893,-4.0978,-4.1133,0.0,-4.1415,-4.1454,-4.1008,-4.0908,-4.1103,-4.1814,-4.2862,-4.3921,0.0,0.0,-4.6196,-4.6289,-4.6308,-4.6308,-4.6308,-4.5801,-4.5586,-4.6191,-4.5781,-4.5605,-4.6211,-4.6268,0.0,0.0,0.0,0.0,0.0,0.0,0.0,0.0,0.0,0.0,-4.6308,-4.6308,-4.6308,-4.6308,-4.6202,-4.6144,-4.6108,-4.5915,-4.5808,-4.5796,-4.5665,-4.5594,-4.5594,-4.5594,-4.5594,-4.5594,-4.5594,0.0,0.0,-4.5594,-4.5594,-4.5594,-4.5594,-4.4566,-4.3104,-4.3104,-4.1989,-4.0496,0.0,0.0,0.0,0.0,0.0,0.0,-3.8892,-3.9284,-4.0181,-4.2758,-4.3085,-4.3085,-4.3085,-4.2316,-4.145,-4.0535,-3.8161,0.0,0.0,0.0,0.0,0.0,0.0,0.0,0.0,0.0,-3.5885,-3.6692,-3.6692,-3.7161,-3.8007,-3.8007,-3.8007,-3.795,0.0,0.0,0.0,0.0,0.0,0.0,0.0,0.0,0.0,0.0,0.0,0.0,0.0,0.0,0.0,0.0,0.0,0.0,0.0,-4.1493,-4.2223,-4.2876,-4.1862,-4.0708,-4.1566,-4.187,-4.1993,-4.1999,-4.3444,-4.4885,0.0,0.0,-4.6308,-4.6308,-4.6308,-4.6308,-4.6308,-4.6289,-4.6289,-4.6308,-4.6289,-4.6289,-4.6308,-4.6196,0.0,0.0,0.0,0.0,0.0,0.0,0.0,0.0,0.0,0.0,-4.6308,-4.6308,-4.6308,-4.6308,-4.6308,-4.6226,-4.611,-4.5971,-4.5876,-4.5796,-4.5665,-4.5594,-4.5594,-4.5594,-4.5594,0.0,0.0,0.0,0.0,-4.5594,-4.5594,-4.5594,-4.5594,-4.4566,-4.3104,-4.3104,-4.1989,-4.0496,0.0,0.0,0.0,0.0,0.0,0.0,0.0,-3.7526,-3.843,-4.0997,-4.1324,-4.1777,-4.297,-4.2316,-4.17,-4.1412,-3.9604,0.0,0.0,0.0,0.0,0.0,0.0,0.0,0.0,-3.6327,-3.7353,-3.9437,-3.9338,-3.98,-4.0739,-4.0634,-3.9988,-3.8873,-3.8604,-3.8142,0.0,0.0,0.0,0.0,0.0,0.0,0.0,0.0,0.0,0.0,0.0,0.0,0.0,0.0,0.0,0.0,0.0,0.0,0.0,-4.2963,-4.2781,-4.2279,-4.2008,-4.237,-4.2859,-4.305,-4.3999,-4.507,-4.5716,0.0,-4.6308,-4.6308,-4.6308,-4.6308,-4.6308,-4.5801,-4.5605,-4.6191,-4.5801,-4.5585,0.0,0.0,0.0,0.0,0.0,0.0,0.0,0.0,0.0,0.0,0.0,0.0,-4.6308,-4.6308,-4.6308,-4.6308,-4.6308,-4.6289,-4.6246,-4.6005,-4.5881,-4.5876,-4.5688,-4.5594,-4.5594,-4.5594,-4.5594,0.0,0.0,0.0,0.0,-4.5594,-4.5594,-4.5537,-4.4932,-4.4047,-4.3028,-4.2431,-4.1489,-4.0496,0.0,0.0,0.0,0.0,0.0,0.0,0.0,-3.6692,-3.7507,-3.9746,-4.0054,-4.0708,-4.2412,-4.1835,-4.1566,-4.2239,-4.1046,0.0,0.0,0.0,0.0,0.0,0.0,0.0,-3.6692,-3.7019,-3.835,-4.0699,-4.0623,-4.1216,-4.2458,-4.2361,-4.1585,-4.0219,-3.99,-3.9284,0.0,0.0,0.0,0.0,0.0,0.0,-4.1716,0.0,0.0,0.0,0.0,0.0,0.0,0.0,0.0,0.0,0.0,0.0,0.0,0.0,-4.3763,-4.3654,-4.3097,-4.3346,-4.3821,-4.4041,-4.4761,-4.5576,-4.6172,-4.6308,-4.6308,-4.6308,-4.6035,-4.5918,-4.623,-4.5545,-4.523,-4.6152,-4.5799,-4.5598,0.0,0.0,0.0,0.0,0.0,0.0,0.0,0.0,0.0,0.0,0.0,0.0,-4.6308,-4.6308,-4.6308,-4.6308,-4.6308,-4.6308,-4.6308,-4.6036,-4.5899,-4.5899,-4.5699,-4.5594,-4.5594,-4.5594,-4.5594,0.0,0.0,0.0,0.0,-4.5594,-4.5594,-4.5518,-4.4643,-4.3816,-4.2989,-4.2124,-4.1258,-4.0496,0.0,0.0,0.0,0.0,0.0,0.0,0.0,-3.6654,-3.7296,-3.8996,-3.9265,-3.9912,-4.1527,-4.0969,-4.1189,-4.2854,0.0,0.0,0.0,0.0,0.0,0.0,0.0,0.0,-3.6788,-3.7642,-3.9013,-4.089,-4.0873,-4.1726,-4.3327,-4.3303,-4.2756,-4.1774,-4.0958,-4.015,0.0,0.0,0.0,0.0,0.0,-4.1846,0.0,0.0,0.0,0.0,0.0,0.0,0.0,0.0,0.0,0.0,0.0,0.0,0.0,0.0,0.0,0.0,0.0,-4.469,-4.4807,-4.4896,-4.5617,-4.6308,-4.6308,-4.6308,0.0,-4.6211,-4.5566,-4.5254,-4.6055,-4.5436,-4.5129,-4.6132,-4.6198,-4.6144,0.0,-4.6069,0.0,0.0,0.0,0.0,0.0,0.0,0.0,0.0,0.0,0.0,-4.6308,-4.6308,-4.6308,-4.6308,-4.6308,-4.6308,-4.6308,-4.6036,-4.5899,-4.5899,-4.5699,-4.5594,-4.5594,-4.5594,-4.5594,0.0,0.0,0.0,0.0,-4.5594,-4.5594,-4.5518,-4.4643,-4.3816,-4.2989,-4.2124,-4.1258,-4.0496,0.0,0.0,0.0,0.0,0.0,0.0,0.0,0.0,0.0,0.0,-3.8892,-3.9688,-4.0708,-4.0631,-4.0939,0.0,0.0,0.0,0.0,0.0,0.0,0.0,0.0,0.0,-3.768,-3.8546,-4.0237,-4.2769,-4.2657,-4.3258,-4.4507,-4.4291,-4.3382,-4.1951,-4.1624,-4.1027,0.0,0.0,0.0,0.0,-4.2066,-4.22,0.0,0.0,0.0,0.0,-4.2188,-4.3191,0.0,0.0,0.0,0.0,0.0,0.0,0.0,0.0,-4.5136,-4.5603,-4.5575,0.0,-4.5519,-4.5086,-4.5644,-4.6308,0.0,-4.6308,-4.6113,-4.5449,-4.5137,-4.5058,-4.5273,-4.5026,-4.5129,-4.6132,-4.6198,-4.6077,-4.5998,0.0,0.0,-4.5836,0.0,0.0,0.0,0.0,0.0,0.0,0.0,-4.6308,-4.6308,-4.6308,-4.6308,-4.6308,-4.6308,-4.6308,-4.6308,-4.6036,-4.5899,-4.5899,-4.5699,-4.5594,-4.5594,-4.5594,-4.5594,0.0,0.0,0.0,-4.5594,-4.5594,-4.5594,-4.5518,-4.4643,-4.3816,-4.2989,-4.2124,-4.1258,-4.0496,0.0,0.0,0.0,0.0,0.0,0.0,0.0,0.0,0.0,0.0,0.0,-3.9161,-4.0362,-4.0496,0.0,0.0,0.0,0.0,0.0,0.0,0.0,0.0,0.0,-3.8104,-3.8584,-3.9419,-4.1029,-4.3405,-4.334,-4.4024,-4.5447,-4.5233,-4.4214,-4.251,-4.1608,-4.1162,0.0,0.0,0.0,0.0,-4.3143,0.0,0.0,0.0,0.0,0.0,-4.3237,-4.4094,0.0,-4.4922,-4.5215,-4.5508,0.0,0.0,0.0,0.0,-4.5522,-4.5899,-4.5899,-4.5936,-4.5922,-4.5661,-4.5957,-4.6308,-4.6308,-4.6308,-4.6055,-4.5176,-4.5,-4.5,-4.5,-4.4889,-4.5102,-4.6042,-4.6106,0.0,0.0,0.0,-4.585,-4.585,0.0,0.0,0.0,0.0,0.0,0.0,0.0,-4.6308,-4.6308,-4.6308,-4.6308,-4.6308,-4.6308,-4.6308,-4.6308,-4.6036,-4.5899,-4.5899,-4.5699,-4.5594,-4.5594,-4.5594,-4.5594,0.0,0.0,0.0,-4.5594,-4.5594,-4.5594,-4.5518,-4.4643,-4.4028,-4.3547,-4.272,-4.2104,-4.1643,0.0,0.0,0.0,0.0,0.0,0.0,0.0,0.0,0.0,0.0,0.0,0.0,0.0,0.0,0.0,0.0,0.0,0.0,0.0,0.0,0.0,0.0,-3.9438,-3.9361,-3.9477,-4.015,-4.1448,-4.3401,-4.3405,-4.4277,-4.5925,-4.5919,-4.4933,-4.3105,-4.1439,-4.1104,0.0,0.0,0.0,0.0,-4.4297,0.0,0.0,0.0,0.0,0.0,0.0,0.0,0.0,-4.5722,-4.6054,-4.6208,-4.5802,0.0,0.0,0.0,0.0,0.0,-4.5899,-4.6005,-4.617,-4.6268,-4.6308,-4.6269,-4.6133,-4.6094,-4.582,-4.4805,-4.4707,-4.4805,-4.4805,-4.4792,-4.5096,-4.5984,0.0,0.0,-4.5883,-4.5832,-4.584,0.0,0.0,0.0,0.0,0.0,0.0,0.0,0.0,-4.6308,-4.6308,-4.6308,-4.6308,-4.6308,-4.6308,-4.6289,-4.6268,-4.6011,-4.5899,-4.5899,-4.5699,-4.5594,-4.5594,-4.5594,-4.5594,-4.5594,0.0,0.0,-4.5594,-4.5594,-4.5594,-4.5537,-4.4778,-4.4412,-4.422,-4.3528,-4.3201,-4.2989,0.0,0.0,0.0,0.0,0.0,0.0,0.0,0.0,0.0,0.0,0.0,0.0,0.0,0.0,0.0,0.0,0.0,0.0,0.0,0.0,0.0,-4.147,-4.0065,-3.9631,-4.0304,-4.0439,-4.1442,-4.3393,-4.3401,-4.4014,-4.5174,-4.5673,-4.4899,-4.3076,-4.2043,-4.1673,-4.1865,-4.2739,0.0,-4.4297,-4.4297,0.0,0.0,0.0,0.0,0.0,0.0,0.0,0.0,-4.4445,-4.4951,-4.5859,-4.4302,0.0,0.0,0.0,0.0,0.0,-4.5899,-4.608,-4.6269,-4.6289,-4.6308,-4.6113,-4.5371,-4.5195,-4.4746,-4.3125,-4.3398,-4.3906,-4.3906,-4.438,-4.5127,-4.611,0.0,-4.5978,0.0,0.0,0.0,0.0,0.0,0.0,0.0,0.0,0.0,0.0,0.0,-4.6308,-4.6308,-4.6308,-4.6308,-4.6308,-4.6308,-4.6247,-4.6122,-4.5981,-4.5899,-4.5899,-4.5699,-4.5594,-4.5594,-4.5594,-4.5594,-4.5594,0.0,-4.5594,-4.5594,-4.5594,-4.5594,-4.5594,-4.546,-4.496,-4.4297,-4.4162,-4.3682,-4.2989,0.0,0.0,0.0,0.0,0.0,0.0,0.0,0.0,0.0,0.0,0.0,0.0,0.0,0.0,0.0,0.0,0.0,0.0,0.0,0.0,-4.2912,-4.2527,-4.1758,-4.1316,-4.12,-4.1263,-4.2232,-4.4093,-4.4176,-4.4697,-4.5571,-4.4791,-4.397,-4.3066,-4.22,-4.2058,-4.2566,-4.3393,-4.422,-4.4998,0.0,0.0,0.0,0.0,0.0,0.0,0.0,0.0,0.0,0.0,-4.4322,-4.5199,-4.4288,0.0,0.0,0.0,0.0,0.0,-4.5899,-4.6106,-4.6308,-4.6308,-4.6308,-4.6191,-4.5781,-4.5703,-4.5332,-4.4062,-4.4492,-4.4961,-4.4492,-4.5056,-4.5732,-4.6121,0.0,-4.5936,0.0,0.0,0.0,0.0,0.0,0.0,0.0,0.0,0.0,0.0,0.0,0.0,-4.6308,-4.6308,-4.6308,-4.6308,-4.6308,-4.6245,-4.611,-4.5974,-4.5886,-4.5847,-4.5685,-4.5594,-4.5594,-4.5594,-4.5594,-4.5594,0.0,-4.5594,-4.5594,-4.5594,-4.5594,-4.5594,-4.5594,-4.5245,-4.4709,-4.4527,-4.4043,-4.3341,0.0,0.0,0.0,0.0,0.0,0.0,0.0,0.0,0.0,0.0,0.0,0.0,0.0,0.0,0.0,0.0,0.0,0.0,0.0,0.0,-4.3181,-4.3374,-4.3201,-4.2874,-4.2412,-4.2302,-4.3044,-4.4657,-4.4763,-4.5225,-4.5998,-4.4291,-4.3464,-4.3335,-4.2489,-4.2585,-4.3412,-4.4047,-4.4797,-4.5594,0.0,0.0,0.0,0.0,0.0,0.0,0.0,0.0,0.0,0.0,0.0,0.0,0.0,0.0,0.0,-4.5627,-4.5609,-4.5665,-4.584,-4.595,-4.5996,-4.5996,-4.5996,-4.5996,-4.5996,-4.584,-4.5508,-4.4824,-4.5391,-4.5781,-4.5117,-4.5703,0.0,-4.6152,-4.6036,0.0,0.0,0.0,0.0,0.0,0.0,0.0,0.0,0.0,0.0,0.0,0.0,0.0,-4.6308,-4.6308,-4.6308,-4.6308,-4.6308,-4.6223,-4.6047,-4.5944,-4.5876,-4.5796,-4.5665,-4.5594,-4.5594,-4.5594,-4.5594,-4.5594,-4.5594,-4.5594,-4.5594,-4.5594,-4.5594,-4.5594,-4.5594,-4.54,-4.5074,-4.4812,-4.4407,-4.3862,0.0,0.0,0.0,0.0,0.0,0.0,0.0,0.0,0.0,0.0,0.0,0.0,0.0,0.0,0.0,0.0,0.0,0.0,0.0,0.0,-4.3431,-4.4182,-4.3508,-4.3412,-4.4105,-4.339,-4.3512,-4.4499,-4.453,-4.4969,-4.5796,-4.4847,-4.4334,-4.4182,-4.3374,-4.3451,-4.422,-4.4278,-4.4797,-4.5594,-4.5594,0.0,0.0,0.0,0.0,0.0,0.0,0.0,0.0,0.0,0.0,0.0,0.0,0.0,-4.5612,-4.5594,-4.5215,-4.4961,-4.5704,-4.5501,-4.5098,-4.5098,-4.5098,-4.5098,-4.5098,-4.4473,-4.3867,-4.3808,-4.4492,-4.5078,-4.5019,-4.5703,-4.6308,-4.6289,0.0,0.0,0.0,0.0,0.0,0.0,0.0,0.0,0.0,0.0,0.0,0.0,0.0,0.0,-4.6308,-4.6308,-4.6308,-4.6308,-4.6308,-4.6174,-4.5916,-4.5903,-4.5876,-4.5796,-4.5665,-4.5594,-4.5594,-4.5594,-4.5594,-4.5594,-4.5594,-4.5594,-4.5594,-4.5594,-4.5594,-4.5594,-4.5594,-4.54,-4.5096,-4.5074,-4.4846,-4.4462,0.0,0.0,0.0,0.0,0.0,0.0,0.0,0.0,0.0,0.0,0.0,0.0,0.0,0.0,0.0,0.0,0.0,0.0,0.0,-4.2297,-4.2893,-4.4239,-4.4008,-4.3989,-4.4297,-4.4087,-4.4664,-4.6054,-4.6061,-4.597,-4.5777,-4.4312,-4.3589,-4.3547,-4.3239,-4.3278,-4.3624,-4.4662,-4.5306,-4.5594,-4.5594,-4.5594,0.0,0.0,0.0,0.0,0.0,0.0,0.0,0.0,-4.3366,-4.362,-4.3572,-4.4489,-4.5498,-4.496,-4.475,-4.4762,-4.5077,-4.5072,-4.5,-4.5,-4.5,-4.5,-4.5,-4.5156,-4.5312,-4.5312,-4.5586,-4.5801,-4.5801,0.0,-4.6308,-4.6308,0.0,0.0,0.0,0.0,0.0,0.0,0.0,0.0,0.0,0.0,0.0,0.0,0.0,0.0,0.0,-4.6308,-4.6308,-4.6308,-4.6308,-4.6173,-4.5903,-4.5899,-4.5814,-4.568,-4.5618,-4.5594,-4.5594,-4.5594,-4.5594,-4.5594,-4.5594,-4.5594,-4.5594,-4.5594,-4.5594,-4.5577,-4.5362,-4.5085,-4.4757,-4.4508,-4.4346,-4.4163,0.0,0.0,0.0,0.0,0.0,0.0,0.0,0.0,0.0,0.0,0.0,0.0,0.0,0.0,0.0,0.0,0.0,0.0,-4.1731,-4.1788,-4.2431,-4.3855,-4.3912,-4.4047,-4.4297,-4.4391,-4.4998,-4.6143,-4.6414,-4.6296,-4.5777,-4.424,-4.3709,-4.3979,-4.3662,-4.369,-4.4018,-4.512,-4.5594,-4.5594,-4.5594,-4.5594,0.0,0.0,0.0,0.0,0.0,0.0,0.0,0.0,-4.347,-4.3528,-4.3797,-4.469,-4.5441,-4.4566,-4.4458,-4.4652,-4.4699,-4.4626,-4.4626,-4.4922,-4.5,-4.5,-4.5,-4.5469,-4.5976,-4.623,-4.6308,-4.6308,-4.6308,-4.6308,0.0,0.0,0.0,0.0,0.0,0.0,0.0,0.0,0.0,0.0,0.0,0.0,0.0,0.0,0.0,0.0,0.0,-4.6308,-4.6308,-4.6308,-4.6308,-4.6173,-4.5903,-4.5899,-4.5799,-4.5594,-4.5594,-4.5594,-4.5594,-4.5594,-4.5594,-4.5594,-4.5594,-4.5594,-4.5594,-4.5594,-4.5594,-4.5577,-4.5342,-4.5044,-4.472,-4.4455,-4.429,-4.4106,0.0,0.0,0.0,0.0,0.0,0.0,0.0,0.0,0.0,0.0,0.0,0.0,0.0,0.0,0.0,0.0,0.0,0.0,-4.1731,-4.1788,-4.2181,-4.3047,-4.3104,-4.347,-4.4259,-4.4297,-4.4297,-4.4316,-4.519,-4.5684,-4.5783,-4.4892,-4.4977,-4.5836,-4.4907,-4.497,-4.577,-4.5629,-4.5594,-4.5594,-4.5594,-4.5603,-4.5603,0.0,0.0,0.0,0.0,0.0,0.0,0.0,-4.4316,-4.4451,-4.5325,-4.5594,-4.5441,-4.4547,-4.4384,-4.4524,-4.4646,-4.4143,-4.3816,-4.4764,-4.5,-4.5019,-4.5019,-4.5019,-4.5254,-4.6113,-4.6308,-4.6308,-4.6308,-4.6308,0.0,0.0,0.0,0.0,0.0,0.0,0.0,0.0,0.0,0.0,0.0,0.0,0.0,0.0,0.0,0.0,0.0,-4.6308,-4.6308,-4.6308,-4.6308,-4.6174,-4.5903,-4.5899,-4.5805,-4.5594,-4.5594,-4.5594,-4.5594,-4.5594,-4.5594,-4.5594,-4.5594,-4.5594,-4.5594,-4.5594,-4.5594,-4.5594,-4.5594,-4.5381,-4.5096,-4.5096,-4.4865,-4.4442,0.0,0.0,0.0,0.0,0.0,0.0,0.0,0.0,0.0,0.0,0.0,0.0,0.0,0.0,0.0,0.0,0.0,0.0,-4.1769,-4.1239,-4.1277,-4.2162,-4.2777,-4.3201,-4.3451,-4.4008,-4.4605,-4.521,-4.6086,-4.6282,-4.5764,-4.4273,-4.3774,-4.4143,-4.4383,-4.3995,-4.3195,-4.4336,-4.4836,-4.4819,-4.4936,-4.5312,-4.5733,0.0,0.0,0.0,0.0,0.0,0.0,0.0,0.0,0.0,-4.4605,-4.5114,-4.5325,-4.3874,-4.3581,-4.3598,-4.3022,-4.3263,-4.3747,-4.4023,-4.5019,-4.5918,-4.5918,-4.5918,-4.5996,-4.625,-4.6308,-4.6308,-4.6308,0.0,0.0,0.0,0.0,0.0,0.0,0.0,0.0,0.0,0.0,0.0,0.0,0.0,0.0,0.0,0.0,0.0,0.0,-4.6308,-4.6308,-4.6308,-4.6308,-4.6222,-4.6042,-4.5959,-4.5855,-4.574,-4.5651,-4.5594,-4.5594,-4.5594,-4.5594,-4.5594,-4.5594,-4.5594,-4.5594,-4.5594,-4.5594,-4.5594,-4.5594,-4.5017,-4.4189,-4.4189,-4.3589,-4.2731,0.0,0.0,0.0,0.0,0.0,0.0,0.0,0.0,0.0,0.0,-4.5383,-4.5479,0.0,0.0,0.0,-4.4297,-4.2777,-4.1788,-4.1788,-4.0969,-4.0893,-4.175,-4.2297,-4.2893,-4.3566,-4.4739,-4.524,-4.5075,-4.5605,-4.5685,-4.5337,-4.4295,-4.4061,-4.4565,-4.4919,-4.4328,-4.3133,-4.404,-4.4452,-4.4518,-4.458,-4.5133,-4.5836,0.0,0.0,0.0,0.0,0.0,0.0,0.0,0.0,0.0,-4.4816,-4.5211,-4.5418,-4.4048,-4.4013,-4.4225,-4.3438,-4.3669,-4.4233,-4.4629,-4.5254,-4.5879,-4.6211,-4.6308,-4.6308,-4.6308,-4.6308,-4.6308,-4.6308,0.0,0.0,0.0,0.0,0.0,0.0,0.0,0.0,0.0,0.0,0.0,0.0,0.0,0.0,0.0,0.0,0.0,0.0,-4.6308,-4.6308,-4.6308,-4.6308,-4.6245,-4.611,-4.5974,-4.5876,-4.5796,-4.5665,-4.5594,-4.5594,-4.5594,-4.5594,-4.5594,-4.5594,-4.5594,-4.5594,-4.5594,-4.5594,-4.5594,-4.5594,-4.5159,-4.4469,-4.4125,-4.3536,-4.2783,0.0,0.0,0.0,0.0,0.0,0.0,0.0,0.0,0.0,-4.4412,-4.5114,-4.5306,0.0,0.0,0.0,-4.4412,-4.2893,-4.1923,-4.1923,-4.1104,-4.0969,-4.1769,-4.1942,-4.2777,-4.4374,-4.597,-4.5932,-4.4182,-4.4259,-4.4431,-4.4688,-4.4619,-4.5142,-4.613,-4.5904,-4.5296,-4.4437,-4.4199,-4.4175,-4.4278,-4.4308,-4.4861,-4.5714,-4.5764,0.0,0.0,0.0,0.0,0.0,0.0,0.0,0.0,-4.5594,-4.5685,-4.5628,-4.4757,-4.5131,-4.5644,-4.4968,-4.4807,-4.5033,-4.5956,-4.5644,-4.5332,-4.6113,-4.6308,-4.6308,-4.6308,0.0,-4.6308,0.0,0.0,0.0,0.0,0.0,0.0,0.0,0.0,0.0,0.0,0.0,0.0,0.0,0.0,0.0,0.0,0.0,0.0,0.0,-4.6308,-4.6308,-4.6308,-4.6308,-4.6246,-4.6117,-4.5978,-4.5862,-4.5803,-4.5673,-4.5594,-4.5594,-4.5594,-4.5594,-4.5594,-4.5594,-4.5594,-4.5594,-4.5594,-4.5594,-4.5594,-4.5594,-4.5518,-4.5287,-4.447,-4.4085,-4.3641,0.0,0.0,0.0,0.0,0.0,0.0,0.0,0.0,-4.4547,-4.5229,-4.5479,-4.5537,-4.5344,-4.5325,0.0,-4.5325,-4.3797,-4.2816,-4.2816,-4.2008,-4.1604,-4.1788,-4.3066,-4.4239,-4.5306,-4.5691,-4.5047,-4.3355,-4.3989,-4.4376,-4.4521,-4.3942,-4.416,-4.5046,-4.497,-4.4064,-4.2577,-4.2581,-4.2583,-4.2633,-4.2785,-4.3385,-4.4247,-4.4818,-4.5022,0.0,0.0,0.0,0.0,0.0,0.0,0.0,-4.5594,-4.5685,-4.5628,-4.4757,-4.4744,-4.486,-4.4099,-4.442,-4.5018,-4.5234,-4.5644,-4.6074,-4.6269,-4.6308,-4.6308,-4.6308,-4.6308,0.0,0.0,0.0,0.0,0.0,0.0,0.0,0.0,0.0,0.0,0.0,0.0,0.0,0.0,0.0,0.0,0.0,0.0,0.0,-4.6308,-4.6308,-4.6308,-4.6308,-4.6308,-4.6289,-4.6268,-4.6027,-4.5885,0.0,-4.5696,-4.5594,-4.5594,-4.5594,-4.5594,-4.5594,-4.5594,-4.5594,-4.5594,-4.5594,-4.5594,-4.5594,-4.5594,-4.4806,-4.3605,-4.3431,-4.2489,-4.1182,0.0,0.0,0.0,0.0,0.0,0.0,0.0,0.0,-4.4605,-4.5498,-4.5248,-4.4979,-4.4979,-4.4624,0.0,0.0,-4.322,-4.2489,-4.2489,-4.2038,-4.2162,-4.297,-4.422,-4.5152,-4.5594,-4.519,-4.4355,-4.3104,-4.2681,-4.276,-4.3291,-4.2911,-4.324,-4.4176,-4.4114,-4.3369,-4.2135,-4.2116,-4.2147,-4.2203,-4.2301,-4.2887,-4.373,-4.4134,-4.4254,-4.4321,-4.5052,0.0,0.0,0.0,0.0,0.0,0.0,0.0,-4.5761,-4.5295,-4.5345,-4.5437,-4.501,-4.5251,-4.5625,-4.5625,-4.5957,-4.6308,-4.6308,-4.6308,-4.6308,-4.6308,-4.6308,0.0,0.0,0.0,0.0,0.0,0.0,0.0,0.0,0.0,0.0,0.0,0.0,0.0,0.0,0.0,0.0,0.0,0.0,0.0,-4.6308,-4.6308,-4.6308,-4.6308,-4.6308,-4.6308,-4.6308,-4.6036,-4.5899,-4.5899,-4.5699,-4.5594,-4.5594,-4.5594,-4.5594,-4.5594,-4.5594,-4.5594,-4.5594,-4.5594,-4.5594,-4.5594,-4.5594,-4.5075,-4.4201,-4.3393,-4.2527,-4.1564,0.0,0.0,0.0,0.0,0.0,0.0,0.0,0.0,0.0,-4.5267,-4.4874,-4.447,-4.4316,-4.3701,-4.3258,0.0,0.0,0.0,-4.1788,-4.1942,-4.272,-4.422,-4.5133,-4.5594,-4.5594,-4.4739,-4.3912,-4.3104,-4.1386,-4.0956,-4.178,-4.1786,-4.2398,-4.3521,-4.3269,-4.2739,-4.2032,-4.1921,-4.1864,-4.1876,-4.2041,-4.2588,-4.3281,-4.3418,-4.3432,-4.3503,-4.4294,-4.4643,-4.483,-4.5475,0.0,0.0,0.0,0.0,-4.5928,-4.5928,-4.6113,-4.6269,-4.6113,-4.6074,-4.6113,-4.6269,-4.6308,-4.6308,-4.6308,-4.6308,-4.6308,-4.6308,0.0,0.0,0.0,0.0,0.0,0.0,0.0,0.0,0.0,0.0,0.0,0.0,0.0,0.0,0.0,0.0,0.0,0.0,0.0,0.0,-4.6308,-4.6308,-4.6308,-4.6308,-4.6308,-4.6308,-4.6308,-4.6036,-4.5899,-4.5899,-4.5699,-4.5594,-4.5594,-4.5594,-4.5594,-4.5594,-4.5594,-4.5594,-4.5594,-4.5594,-4.5568,-4.5513,-4.5577,-4.5445,-4.5035,-4.3618,-4.2964,-4.2539,0.0,0.0,0.0,0.0,0.0,0.0,0.0,0.0,0.0,0.0,-4.5037,-4.5152,-4.4374,-4.4201,-4.3855,-4.3162,-4.2297,-4.1788,-4.1788,0.0,0.0,-4.4259,-4.5133,-4.5594,-4.5594,-4.4739,-4.3912,-4.3104,-4.1465,-4.0739,-4.0878,-4.0876,-4.1712,-4.3216,-4.2513,-4.1743,-4.1,-4.0976,-4.0617,-4.012,-4.0991,-4.1425,-4.1601,-4.2305,-4.2578,-4.2674,-4.3468,-4.4207,-4.4796,-4.4834,-4.5321,0.0,0.0,0.0,-4.6077,-4.6077,-4.6175,-4.6133,-4.5371,-4.5176,-4.5351,-4.6113,-4.6308,-4.6308,-4.6308,0.0,-4.6308,0.0,0.0,0.0,0.0,0.0,0.0,0.0,0.0,0.0,0.0,0.0,0.0,0.0,0.0,0.0,0.0,0.0,0.0,0.0,0.0,0.0,-4.6308,-4.6308,-4.6308,-4.6308,-4.6308,-4.6308,-4.6308,-4.6036,-4.5899,-4.5899,-4.5699,-4.5594,-4.5594,-4.5594,-4.5594,-4.5594,-4.5594,-4.5594,-4.5594,-4.5594,-4.5429,-4.5201,-4.5495,-4.4784,-4.3576,-4.3234,-4.2437,-4.1408,0.0,0.0,0.0,0.0,0.0,0.0,0.0,0.0,0.0,0.0,0.0,-4.4047,-4.3662,-4.3181,-4.2374,-4.1085,-4.0623,-4.0585,-4.1046,-4.1893,-4.2951,-4.4239,-4.4662,-4.4874,-4.4874,-4.4047,-4.297,-4.1643,-3.9993,-3.9464,-3.9948,-3.9425,-4.0184,-4.1937,-4.1051,-4.0512,-4.0255,-3.9643,-3.956,-3.9836,-4.0205,-4.0973,-4.1855,-4.1758,-4.2012,-4.2441,-4.2807,-4.3155,-4.3603,-4.4543,-4.5041,-4.5378,-4.5868,0.0,0.0,0.0,-4.6199,-4.6211,-4.582,-4.5723,-4.582,-4.6191,-4.6308,-4.6308,-4.6308,-4.6308,-4.6308,0.0,0.0,0.0,0.0,0.0,0.0,0.0,0.0,0.0,0.0,0.0,0.0,0.0,0.0,0.0,0.0,0.0,0.0,0.0,0.0,-4.6308,-4.6308,-4.6308,-4.6308,-4.6308,-4.6308,-4.6308,-4.6308,-4.6036,-4.5846,-4.5724,-4.5648,-4.5594,-4.5594,-4.5594,-4.5594,-4.5594,-4.5594,-4.5594,-4.5594,-4.5594,-4.541,-4.5107,-4.5253,-4.4782,-4.3907,-4.2905,-4.2194,-4.1582,0.0,0.0,0.0,0.0,0.0,0.0,0.0,0.0,0.0,0.0,0.0,-4.3028,-4.2797,0.0,0.0,0.0,-3.9111,-3.9227,-3.9823,-4.0873,-4.2027,-4.3278,-4.3758,-4.3989,-4.3989,-4.297,-4.1797,-4.0496,-3.8847,-3.8614,-3.9702,-3.8826,-3.9437,-4.1239,-4.026,-3.9958,-4.0113,-3.9065,-3.913,-3.9902,-4.0029,-4.0892,-4.207,-4.1894,-4.2207,-4.2695,-4.248,-4.2539,0.0,0.0,0.0,0.0,0.0,0.0,0.0,0.0,0.0,-4.6016,-4.623,-4.6133,-4.6016,-4.623,-4.6308,-4.6308,0.0,0.0,0.0,0.0,0.0,0.0,0.0,0.0,0.0,0.0,0.0,0.0,0.0,0.0,0.0,0.0,0.0,0.0,0.0,0.0,0.0,0.0,0.0,-4.6308,-4.6308,-4.6308,-4.6308,-4.6308,-4.6308,-4.6308,-4.6308,-4.6036,-4.5799,-4.5594,-4.5594,-4.5594,-4.5594,-4.5594,-4.5594,-4.5594,-4.5594,-4.5594,-4.5586,-4.5504,-4.5292,-4.4966,-4.4966,-4.4707,-4.4168,-4.2881,-4.2347,-4.2083,0.0,0.0,0.0,0.0,0.0,0.0,0.0,0.0,0.0,0.0,0.0,-4.2797,-4.1962,-4.1085,-4.0227,-3.9381,-3.8546,-3.8084,-3.8123,-3.9669,-4.0612,-4.0689,-4.2277,0.0,-4.3162,-4.1497,-4.0593,-4.0496,-3.8884,-3.8963,-4.0626,-3.9869,-4.0412,-4.1995,-4.0939,-4.0638,-4.0879,-3.9922,-3.9665,-3.9961,-4.0781,-4.1172,-4.1426,-4.2988,-4.3594,-4.3516,-4.2695,0.0,0.0,0.0,0.0,0.0,0.0,0.0,0.0,0.0,0.0,0.0,-4.6074,-4.5703,-4.5273,-4.6094,-4.6308,-4.6308,0.0,0.0,0.0,0.0,0.0,0.0,0.0,0.0,0.0,0.0,0.0,0.0,0.0,0.0,0.0,0.0,0.0,0.0,0.0,0.0,0.0,0.0,0.0,-4.6308,-4.6308,-4.6308,-4.6308,-4.6308,-4.6308,-4.6308,-4.6308,-4.6036,-4.5799,-4.5594,-4.5594,-4.5594,-4.5594,-4.5594,-4.5594,-4.5594,-4.5594,-4.5594,-4.5577,-4.5253,-4.4931,-4.4637,-4.4637,-4.4198,-4.3537,-4.3333,-4.3028,-4.2574,0.0,0.0,0.0,0.0,0.0,0.0,0.0,0.0,0.0,0.0,0.0,0.0,0.0,-4.0689,-3.9727,-3.7796,-3.7353,-3.718,-3.718,-3.8777,-3.9958,-4.0477,-4.1623,-4.2277,-4.2277,-4.1643,-4.0527,-3.8892,-3.8322,-3.8395,-3.9082,-3.874,-3.9505,-4.1139,-3.9687,-3.9432,-3.9965,-3.7901,-3.7764,-3.9006,-3.9889,-4.0933,-4.2109,-4.3262,0.0,0.0,0.0,0.0,0.0,0.0,0.0,0.0,0.0,0.0,0.0,0.0,-4.418,-4.4238,-4.4551,-4.4805,0.0,-4.5391,-4.5898,-4.6308,-4.6308,0.0,0.0,0.0,0.0,0.0,0.0,0.0,0.0,0.0,0.0,0.0,0.0,0.0,0.0,0.0,0.0,0.0,0.0,0.0,0.0,0.0,0.0,0.0,-4.6308,-4.6308,-4.6308,-4.6308,-4.6308,-4.6223,-4.6042,-4.5959,-4.5799,-4.5594,-4.5594,-4.5594,-4.5594,-4.5594,-4.5594,-4.5594,-4.5594,-4.5594,-4.5577,-4.5232,-4.4908,-4.4567,-4.4323,-4.3912,-4.3439,-4.2868,-4.2572,-4.2364,0.0,0.0,0.0,0.0,0.0,0.0,0.0,0.0,-4.0708,-4.1296,0.0,0.0,0.0,0.0,-3.8798,-3.6507,-3.6308,-3.6308,-3.6308,-3.7623,-3.8796,-3.9631,-4.0508,-4.1085,-4.1354,-4.0816,-3.97,-3.8007,-3.7719,-3.777,-3.8136,-3.8341,-3.9215,-4.0559,-3.889,-3.8977,-4.0247,-3.7923,0.0,-3.8945,0.0,0.0,-4.1348,0.0,0.0,0.0,0.0,0.0,0.0,0.0,0.0,0.0,0.0,0.0,0.0,0.0,-4.3262,-4.3691,-4.3691,-4.4121,-4.4707,0.0,0.0,-4.6016,0.0,0.0,0.0,0.0,0.0,0.0,0.0,0.0,0.0,0.0,0.0,0.0,0.0,0.0,0.0,0.0,0.0,0.0,0.0,0.0,0.0,0.0,0.0,0.0,-4.6308,-4.6308,-4.6308,-4.6308,-4.6308,-4.6173,-4.5903,-4.5899,-4.5799,-4.5594,-4.5594,-4.5594,-4.5594,-4.5594,-4.5594,-4.5594,-4.5594,-4.5594,-4.5568,-4.5118,-4.4812,-4.454,-4.4031,-4.3693,-4.3441,-4.2892,-4.269,-4.263,0.0,0.0,0.0,0.0,0.0,0.0,0.0,0.0,-4.0496,-4.0496,0.0,0.0,0.0,0.0,0.0,-3.5739,-3.5545,-3.5538,-3.5538,-3.6269,-3.7084,-3.7969,-3.8834,-3.9688,-4.0477,-3.8911,-3.8046,-3.8007,-3.7161,-3.7161,-3.7988,-3.8834,-3.965,-4.0362,-3.8719,-3.9456,-4.1773,0.0,-3.9542,-3.9786,0.0,-4.084,-3.9141,0.0,0.0,0.0,-4.4473,-4.5078,0.0,-4.6055,0.0,0.0,0.0,0.0,0.0,0.0,-4.2305,-4.3594,0.0,0.0,0.0,0.0,0.0,0.0,0.0,0.0,0.0,0.0,0.0,0.0,0.0,0.0,0.0,0.0,0.0,0.0,0.0,0.0,0.0,0.0,0.0,0.0,0.0,0.0,0.0,0.0,0.0,-4.6289,-4.6289,-4.6308,-4.6308,-4.6308,-4.6308,-4.6173,-4.5903,-4.5899,-4.5799,-4.5594,-4.5594,-4.5594,-4.5594,-4.5594,-4.5594,-4.5594,-4.5594,-4.5594,-4.5559,-4.4884,-4.4593,-4.4527,-4.3791,-4.3515,-4.3515,-4.3515,-4.3515,-4.3404,0.0,0.0,0.0,0.0,0.0,-4.0496,-4.0496,-4.0496,-4.0496,0.0,0.0,0.0,-3.86,-3.7732,-3.7304,-3.7444,-3.68,-3.6365,-3.6365,-3.6577,-3.7084,-3.7969,-3.8834,-3.9688,-4.0477,-4.0054,-3.92,-3.8007,-3.7757,-3.745,-3.7058,-3.7315,-3.7873,-3.8661,-3.82,-3.844,-3.9063,-3.7467,0.0,-3.7851,-3.9133,-3.998,0.0,0.0,0.0,0.0,0.0,-4.6875,-4.6914,0.0,-4.5566,-4.3027,0.0,0.0,0.0,0.0,-4.0586,-4.1094,-4.1719,0.0,0.0,0.0,0.0,0.0,0.0,0.0,0.0,0.0,0.0,0.0,0.0,0.0,0.0,0.0,0.0,0.0,0.0,0.0,0.0,0.0,0.0,0.0,0.0,0.0,0.0,0.0,-4.6108,-4.6168,-4.6168,-4.6247,-4.6308,-4.6308,-4.6308,-4.6173,-4.5903,-4.5899,-4.5799,-4.5594,-4.5594,-4.5594,-4.5594,-4.5594,-4.5594,-4.5594,-4.5594,-4.5594,-4.5559,-4.4884,-4.4593,-4.4527,-4.3791,-4.3515,-4.3515,-4.3515,-4.3515,-4.3478,0.0,0.0,-4.3335,-4.2489,-4.1912,-4.145,-4.1104,-4.1046,-4.0924,0.0,0.0,0.0,-3.8906,-3.8263,-3.8003,-3.8183,-3.7276,-3.6692,-3.6692,-3.6385,-3.6577,-3.743,-3.8296,-3.915,-3.9977,-3.9996,-3.9342,-3.8007,-3.7642,-3.7026,-3.6212,-3.6538,-3.6962,-3.7469,-3.7469,-3.7507,-3.7528,-3.6242,0.0,0.0,-3.9739,0.0,0.0,-4.4141,-4.582,0.0,0.0,0.0,-4.7285,-4.8691,-4.6406,0.0,0.0,0.0,0.0,0.0,-3.9863,-4.0547,-4.1055,-4.1543,-4.207,-4.2773,0.0,0.0,0.0,0.0,0.0,0.0,0.0,0.0,0.0,0.0,0.0,0.0,0.0,0.0,0.0,0.0,0.0,0.0,0.0,0.0,0.0,0.0,0.0,-4.5903,-4.6011,-4.6119,-4.6175,-4.6268,-4.6308,-4.6308,-4.6308,-4.62,-4.5985,-4.5924,-4.5834,-4.5669,-4.5637,-4.5594,-4.5594,-4.5594,-4.5594,-4.5594,-4.5594,-4.5594,-4.5559,-4.5041,-4.4739,-4.454,-4.3943,-4.3612,-4.3515,-4.3515,-4.3515,-4.3515,0.0,0.0,-4.397,-4.3335,-4.3085,-4.2728,-4.2059,-4.1886,-4.1627,0.0,-4.0902,-4.062,-4.0067,-3.9668,-3.9228,-3.87,-3.7565,-3.6862,-3.6862,-3.6014,-3.5872,-3.6689,-3.7534,-3.8368,-3.916,-3.933,-3.895,-3.8007,-3.7219,-3.6423,-3.5654,-3.6269,-3.6577,-3.6577,-3.6577,-3.6633,-3.6721,-3.5998,0.0,-3.7743,-4.1697,-4.2031,0.0,0.0,-4.668,0.0,-4.8203,-4.8105,-4.7285,-5.0058,-4.793,0.0,0.0,0.0,0.0,0.0,-3.9961,-4.1308,-4.1211,-4.1269,-4.168,-4.3066,0.0,0.0,-4.5351,-4.5273,0.0,0.0,0.0,0.0,0.0,0.0,0.0,0.0,0.0,0.0,0.0,0.0,0.0,0.0,0.0,0.0,0.0,-4.5974,-4.589,-4.5862,-4.5992,-4.6142,-4.6268,-4.6289,-4.6308,-4.6308,-4.6308,-4.6225,-4.608,-4.5967,-4.5866,-4.5789,-4.5668,-4.5594,-4.5594,-4.5594,-4.5594,-4.5594,-4.5594,-4.5594,-4.5577,-4.5292,-4.4931,-4.4553,-4.4146,-4.3804,-4.3515,-4.3515,-4.3515,-4.3515,-4.3932,-4.3662,-4.3489,-4.397,-4.2951,-4.2256,-4.2847,-4.2376,-4.2187,-4.279,-4.1753,-4.1197,-4.1814,-4.0537,-4.0142,-4.1395,-3.9295,-3.7906,-3.7906,-3.6402,-3.5913,-3.6814,-3.7584,-3.8097,-3.8322,-3.9608,-3.9515,-3.8007,-3.7834,-3.7315,-3.6462,-3.5962,-3.5731,-3.5731,-3.5731,-3.5805,-3.5912,-3.5774,0.0,-3.9432,-4.0293,0.0,-4.2246,-4.5371,-4.7656,-4.9258,-4.9766,-5.0137,-5.0195,0.0,-4.7676,-4.623,0.0,0.0,0.0,-4.0254,0.0,0.0,-4.1387,-4.168,-4.209,0.0,0.0,0.0,-4.3203,-4.3027,0.0,0.0,0.0,0.0,0.0,0.0,0.0,0.0,0.0,0.0,0.0,0.0,0.0,0.0,0.0,0.0,0.0,-4.5912,-4.5831,-4.5665,-4.5825,-4.5995,-4.6122,-4.6246,-4.6308,-4.6308,-4.6308,-4.6177,-4.5936,-4.5912,-4.5817,-4.5635,-4.5612,-4.5594,-4.5594,-4.5594,-4.5594,-4.5594,-4.5594,-4.5594,-4.5586,-4.5522,-4.515,-4.4553,-4.4146,-4.3804,-4.3515,-4.3515,-4.3515,-4.3515,-4.3624,-4.4047,-4.4335,-4.4316,-4.3951,-4.3736,-4.3821,-4.3517,-4.3308,-4.3475,-4.284,-4.2358,-4.2402,-4.1177,-4.0701,-4.1581,-3.9143,-3.7751,-3.8164,-3.6517,-3.5714,-3.6189,-3.6999,-3.7636,-3.8042,-3.9289,-3.9518,-3.8642,-3.82,-3.7546,-3.6673,-3.5885,-3.6173,-3.7334,-3.6077,-3.6286,-3.7518,0.0,-3.6571,-3.8184,-4.0762,0.0,-4.5273,-4.7851,-4.9668,-5.0801,-5.0801,-5.1055,-5.1074,-4.8965,-4.7676,0.0,0.0,-4.4062,-4.3359,0.0,-4.2051,-4.2773,0.0,0.0,0.0,-4.1797,0.0,0.0,0.0,0.0,0.0,0.0,0.0,0.0,0.0,0.0,0.0,0.0,0.0,0.0,0.0,0.0,0.0,0.0,0.0,0.0,0.0,0.0,-4.5814,-4.5715,-4.5828,-4.5967,-4.6087,-4.6225,-4.6308,-4.6308,-4.6308,-4.6201,-4.5998,-4.5928,-4.582,-4.5692,-4.5627,-4.5594,-4.5594,-4.5594,-4.5594,-4.5594,-4.5594,-4.5594,-4.5594,-4.5594,-4.5293,-4.4806,-4.4441,-4.4076,-4.3726,-4.3546,-4.3515,-4.3515,-4.3066,-4.4182,-4.4902,-4.4182,-4.4778,-4.5158,-4.4621,-4.4535,-4.4322,-4.3693,-4.3804,-4.3672,-4.2988,-4.2061,-4.1596,-4.1752,-3.9404,-3.8137,-3.8675,-3.7011,-3.6093,-3.6286,-3.6687,-3.729,-3.8054,-3.8947,-3.9284,-3.9066,-3.8356,-3.7642,-3.6923,-3.5962,-3.6603,-3.8496,-3.696,-3.7204,0.0,0.0,0.0,-3.7832,0.0,-4.4512,-4.6445,-4.9512,-5.0664,-5.0723,-5.1211,-5.1406,-5.1172,-4.9668,0.0,-4.709,-4.7285,-4.625,0.0,0.0,0.0,0.0,0.0,0.0,0.0,0.0,0.0,-4.2168,0.0,0.0,0.0,0.0,0.0,0.0,0.0,0.0,0.0,0.0,0.0,0.0,0.0,0.0,0.0,0.0,0.0,0.0,0.0,0.0,-4.5226,-4.5729,-4.5382,-4.5414,-4.6028,-4.6198,-4.6269,-4.6308,-4.6308,-4.6224,-4.6053,-4.5944,-4.5841,-4.5768,-4.564,-4.5594,-4.5594,-4.5594,-4.5594,-4.5594,-4.5594,-4.5594,-4.5594,-4.5594,-4.5438,-4.515,-4.4837,-4.4401,-4.3971,-4.3693,-4.3565,-4.3515,-4.2951,-4.3258,-4.3355,-4.3258,-4.3912,-4.45,-4.4647,-4.4675,-4.4432,-4.3785,-4.4375,-4.4805,-4.4726,-4.3925,-4.3691,-4.4472,0.0,0.0,-4.063,-3.883,-3.8199,-3.9096,-3.7755,-3.7426,-3.8334,-3.9044,-3.9029,-3.8249,-3.8085,-3.795,-3.7815,-3.6231,-3.5654,-3.6014,-3.8108,0.0,0.0,0.0,-3.9926,0.0,-4.2617,-4.1836,0.0,-4.6172,-4.8027,-4.832,-5.0586,-5.1406,-5.1269,0.0,-4.9922,-4.9375,0.0,-4.7832,-4.8672,-4.4707,0.0,0.0,0.0,0.0,0.0,0.0,-4.3496,0.0,0.0,0.0,0.0,0.0,0.0,0.0,0.0,0.0,0.0,0.0,0.0,0.0,0.0,0.0,0.0,0.0,0.0,0.0,0.0,0.0,0.0,-4.5456,-4.3646,-4.3465,-4.5799,-4.6045,-4.6175,-4.6308,-4.6308,-4.6175,-4.592,-4.5907,-4.5811,-4.561,-4.5603,-4.5594,-4.5594,-4.5594,-4.5594,-4.5594,-4.5594,-4.5594,-4.5594,-4.5594,-4.5577,-4.5504,-4.5161,-4.4612,-4.4001,-4.3955,-4.3758,-4.3515,-4.1335,-4.2412,-4.2931,-4.2431,-4.3047,-4.3825,-4.448,-4.5118,-4.526,-4.455,-4.4336,-4.4433,-4.4941,0.0,0.0,0.0,0.0,-4.1317,0.0,0.0,-3.8926,-3.885,-3.8188,-3.7988,-3.8327,-3.8666,-3.8574,-3.8098,-3.7589,-3.7315,-3.7219,-3.6058,-3.6538,-3.8426,-3.917,0.0,-4.0883,0.0,-4.0223,0.0,0.0,0.0,0.0,-4.707,-4.9805,-4.9941,-5.1016,-5.1406,-5.1348,0.0,-5.0254,0.0,0.0,0.0,0.0,0.0,0.0,0.0,0.0,0.0,0.0,0.0,0.0,0.0,-4.0918,0.0,-3.9375,0.0,0.0,0.0,0.0,0.0,0.0,0.0,0.0,0.0,0.0,0.0,0.0,0.0,0.0,0.0,0.0,0.0,0.0,0.0,0.0,-4.3719,-4.5782,-4.6108,-4.6246,-4.6308,-4.6308,-4.6173,-4.5903,-4.5899,-4.5799,-4.5594,-4.5594,-4.5594,-4.5594,-4.5594,-4.5594,-4.5594,-4.5594,-4.5594,-4.5594,-4.5594,-4.5594,-4.5586,-4.5457,-4.5077,-4.4612,-4.4414,-4.4106,-4.3788,-3.9593,-4.122,-4.2124,-4.1258,-4.222,-4.3354,-4.409,-4.4913,-4.5338,0.0,0.0,0.0,-4.5254,-4.3711,0.0,0.0,-4.3171,-4.229,0.0,0.0,-4.0373,-4.0435,-3.9162,0.0,-3.9734,-3.8863,-3.8309,-3.8098,-3.729,-3.6939,-3.7019,-3.5981,-3.693,-3.9465,-3.9758,-4.1168,-4.3226,0.0,0.0,-4.1152,-4.2187,-4.2402,-4.2715,-4.8242,-5.0781,-5.1406,-5.1406,-5.1406,-5.1367,-5.1152,-5.0254,0.0,-5.041,0.0,0.0,0.0,0.0,0.0,-4.4941,0.0,0.0,0.0,0.0,0.0,0.0,0.0,0.0,0.0,0.0,0.0,0.0,0.0,0.0,0.0,0.0,0.0,0.0,0.0,0.0,0.0,0.0,0.0,0.0,0.0,0.0,0.0,0.0,0.0,-4.5763,-4.6082,-4.6224,-4.6308,-4.6268,-4.6122,-4.5903,-4.5886,-4.5776,-4.5594,-4.5594,-4.5594,-4.5594,-4.5594,-4.5594,-4.5594,-4.5594,-4.5594,-4.5594,-4.5594,-4.5594,-4.5594,-4.5594,-4.5448,-4.5201,-4.4861,-4.4482,-4.4146,-3.816,-3.9476,-4.0323,-3.9515,-4.1431,-4.3188,-4.3408,-4.3638,0.0,0.0,0.0,0.0,0.0,0.0,0.0,0.0,0.0,-4.5603,-4.4827,0.0,-4.3294,-4.5744,-4.1186,-4.0112,0.0,-4.0134,-3.8309,-3.8098,-3.729,-3.7249,-3.7911,-3.6269,-3.5962,-3.6944,-3.9645,-4.0445,-3.9926,-4.2529,-4.5039,-4.7246,-4.6445,-4.8086,-5.0742,0.0,-4.9258,-5.1406,-5.1406,0.0,0.0,-5.0508,-5.0195,0.0,0.0,0.0,0.0,0.0,0.0,0.0,0.0,0.0,0.0,-4.207,0.0,0.0,0.0,0.0,-4.0605,0.0,0.0,0.0,0.0,0.0,0.0,0.0,0.0,0.0,0.0,0.0,0.0,0.0,0.0,0.0,0.0,0.0,0.0,0.0,0.0,0.0,-4.5676,-4.5907,-4.6036,-4.6289,-4.6174,-4.6039,-4.5903,-4.585,-4.5733,-4.5594,-4.5594,-4.5594,-4.5594,-4.5594,-4.5594,-4.5594,-4.5594,-4.5594,-4.5594,-4.5594,-4.5594,-4.5594,-4.5594,-4.5586,-4.5531,-4.5211,-4.4872,-4.4527,-3.7274,-3.8601,-3.9622,-3.9406,-4.0044,-4.1033,-4.2348,-4.3098,0.0,0.0,0.0,0.0,0.0,-4.5781,-4.5664,0.0,0.0,-4.6128,-4.5836,-4.4722,0.0,0.0,0.0,-4.2246,0.0,0.0,0.0,-3.8231,-3.7385,-3.7316,-3.7969,-3.6269,-3.6231,-3.7663,0.0,-4.1678,0.0,0.0,0.0,0.0,0.0,-4.7676,-4.9766,0.0,0.0,-5.1406,-5.1406,-5.1406,0.0,-5.1094,-5.0644,-5.0234,-5.0488,-5.0,-4.9394,-4.9687,-4.9551,0.0,0.0,0.0,-4.791,-4.3867,0.0,0.0,0.0,0.0,0.0,0.0,0.0,0.0,0.0,0.0,0.0,0.0,0.0,0.0,0.0,0.0,0.0,0.0,0.0,0.0,0.0,0.0,0.0,0.0,0.0,0.0,0.0,-4.5985,-4.6115,-4.6289,-4.6173,-4.6036,-4.5903,-4.5825,-4.5725,-4.5594,-4.5594,-4.5594,-4.5594,-4.5594,-4.5594,-4.5594,-4.5594,-4.5594,-4.5594,-4.5594,-4.5594,-4.5594,-4.5594,-4.5594,-4.5586,-4.5457,-4.5222,-4.483,-3.6925,-3.7694,-3.8584,-3.9288,-3.9876,-4.0584,0.0,0.0,0.0,0.0,-4.4316,0.0,-4.6133,0.0,-4.5683,0.0,-4.6582,-4.6504,-4.5879,-4.5898,0.0,-4.6738,-4.5391,0.0,0.0,0.0,0.0,0.0,0.0,-3.8103,-3.843,-3.6712,-3.6673,-3.8068,0.0,-4.1581,-4.4364,0.0,-4.6992,0.0,0.0,-4.8789,0.0,0.0,-5.1035,-5.0586,0.0,-5.1406,-5.1406,-5.1406,-5.1055,-5.0723,-5.123,-5.0664,-4.9902,-5.0469,-5.0234,-4.9668,-4.9062,-4.9316,0.0,-4.4707,-4.3926,0.0,-3.9121,0.0,0.0,0.0,0.0,0.0,0.0,0.0,0.0,0.0,0.0,0.0,0.0,0.0,0.0,0.0,0.0,0.0,0.0,0.0,0.0,0.0,0.0,0.0,0.0,0.0,-4.6084,-4.6224,-4.6108,-4.5971,-4.5871,-4.5777,-4.5696,-4.5594,-4.5594,-4.5594,-4.5594,-4.5594,-4.5594,-4.5594,-4.5594,-4.5594,-4.5594,-4.5594,-4.5594,-4.5594,-4.5594,-4.5594,-4.5594,-4.5594,-4.5322,-4.4842,-3.7119,-3.696,-3.7514,0.0,-4.0876,0.0,0.0,0.0,-4.3587,0.0,-4.4492,-4.5332,-4.6191,-4.6308,-4.6308,-4.6308,-4.7109,0.0,-4.5293,-4.6738,0.0,0.0,-4.6914,-4.7146,-4.8681,0.0,0.0,0.0,0.0,0.0,-3.9323,-3.7526,-3.7142,-3.7959,-3.8194,0.0,-4.3634,-4.55,-4.8262,-5.1406,-5.1406,-5.1348,-5.1289,-5.1367,-5.0351,-4.9121,-5.0801,-5.1406,-5.1406,-5.1406,-5.1406,-5.1406,-5.1406,-5.1406,-5.1406,-5.1406,-5.1406,-5.1055,-4.9453,-4.9023,-4.8203,-4.4746,0.0,0.0,0.0,0.0,-4.3242,0.0,0.0,0.0,0.0,0.0,0.0,0.0,0.0,0.0,0.0,0.0,0.0,0.0,0.0,0.0,0.0,0.0,0.0,0.0,0.0,0.0,0.0,0.0,0.0,-4.6087,-4.5974,-4.5862,-4.5816,-4.5673,-4.5594,-4.5594,-4.5594,-4.5594,-4.5594,-4.5594,-4.5594,-4.5594,-4.5594,-4.5594,-4.5594,-4.5594,-4.5594,-4.5594,-4.5577,-4.5568,-4.5559,-4.5568,-4.5161,-4.4612,-3.7953,-3.9516,-4.101,0.0,-4.1299,-4.1525,0.0,0.0,0.0,0.0,-4.4863,-4.5332,-4.6191,-4.6308,-4.6308,-4.6308,-4.7109,0.0,0.0,0.0,0.0,-5.0371,-4.9023,-4.8437,-4.8845,-4.6093,0.0,-4.4005,0.0,0.0,-4.015,-3.7796,-3.6864,-3.722,0.0,0.0,-4.3689,-4.5524,-4.8262,-5.1406,-5.1406,-5.0644,0.0,0.0,-5.0351,-4.9121,-5.0801,-5.1406,-5.1406,-5.1406,-5.1406,-5.1406,-5.1406,-5.1406,-5.1406,-5.1406,-5.1406,-5.1308,-5.0879,-5.0762,-5.0098,-4.7305,-4.6289,-4.5234,0.0,0.0,0.0,0.0,0.0,0.0,0.0,0.0,0.0,0.0,0.0,0.0,0.0,0.0,0.0,0.0,0.0,0.0,0.0,0.0,0.0,0.0,0.0,0.0,0.0,0.0,0.0,-4.605,-4.5974,-4.5885,-4.5872,-4.5684,-4.5594,-4.5594,-4.5594,-4.5594,-4.5594,-4.5594,-4.5594,-4.5594,-4.5594,-4.5594,-4.5594,-4.5594,-4.5594,-4.5577,-4.5322,-4.5085,-4.4896,-4.5129,-4.4954,-4.4553,-3.8929,0.0,0.0,-4.2737,0.0,0.0,-4.3481,0.0,0.0,-4.4297,-4.4766,0.0,-4.5683,-4.6074,-4.6445,-4.6836,-4.7676,0.0,-4.832,0.0,0.0,-5.0293,-5.0117,-4.998,-4.998,-4.8203,0.0,-4.5316,0.0,0.0,-4.0062,-3.7829,0.0,0.0,0.0,-3.9842,0.0,-4.6013,-4.8555,-5.0371,-5.1113,0.0,0.0,-5.1035,-5.0801,-5.0117,-5.1055,-5.1406,-5.1406,-5.1406,-5.1406,-5.1406,-5.1406,-5.1406,-5.1406,-5.1406,-5.1406,-5.1406,-5.1406,-5.1406,-5.0879,-4.8711,-4.8086,-4.7226,-4.4219,-4.4219,-4.459,0.0,0.0,0.0,0.0,0.0,0.0,0.0,0.0,0.0,0.0,0.0,0.0,0.0,0.0,0.0,0.0,0.0,0.0,0.0,0.0,0.0,0.0,0.0,0.0,-4.5943,-4.5605,-4.5526,-4.5855,-4.5321,-4.5229,-4.5594,-4.5594,-4.5594,-4.5594,-4.5594,-4.5594,-4.5594,-4.5594,-4.5594,-4.5594,-4.5594,-4.5594,-4.5568,-4.5232,-4.4793,-4.4359,-4.4548,-4.4495,-4.4323,-3.9935,0.0,0.0,0.0,0.0,0.0,0.0,-4.3895,0.0,-4.3867,0.0,-4.5176,-4.5176,-4.5957,-4.6777,-4.7539,0.0,-4.875,-4.7988,-5.0117,-5.0742,-4.9297,-5.0625,-5.1406,-5.1406,-5.0508,0.0,0.0,0.0,0.0,-3.956,0.0,0.0,0.0,0.0,0.0,0.0,-4.6678,-4.8926,0.0,-5.0801,-5.1406,-5.1406,-5.1406,-5.1406,-5.1406,-5.1406,-5.1406,-5.1406,-5.1406,-5.1406,-5.1406,-5.1406,-5.1406,-5.1406,-5.1406,-5.1406,-5.1406,-5.1406,-5.1406,-5.1016,-4.9453,-4.9551,-4.9219,-4.6055,-4.584,-4.6094,-4.5332,-4.457,-4.4433,0.0,0.0,0.0,0.0,0.0,0.0,0.0,0.0,0.0,0.0,0.0,0.0,0.0,0.0,0.0,0.0,0.0,0.0,0.0,0.0,0.0,0.0,-4.5222,0.0,-4.5628,0.0,-4.4778,-4.5441,-4.5556,-4.5594,-4.5594,-4.5594,-4.5594,-4.5594,-4.5594,-4.5594,-4.5594,-4.5594,-4.5577,-4.5504,-4.518,-4.4612,-4.3982,-4.3955,-4.3924,-4.3924,-4.093,0.0,0.0,0.0,0.0,-4.5019,-4.5723,-4.5214,-4.4765,-4.4765,-4.5527,-4.6074,-4.6074,-4.6855,-4.7422,-4.7598,-4.9043,0.0,0.0,0.0,0.0,-5.0976,-5.123,-5.1406,-5.1406,-4.9902,-4.8492,0.0,0.0,-4.1512,-3.9564,-3.7798,0.0,0.0,0.0,0.0,-4.4452,-4.6816,0.0,-5.0996,-5.1289,-5.1406,-5.1406,-5.1406,-5.1406,-5.1406,-5.1406,-5.1406,-5.1406,-5.1406,-5.1406,-5.1406,-5.1406,-5.1406,-5.1406,-5.1406,-5.1406,-5.1406,-5.1406,-5.1406,-5.1172,-5.0215,-4.9551,-4.8789,-4.7441,-4.6719,-4.6269,-4.6094,-4.5957,-4.5508,-4.4355,0.0,0.0,0.0,0.0,0.0,0.0,0.0,0.0,0.0,0.0,0.0,0.0,0.0,0.0,0.0,0.0,0.0,0.0,0.0,0.0,0.0,0.0,0.0,0.0,0.0,-4.5094,-4.4528,-4.5267,-4.5594,-4.5594,-4.5594,-4.5594,-4.5594,-4.5594,-4.5594,-4.5594,-4.5594,-4.5438,-4.515,-4.4825,-4.4401,-4.3971,-4.3677,-4.358,-4.358,-4.3066,0.0,0.0,0.0,0.0,0.0,0.0,-4.5644,0.0,-4.5058,-4.5371,-4.5625,-4.5625,-4.6816,-4.7773,-4.8223,-4.9453,-5.0371,-5.0801,-5.1172,-5.1406,-5.1406,-5.1406,0.0,-5.1406,-5.0605,-4.9081,-4.6826,0.0,-4.2113,-3.9043,-3.773,-3.6692,-3.6046,0.0,-4.0895,0.0,0.0,0.0,-5.0176,-5.1055,-5.1406,-5.1406,-5.1406,-5.1406,-5.1406,-5.1406,-5.1406,-5.1406,-5.1406,-5.1406,-5.1406,-5.1406,-5.1406,-5.1406,-5.1406,-5.1406,-5.1406,-5.1406,-5.1406,-5.1211,-5.0391,-4.9531,-4.8672,-4.7793,-4.6933,-4.6308,-4.6308,-4.6308,-4.5762,-4.4023,-4.2324,0.0,0.0,0.0,0.0,0.0,0.0,0.0,0.0,0.0,0.0,0.0,0.0,0.0,0.0,0.0,0.0,0.0,0.0,0.0,0.0,0.0,0.0,0.0,0.0,0.0,-4.4979,-4.5402,-4.5594,-4.5594,-4.5594,-4.5594,-4.5594,-4.5594,-4.5594,-4.5594,-4.5594,-4.541,-4.5063,-4.472,-4.4346,-4.3955,-4.3612,-4.3515,-4.3515,0.0,-4.4609,0.0,0.0,-4.5156,0.0,-4.5273,-4.5859,-4.6055,-4.5371,-4.5273,-4.5351,-4.5527,-4.6933,-4.8223,-4.9101,-4.9961,-5.0723,-5.1367,-5.1406,-5.1406,-5.1406,-5.1406,-5.1406,-5.1406,-5.1406,-4.9902,0.0,0.0,0.0,-3.9121,-3.7822,-3.7081,0.0,0.0,0.0,0.0,0.0,-4.8945,-4.9551,-5.0879,-5.1406,-5.1406,-5.1406,-5.1406,-5.1406,-5.1406,-5.1406,-5.1406,-5.1406,-5.1406,-5.1406,-5.1406,-5.1406,-5.1406,-5.1406,-5.1406,-5.1406,-5.1406,-5.1406,-5.125,-5.0605,-4.9805,-4.8945,-4.8086,-4.7207,-4.6523,-4.6348,-4.6308,-4.5762,-4.4023,-4.293,0.0,0.0,0.0,0.0,0.0,0.0,0.0,0.0,0.0,0.0,0.0,0.0,0.0,0.0,0.0,0.0,0.0,0.0,0.0,0.0,0.0,-4.4811,-4.5025,0.0,-4.4816,0.0,-4.5518,-4.5594,-4.5594,-4.5594,-4.5594,-4.5594,-4.5594,-4.5594,-4.5594,-4.5594,-4.5438,-4.5169,-4.4745,-4.4419,-4.4091,-4.3646,-4.3515,-4.3515,0.0,0.0,0.0,0.0,0.0,0.0,-4.6172,-4.625,-4.6269,-4.6191,-4.6172,-4.6484,-4.7266,-4.8203,-4.9121,-5.0,-5.082,-5.1328,-5.1406,-5.1406,-5.1406,-5.1406,-5.1406,-5.1406,-5.1406,-5.1406,-5.0508,0.0,0.0,0.0,0.0,-3.8437,-3.8086,0.0,0.0,0.0,0.0,-4.7558,-4.9043,-5.1172,-5.1348,-5.1406,-5.1406,-5.1406,-5.1406,-5.1406,-5.1406,-5.1406,-5.1406,-5.1406,-5.1406,-5.1406,-5.1406,-5.1406,-5.1406,-5.1406,-5.1406,-5.1406,-5.1406,-5.1406,-5.1387,-5.1308,-5.0683,-4.9844,-4.8984,-4.8105,-4.7246,-4.6465,-4.6308,-4.5762,-4.4023,-4.4863,-4.4805,0.0,0.0,0.0,0.0,0.0,0.0,0.0,0.0,0.0,0.0,0.0,0.0,0.0,0.0,0.0,0.0,0.0,0.0,-4.3412,0.0,-4.3896,-4.2206,-4.438,0.0,-4.4432,-4.5229,-4.5594,-4.5594,-4.5594,-4.5594,-4.5594,-4.5594,-4.5594,-4.5594,-4.5594,-4.5577,-4.5495,-4.4861,-4.4567,-4.446,-4.3758,-4.3515,-4.3515,0.0,0.0,0.0,0.0,0.0,0.0,0.0,-4.6738,-4.707,-4.707,-4.707,-4.7402,-4.8281,-4.916,-4.9824,-5.0176,-5.0937,-5.1406,-5.1406,-5.1406,-5.1406,-5.1406,-5.1406,-5.1406,-5.1406,-5.1406,-5.0586,0.0,0.0,0.0,0.0,-4.0859,0.0,0.0,0.0,-4.5664,-4.7695,-4.9238,-5.0469,-5.1406,-5.1406,-5.1406,-5.1406,-5.1406,-5.1406,-5.1406,-5.1406,-5.1406,-5.1406,-5.1406,-5.1406,-5.1406,-5.1406,-5.1406,-5.1406,-5.1406,-5.1406,-5.1406,-5.1406,-5.1406,-5.1406,-5.1406,-5.0801,-5.0117,-4.9766,-4.9004,-4.8281,-4.793,-4.7851,-4.7656,-4.6953,-4.6113,-4.541,0.0,0.0,0.0,0.0,0.0,0.0,0.0,0.0,0.0,0.0,0.0,0.0,0.0,0.0,0.0,0.0,0.0,0.0,-4.1695,0.0,-4.4478,-4.2658,-4.4622,-4.5441,-4.5075,-4.5441,-4.5594,-4.5594,-4.5594,-4.5594,-4.5594,-4.5594,-4.5594,-4.5594,-4.5594,-4.5594,-4.5522,-4.4853,-4.4593,-4.4501,-4.3758,-4.3809,-4.4213,-4.6308,0.0,-4.5586,0.0,-4.5781,-4.5586,-4.6211,-4.7031,-4.7695,-4.7949,-4.8203,-4.8594,-4.9219,-4.9824,-5.0293,-5.0527,-5.1074,-5.1406,-5.1406,-5.1406,-5.1406,-5.1406,-5.1406,0.0,-5.1406,-5.1406,-5.082,-4.9648,-4.791,0.0,0.0,-4.3144,-4.3516,0.0,-4.6777,-4.8027,-4.8848,-5.0644,-5.1406,-5.1406,-5.1406,-5.1406,-5.1406,-5.1406,-5.1406,-5.1406,-5.1406,-5.1406,-5.1406,-5.1406,-5.1406,-5.1406,-5.1406,-5.1406,-5.1406,-5.1406,-5.1406,-5.1406,-5.1406,-5.1406,-5.1406,-5.1406,-5.0976,-5.0488,-5.0254,-4.9726,-4.9219,-4.8945,-4.8906,-4.8906,-4.8906,-4.7187,-4.5996,-4.6719,0.0,0.0,0.0,0.0,0.0,0.0,0.0,-4.3345,0.0,0.0,0.0,0.0,0.0,0.0,0.0,0.0,0.0,0.0,0.0,0.0,0.0,-4.4784,-4.5594,-4.5594,-4.5594,-4.5594,-4.5594,-4.5594,-4.5594,-4.5594,-4.5594,-4.5594,-4.5594,-4.5594,-4.5594,-4.5569,-4.5224,-4.5041,-4.4909,-4.4514,-4.4666,-4.5057,-4.6308,-4.6289,-4.6289,-4.6308,-4.6289,-4.6289,-4.6308,-4.7031,-4.791,-4.8769,-4.9629,-5.0176,-5.0176,-5.0195,-5.0527,-5.1328,-5.1387,-5.1406,-5.1406,-5.1406,-5.1406,0.0,0.0,-5.1406,-5.1406,-5.1406,-5.1387,-5.1367,0.0,0.0,-4.748,-4.4883,-4.5078,-4.7558,-4.7598,-4.9004,-5.1367,-5.1387,-5.1406,-5.1406,-5.1406,-5.1406,-5.1406,-5.1406,-5.1406,-5.1406,-5.1406,-5.1406,-5.1406,-5.1406,-5.1406,-5.1406,-5.1406,-5.1406,-5.1406,-5.1406,-5.1406,-5.1406,-5.1406,-5.1406,-5.1406,-5.1406,-5.1387,-5.1172,-5.0371,-5.0195,-4.9941,-4.9082,-4.8906,-4.8906,-4.8906,-4.8164,-4.7012,-4.5312,0.0,0.0,0.0,0.0,0.0,0.0,-3.9406,-3.8622,-4.1983,0.0,0.0,0.0,0.0,0.0,0.0,0.0,0.0,-4.3055,-4.4011,0.0,-4.3113,-4.4767,-4.5594,-4.5594,-4.5594,-4.5594,-4.5594,-4.5594,-4.5594,-4.5594,-4.5594,-4.5594,-4.5594,-4.5594,-4.5594,-4.5645,-4.6093,-4.608,-4.5851,-4.6314,-4.6214,-4.5883,-4.6308,-4.6308,-4.6308,-4.6308,-4.6308,-4.6504,-4.7109,-4.793,-4.8808,-4.9668,-5.0508,-5.1016,-5.1016,-5.1016,-5.1113,0.0,-5.1406,-5.1406,0.0,-5.1406,-5.1406,-5.1406,-5.1406,-5.1406,-5.1406,-5.1406,-5.1406,-5.1406,0.0,0.0,0.0,-4.7637,-4.8301,-5.0195,-5.0195,-5.0644,-5.1406,-5.1406,-5.1406,-5.1406,-5.1406,-5.1406,-5.1406,-5.1406,-5.1406,-5.1406,-5.1406,-5.1406,-5.1406,-5.1406,-5.1343,-5.1267,-5.1267,-5.1267,-5.1267,-5.1267,-5.1267,-5.1273,-5.1386,-5.1406,-5.1406,-5.1406,-5.1406,-5.1328,-5.1074,-5.1016,-5.0937,-5.0664,-5.0605,-5.0605,-5.0605,-4.9433,-4.8301,-4.7754,-4.6894,0.0,0.0,0.0,0.0,0.0,0.0,-4.3801,0.0,-4.1935,0.0,0.0,0.0,0.0,0.0,0.0,0.0,0.0,-4.3882,0.0,-4.3104,-4.4767,-4.5594,-4.5594,-4.5594,-4.5594,-4.5594,-4.5594,-4.5594,-4.5594,-4.5594,-4.5932,-4.649,-4.649,-4.6817,-4.7289,-4.7212,-4.7121,-4.7029,-4.6938,-4.6999,-4.7132,-4.6308,-4.6308,-4.6308,-4.6308,-4.6562,-4.6973,-4.7519,-4.8613,-4.957,-5.0137,-5.0898,-5.1406,-5.1406,-5.1406,0.0,-5.1406,-5.1406,-5.1406,-5.1406,-5.1406,-5.1406,-5.1406,-5.1406,-5.1406,-5.1406,0.0,0.0,-5.1406,-5.0351,-4.9844,-4.9844,-4.9844,-5.0391,-5.1406,-5.1406,-5.1406,-5.1406,-5.1406,-5.1406,-5.1406,-5.1406,-5.1406,-5.1406,-5.1406,-5.1406,-5.1406,-5.1406,-5.1366,-5.1321,-5.1321,-5.1256,-5.1151,-5.1094,-5.1081,-5.1098,-5.1188,-5.1204,-5.1234,-5.1366,-5.1406,-5.1406,-5.1406,-5.1406,-5.1406,-5.1406,-5.1406,-5.1406,-5.1406,-5.1406,-5.1406,-5.1406,-5.0039,-4.8906,-4.8906,-4.7441,-4.6308,-4.6308,0.0,0.0,0.0,0.0,0.0,0.0,-4.3139,0.0,0.0,0.0,0.0,0.0,0.0,0.0,-4.242,-4.4498,0.0,-4.4047,-4.5075,-4.5594,-4.5594,-4.5594,-4.5594,-4.5614,-4.5932,-4.6086,-4.6105,-4.6413,-4.6855,-4.7355,-4.7355,-4.7663,-4.8106,-4.8227,-4.8176,-4.8059,-4.8182,-4.8177,-4.8149,-4.6308,-4.6308,-4.6308,0.0,-4.7012,0.0,-4.7676,-4.9121,-5.0215,-5.0273,-5.0937,-5.1406,-5.1406,-5.1406,-5.1406,-5.1406,0.0,0.0,0.0,-5.1406,-5.1406,-5.1406,-5.1406,-5.1406,-5.1406,-5.1406,-5.1406,-5.1406,-5.1406,-5.1406,-5.1406,-5.1406,-5.1406,-5.1406,-5.1406,-5.1406,-5.1406,-5.1406,-5.1406,-5.1406,-5.1406,-5.1387,-5.1386,-5.1386,-5.1386,-5.1386,-5.1386,-5.1295,-5.1196,-5.1196,-5.1156,-5.1053,-5.0945,-5.0908,-5.094,-5.1147,-5.1196,-5.121,-5.1365,-5.1406,-5.1406,-5.1406,-5.1406,-5.1406,-5.1406,-5.1406,-5.1406,-5.1406,-5.1406,-5.1406,-5.1406,-5.0078,-4.8965,-4.8906,-4.748,-4.6367,-4.6308,0.0,0.0,0.0,0.0,0.0,0.0,-4.249,-4.3294,0.0,0.0,0.0,0.0,0.0,-4.2189,-4.5498,-4.5594,-4.5594,-4.5594,-4.5594,-4.5633,-4.5691,-4.5691,-4.5729,-4.5806,-4.6605,-4.6981,-4.7019,-4.7778,-4.8125,-4.8202,-4.8202,-4.824,-4.8355,-4.9163,-4.9254,-4.9029,-4.9842,-4.9645,-4.8996,0.0,0.0,-4.6308,-4.6308,-4.7012,-4.7812,-4.8496,-4.9512,-5.043,-5.1035,-5.1289,-5.1406,-5.1406,-5.1406,-5.1406,-5.1406,-5.1406,-5.1406,-5.1406,-5.1406,-5.1406,-5.1406,-5.1406,-5.1406,-5.1406,-5.1406,-5.1406,-5.1406,-5.1406,-5.1406,-5.1406,-5.1406,-5.1406,-5.1406,-5.1406,-5.1406,-5.1406,-5.1406,-5.1406,-5.1406,-5.1406,-5.1343,-5.1242,-5.1242,-5.1213,-5.1175,-5.1175,-5.116,-5.1116,-5.1116,-5.1047,-5.0945,-5.0903,-5.0908,-5.0932,-5.1074,-5.1116,-5.116,-5.1342,-5.1406,-5.1406,-5.1406,-5.1406,-5.1406,-5.1406,-5.1406,-5.1406,-5.1406,-5.1406,-5.1406,-5.1406,-5.0566,-4.9668,-4.9004,-4.8008,-4.7051,-4.6387,-4.6308,0.0,0.0,-4.5371,-4.5371,-4.5371,-4.515,-4.4712,0.0,0.0,0.0,0.0,-4.2912,-4.3431,-4.5537,-4.5594,-4.5594,-4.5594,-4.5594,-4.5932,-4.6586,-4.6586,-4.6913,-4.7528,-4.7721,-4.7817,-4.7836,-4.8029,-4.849,-4.9086,-4.9086,-4.9471,-5.0087,-5.0308,-5.0327,-5.0285,-5.0477,-5.0249,-4.9773,-4.6308,-4.6308,-4.6308,-4.6308,-4.7344,-4.8359,-4.8828,-4.9941,-5.0918,-5.1348,-5.1406,-5.1406,-5.1406,-5.1406,-5.1406,-5.1406,-5.1406,-5.1406,-5.1406,-5.1406,-5.1406,-5.1406,-5.1406,-5.1406,-5.1406,-5.1406,-5.1406,-5.1406,-5.1406,-5.1406,-5.1406,-5.1406,-5.1406,-5.1406,-5.1406,-5.1406,-5.1406,-5.1406,-5.1406,-5.1387,-5.1323,-5.1267,-5.1199,-5.1164,-5.1133,-5.1089,-5.1089,-5.1053,-5.101,-5.101,-5.0918,-5.0822,-5.0879,-5.0908,-5.0926,-5.1107,-5.1152,-5.1184,-5.1344,-5.1406,-5.1406,-5.1406,-5.1406,-5.1406,-5.1406,-5.1406,-5.1406,-5.1406,-5.1406,-5.1406,-5.1406,-5.0742,-4.9902,-4.9043,-4.8164,-4.7305,-4.6426,-4.6308,0.0,-4.6308,-4.6308,-4.6308,-4.6308,-4.6069,-4.5514,-4.4604,0.0,0.0,-4.4239,-4.4239,-4.4662,-4.5575,-4.5594,-4.5594,-4.5594,-4.599,-4.6624,-4.7451,-4.7451,-4.7682,-4.8105,-4.8509,-4.8682,-4.8721,-4.9125,-4.9548,-4.999,-4.999,-5.0269,-5.0712,-5.0712,-5.0712,-5.0712,-5.0712,-5.0462,-5.0068,-4.6268,-4.6268,-4.6327,-4.6465,-4.7832,-4.8945,-4.9082,-5.041,-5.1406,-5.1406,-5.1406,-5.1406,-5.1406,-5.1406,-5.1406,-5.1406,-5.1406,-5.1406,-5.1406,-5.1406,-5.1406,-5.1406,-5.1406,-5.1406,-5.1406,-5.1406,-5.1406,-5.1406,-5.1406,-5.1406,-5.1406,-5.1406,-5.1406,-5.1406,-5.1406,-5.1406,-5.1406,-5.1406,-5.1406,-5.1386,-5.1244,-5.1196,-5.1177,-5.1093,-5.1067,-5.105,-5.105,-5.0959,-5.0863,-5.0863,-5.0805,-5.0748,-5.0856,-5.0932,-5.0971,-5.1145,-5.1208,-5.1263,-5.1366,-5.1406,-5.1406,-5.1406,-5.1406,-5.1406,-5.1406,-5.1406,-5.1406,-5.1406,-5.1406,-5.1406,-5.1406,-5.084,-5.0019,-4.8887,-4.8183,-4.7402,-4.6269,0.0,-4.6308,-4.6308,-4.6308,-4.6289,-4.6268,-4.6042,-4.5894,-4.5896,-4.572,-4.5671,0.0,-4.5806,-4.5845,-4.5979,-4.5729,-4.5671,-4.5787,-4.6644,-4.749,-4.8298,-4.8298,-4.8375,-4.8529,-4.926,-4.9606,-4.9644,-5.0385,-5.0712,-5.0712,-5.0712,-5.0712,-5.0712,-5.0712,-5.0712,-5.0712,-5.0712,-5.0483,-5.0202,-4.612,-4.612,-4.6407,-4.7246,-4.8223,-4.9141,-4.9883,-5.0801,-5.1406,-5.1406,-5.1406,-5.1406,-5.1406,-5.1406,-5.1406,-5.1406,-5.1406,-5.1406,-5.1406,-5.1406,-5.1406,-5.1406,-5.1406,-5.1406,-5.1406,-5.1406,-5.1406,-5.1406,-5.1406,-5.1406,-5.1406,-5.1406,-5.1406,-5.1406,-5.1406,-5.1406,-5.1406,-5.1406,-5.1406,-5.1386,-5.1244,-5.1164,-5.1108,-5.0979,-5.0867,-5.0766,-5.0766,-5.0739,-5.073,-5.073,-5.0799,-5.0871,-5.0901,-5.1009,-5.1154,-5.1196,-5.1271,-5.1366,-5.1387,-5.1406,-5.1406,-5.1406,-5.1406,-5.1406,-5.1406,-5.1406,-5.1406,-5.1406,-5.1406,-5.1406,-5.1406,-5.1308,-5.0469,-4.8164,-4.8301,-4.7871,-4.5527,0.0,-4.6308,-4.6308,-4.6308,-4.6267,-4.6145,-4.5988,-4.5877,-4.5808,-4.5677,-4.5913,-4.6663,-4.6701,-4.7009,-4.7682,-4.6336,-4.5951,-4.6701,-4.7509,-4.8355,-4.9202,-4.9202,-4.9586,-5.0308,-5.0442,-5.05,-5.0519,-5.0635,-5.0712,-5.0712,-5.0712,-5.0712,-5.0712,-5.0712,-5.0712,-5.0712,-5.0712,-5.0663,-5.065,-4.6082,-4.6108,-4.6419,-4.7421,-4.832,-4.9199,-5.0078,-5.0879,-5.1406,-5.1406,-5.1406,-5.1406,-5.1406,-5.1406,-5.1406,-5.1406,-5.1406,-5.1406,-5.1406,-5.1406,-5.1406,-5.1406,-5.1406,-5.1406,-5.1406,-5.1406,-5.1406,-5.1406,-5.1406,-5.1406,-5.1406,-5.1406,-5.1406,-5.1406,-5.1406,-5.1406,-5.1406,-5.1406,-5.1406,-5.1386,-5.1208,-5.1124,-5.1088,-5.0863,-5.0748,-5.0712,-5.0712,-5.0712,-5.0712,-5.0782,-5.0851,-5.0925,-5.1025,-5.1124,-5.1208,-5.1294,-5.1344,-5.1406,-5.1406,-5.1406,-5.1406,-5.1406,-5.1406,-5.1406,-5.1406,-5.1406,-5.1406,-5.1406,-5.1406,-5.1406,-5.1406,-5.1406,-5.0879,-4.9258,-4.8945,-4.8301,-4.6641,-4.6348,-4.6308,-4.6308,-4.6719,-4.6972,-4.6906,-4.7141,-4.7301,-4.7259,-4.7055,-4.7124,-4.7528,-4.7548,-4.7721,-4.8086,-4.7355,-4.7375,-4.824,-4.8606,-4.924,-5.0087,-5.0087,-5.0308,-5.0712,-5.0712,-5.0712,-5.0712,-5.0712,-5.0712,-5.0712,-5.0712,-5.0712,-5.0712,-5.0712,-5.0712,-5.075,-5.1183,-5.1356,-5.1432,-4.6036,-4.608,-4.6477,-4.7694,-4.8457,-4.9258,-5.0312,-5.0976,-5.1366,-5.1406,-5.1366,-5.1366,-5.1406,-5.1406,-5.1406,-5.1406,-5.1406,-5.1406,-5.1406,-5.1406,-5.1406,-5.1406,-5.1406,-5.1406,-5.1406,-5.1406,-5.1406,-5.1406,-5.1406,-5.1406,-5.1406,-5.1406,-5.1406,-5.1406,-5.1406,-5.1406,-5.1406,-5.1406,-5.1406,-5.1386,-5.1183,-5.1089,-5.1063,-5.0797,-5.0712,-5.0712,-5.0712,-5.0712,-5.0731,-5.084,-5.0918,-5.0991,-5.1161,-5.1213,-5.1268,-5.1366,-5.1406,-5.1406,-5.1406,-5.1406,-5.1406,-5.1406,-5.1406,-5.1406,-5.1406,-5.1406,-5.1406,-5.1406,-5.1406,-5.1406,-5.1406,-5.1406,-5.1074,-5.0058,0.0,-4.8516,-4.7441,-4.6894,-4.6601,-4.6601,-4.7363,-4.789,-4.7869,-4.8279,-4.8528,-4.8453,-4.8263,-4.8218,-4.8394,-4.8394,-4.8509,-4.8702,-4.8509,-4.8721,-4.9394,-4.9606,-5.0029,-5.0712,-5.0712,-5.0712,-5.0712,-5.0712,-5.0712,-5.0712,-5.0712,-5.0712,-5.0712,-5.0712,-5.0712,-5.0712,-5.0712,-5.0808,-5.1048,-5.1673,-5.2019,-5.2327,-4.5912,-4.6005,-4.6672,-4.8496,-4.8867,-4.9453,-5.1055,-5.1256,-5.1265,-5.1386,-5.1295,-5.1267,-5.1386,-5.1406,-5.1406,-5.1406,-5.1406,-5.1406,-5.1406,-5.1406,-5.1406,-5.1406,-5.1406,-5.1406,-5.1406,-5.1406,-5.1406,-5.1406,-5.1406,-5.1406,-5.1406,-5.1406,-5.1406,-5.1406,-5.1406,-5.1406,-5.1406,-5.1406,-5.1406,-5.1386,-5.1183,-5.1089,-5.1063,-5.0797,-5.0712,-5.0712,-5.0712,-5.0712,-5.0731,-5.084,-5.0979,-5.1103,-5.1177,-5.1292,-5.1386,-5.1406,-5.1406,-5.1406,-5.1406,-5.1406,-5.1406,-5.1406,-5.1406,-5.1406,-5.1406,-5.1406,-5.1406,-5.1406,-5.1406,-5.1406,-5.1406,-5.1406,-5.0879,-4.9258,-4.8945,-4.8301,-4.6621,-4.7031,-4.75,-4.75,-4.8262,-4.8767,-4.8621,-4.8669,-4.858,-4.8328,-4.8294,-4.8586,-4.9269,-4.9298,-4.9663,-5.0481,-4.9721,-4.9336,-4.9394,-5.0212,-5.0635,-5.0712,-5.0712,-5.0712,-5.0712,-5.0712,-5.0712,-5.0712,-5.0712,-5.0712,-5.0712,-5.0712,-5.0712,-5.0712,-5.0712,-5.1164,-5.1808,-5.1885,-5.2404,-5.3241,-4.5992,-4.6072,-4.6516,-4.7851,-4.8535,-4.9276,-5.0356,-5.0904,-5.121,-5.1268,-5.1236,-5.1244,-5.1386,-5.1406,-5.1406,-5.1406,-5.1406,-5.1406,-5.1406,-5.1406,-5.1406,-5.1406,-5.1406,-5.1406,-5.1406,-5.1406,-5.1406,-5.1406,-5.1406,-5.1406,-5.1406,-5.1406,-5.1406,-5.1406,-5.1406,-5.1406,-5.1406,-5.1406,-5.1406,-5.1386,-5.1183,-5.1089,-5.1063,-5.0797,-5.0712,-5.0712,-5.0712,-5.0712,-5.073,-5.0959,-5.1067,-5.1126,-5.1283,-5.1365,-5.1406,-5.1406,-5.1406,-5.1406,-5.1406,-5.1406,-5.1406,-5.1406,-5.1406,-5.1406,-5.1406,-5.1406,-5.1406,-5.1406,-5.1406,-5.1406,-5.1406,-5.1406,-5.1191,-5.0547,-5.0039,-4.9473,-4.8808,-4.8535,-4.8418,-4.8418,-4.918,-4.9687,-4.9643,-5.0014,-5.0186,-5.004,-4.997,-5.0012,-5.0202,-5.0212,-5.0366,-5.0693,-5.0385,-5.0212,-5.0212,-5.0539,-5.0712,-5.0712,-5.0712,-5.0712,-5.0712,-5.0712,-5.0712,-5.0712,-5.0712,-5.0712,-5.0712,-5.0712,-5.0991,-5.1433,-5.1433,-5.1972,-5.2779,-5.3318,-5.3722,-5.4126,-4.6131,-4.6357,-4.6784,-4.748,-4.832,-4.9158,-4.9883,-5.0675,-5.1177,-5.1201,-5.1183,-5.1223,-5.1386,-5.1406,-5.1406,-5.1406,-5.1406,-5.1406,-5.1406,-5.1406,-5.1406,-5.1406,-5.1406,-5.1406,-5.1406,-5.1406,-5.1406,-5.1406,-5.1406,-5.1406,-5.1406,-5.1406,-5.1406,-5.1406,-5.1406,-5.1406,-5.1406,-5.1406,-5.1406,-5.1386,-5.1183,-5.1089,-5.1063,-5.0797,-5.0712,-5.0712,-5.0712,-5.0721,-5.0808,-5.1008,-5.1117,-5.116,-5.1342,-5.1406,-5.1386,-5.1344,-5.1366,-5.1386,-5.1344,-5.1366,-5.1406,-5.1406,-5.1406,-5.1406,-5.1406,-5.1406,-5.1406,-5.1406,-5.1406,-5.1406,-5.1406,-5.1406,-5.1406,-5.1406,-5.0723,-5.0195,-5.0195,-4.9687,-4.9316,-4.9316,-5.0058,-5.0586,-5.0586,-5.0988,-5.1225,-5.1137,-5.1031,-5.0886,-5.0712,-5.0712,-5.0712,-5.0712,-5.0712,-5.0712,-5.0712,-5.0712,-5.0712,-5.0712,-5.0712,-5.0712,-5.0712,-5.0712,-5.0712,-5.0712,-5.0712,-5.0712,-5.0731,-5.0971,-5.1395,-5.1923,-5.2192,-5.2837,-5.3683,-5.428,-5.4664,-5.4953,-4.6286,-4.6924,-4.7598,-4.7598,-4.8301,-4.9138,-4.9881,-5.0618,-5.1116,-5.1194,-5.1145,-5.1179,-5.1386,-5.1406,-5.1406,-5.1406,-5.1406,-5.1406,-5.1406,-5.1406,-5.1406,-5.1406,-5.1406,-5.1406,-5.1406,-5.1406,-5.1406,-5.1406,-5.1406,-5.1406,-5.1406,-5.1406,-5.1406,-5.1406,-5.1406,-5.1406,-5.1406,-5.1406,-5.1406,-5.1386,-5.1183,-5.1089,-5.1063,-5.0797,-5.0712,-5.0712,-5.0693,-5.0791,-5.0918,-5.1067,-5.1133,-5.1213,-5.1365,-5.1406,-5.1386,-5.1258,-5.1315,-5.1386,-5.1258,-5.1296,-5.1406,-5.1406,-5.1406,-5.1406,-5.1406,-5.1406,-5.1406,-5.1406,-5.1406,-5.1406,-5.1406,-5.1406,-5.1406,-5.1406,-5.0723,-5.0215,-5.0215,-5.0215,-5.0215,-5.0215,-5.0918,-5.1406,-5.1406,-5.1406,-5.1344,-5.1206,-5.1141,-5.0979,-5.0712,-5.0712,-5.0712,-5.0712,-5.0712,-5.0712,-5.0712,-5.0712,-5.0712,-5.0712,-5.0712,-5.0712,-5.0712,-5.0712,-5.0712,-5.0712,-5.0712,-5.0712,-5.077,-5.1568,-5.1904,-5.2,-5.2876,-5.3741,-5.4511,-5.4511,-5.5011,-5.5703,-4.7982,-4.7812,-4.7598,-4.7598,-4.7747,-4.8105,-4.8834,-4.9573,-5.0316,-5.1033,-5.1117,-5.1179,-5.1386,-5.1406,-5.1406,-5.1406,-5.1406,-5.1406,-5.1406,-5.1406,-5.1406,-5.1406,-5.1406,-5.1406,-5.1406,-5.1406,-5.1406,-5.1406,-5.1406,-5.1406,-5.1406,-5.1406,-5.1406,-5.1406,-5.1406,-5.1406,-5.1406,-5.1406,-5.1406,-5.1386,-5.1183,-5.1089,-5.1063,-5.0797,-5.0712,-5.0712,-5.0805,-5.0875,-5.0939,-5.1113,-5.1185,-5.133,-5.2088,-5.2259,-5.2273,-5.286,-5.2542,-5.2032,-5.2105,-5.1681,-5.1273,-5.1386,-5.1406,-5.1406,-5.1406,-5.1406,-5.1406,-5.1406,-5.1406,-5.1406,-5.1406,-5.1406,-5.1406,-5.1406,-5.1191,-5.1035,-5.1035,-5.1035,-5.1035,-5.1035,-5.125,-5.1406,-5.1406,-5.1406,-5.1317,-5.1141,-5.094,-5.0782,-5.0702,-5.0712,-5.0712,-5.0712,-5.0712,-5.0712,-5.0712,-5.0712,-5.0712,-5.0712,-5.0712,-5.0712,-5.0712,-5.0712,-5.0712,-5.0712,-5.0712,-5.0712,-5.077,-5.1568,-5.225,-5.2895,-5.378,-5.4626,-5.5338,-5.5338,-5.5491,-5.5703,-4.8789,-4.8476,-4.8008,-4.7656,-4.7487,-4.753,-4.7927,-4.8902,-4.9834,-5.0495,-5.0899,-5.1179,-5.1386,-5.1406,-5.1406,-5.1406,-5.1406,-5.1406,-5.1406,-5.1719,-5.1914,-5.1914,-5.2246,-5.2109,-5.1426,-5.1406,-5.1406,-5.1406,-5.1406,-5.1406,-5.1406,-5.1406,-5.1406,-5.1406,-5.1406,-5.1406,-5.1406,-5.1406,-5.1406,-5.1386,-5.1183,-5.1089,-5.1063,-5.0797,-5.0712,-5.0721,-5.0859,-5.0939,-5.0996,-5.1141,-5.1204,-5.1364,-5.2329,-5.2537,-5.2501,-5.299,-5.2775,-5.2325,-5.2037,-5.1628,-5.1296,-5.1386,-5.1406,-5.1406,-5.1406,-5.1406,-5.1406,-5.1406,-5.1406,-5.1406,-5.1406,-5.1406,-5.1406,-5.1406,-5.1406,-5.1406,-5.1406,-5.1406,-5.1406,-5.1406,-5.1406,-5.1406,-5.1406,-5.1345,-5.1245,-5.1031,-5.0863,-5.0757,-5.0693,-5.0712,-5.0712,-5.0712,-5.0712,-5.0712,-5.0712,-5.0712,-5.0712,-5.0712,-5.0712,-5.0712,-5.0712,-5.0712,-5.0856,-5.1164,-5.1164,-5.1375,-5.1741,-5.2587,-5.3241,-5.3799,-5.4645,-5.5261,-5.5703,-5.5703,-5.5703,-5.5703,-4.9101,-4.9004,-4.8652,-4.7851,-4.7465,-4.729,-4.7309,-4.8541,-4.9569,-4.9883,-5.0612,-5.1179,-5.1386,-5.1406,-5.1406,-5.1406,-5.1406,-5.1426,-5.1504,-5.2266,-5.2734,-5.2812,-5.3574,-5.3262,-5.168,-5.1562,-5.1523,-5.1523,-5.1445,-5.1406,-5.1406,-5.1406,-5.1406,-5.1406,-5.1406,-5.1406,-5.1406,-5.1406,-5.1406,-5.1386,-5.1193,-5.1108,-5.1079,-5.0822,-5.074,-5.0748,-5.0871,-5.101,-5.1126,-5.1277,-5.1318,-5.1472,-5.2414,-5.2621,-5.25,-5.2387,-5.2463,-5.2389,-5.1462,-5.1296,-5.1386,-5.1406,-5.1406,-5.1406,-5.1406,-5.1406,-5.1406,-5.1406,-5.1406,-5.1406,-5.1406,-5.1406,-5.1406,-5.1406,-5.1406,-5.1406,-5.1406,-5.1406,-5.1406,-5.1406,-5.1406,-5.1406,-5.1406,-5.1268,-5.1129,-5.0919,-5.0901,-5.0839,-5.0702,-5.0712,-5.0712,-5.0712,-5.0712,-5.0712,-5.0712,-5.0712,-5.0712,-5.0712,-5.0712,-5.0712,-5.0712,-5.077,-5.1202,-5.1904,-5.1981,-5.2462,-5.328,-5.4145,-5.4491,-5.4587,-5.5395,-5.5703,-5.5703,-5.5703,-5.5703,-5.5703,-5.0723,-4.9805,-4.8848,-4.8652,-4.7283,-4.6683,-4.8006,-4.8331,-4.9003,-5.0616,-5.0977,-5.1179,-5.1386,-5.1406,-5.1406,-5.1406,-5.1406,-5.1699,-5.2363,-5.2598,-5.3008,-5.3691,-5.3906,-5.3828,-5.3437,-5.2773,-5.2422,-5.2422,-5.1738,-5.1406,-5.1406,-5.1406,-5.1406,-5.1406,-5.1406,-5.1406,-5.1406,-5.1406,-5.1406,-5.1386,-5.1232,-5.118,-5.1141,-5.0933,-5.0918,-5.1022,-5.1056,-5.1111,-5.1277,-5.1971,-5.2228,-5.2473,-5.3918,-5.429,-5.419,-5.4277,-5.3779,-5.3061,-5.2384,-5.1725,-5.1268,-5.1366,-5.1406,-5.1406,-5.1406,-5.1406,-5.1406,-5.1406,-5.1406,-5.1406,-5.1406,-5.1406,-5.1406,-5.1406,-5.1406,-5.1406,-5.1406,-5.1406,-5.1406,-5.1406,-5.1406,-5.1406,-5.1406,-5.1233,-5.1093,-5.1053,-5.0856,-5.073,-5.0693,-5.0712,-5.0712,-5.0712,-5.0712,-5.0712,-5.0712,-5.0712,-5.0712,-5.0712,-5.0712,-5.0712,-5.0731,-5.1356,-5.1731,-5.1942,-5.2615,-5.3029,-5.328,-5.4145,-5.4491,-5.4587,-5.5395,-5.5703,-5.5703,-5.5703,-5.5703,-5.5703,-5.123,-5.0058,-4.8906,-4.8906,-4.7233,-4.621,-4.7115,-4.7798,-4.8607,-4.9712,-5.0603,-5.1208,-5.1386,-5.1406,-5.1406,-5.1406,-5.1406,-5.1777,-5.2637,-5.3086,-5.3711,-5.457,-5.5019,-5.5234,-5.5234,-5.4394,-5.3535,-5.2695,-5.1836,-5.1601,-5.2012,-5.2012,-5.2246,-5.2637,-5.2637,-5.2402,-5.2012,-5.2012,-5.1777,-5.1386,-5.1244,-5.1204,-5.1191,-5.1049,-5.1045,-5.1157,-5.1608,-5.1837,-5.2034,-5.2845,-5.2809,-5.2691,-5.4309,-5.4461,-5.4092,-5.4154,-5.361,-5.2816,-5.2071,-5.1591,-5.1319,-5.1386,-5.1406,-5.1406,-5.1406,-5.1406,-5.1406,-5.1406,-5.1406,-5.1406,-5.1406,-5.1406,-5.1406,-5.1406,-5.1406,-5.1406,-5.1406,-5.1406,-5.1406,-5.1406,-5.1406,-5.1366,-5.1318,-5.121,-5.1111,-5.1022,-5.0939,-5.0827,-5.0702,-5.0766,-5.0775,-5.0693,-5.0712,-5.0712,-5.0712,-5.0712,-5.0712,-5.0712,-5.0712,-5.0712,-5.0712,-5.1144,-5.176,-5.2538,-5.301,-5.3645,-5.4434,-5.4876,-5.5068,-5.5107,-5.553,-5.5703,-5.5703,-5.5703,-5.5703,-5.5703,-5.1269,-5.0058,-4.8906,-4.8906,-4.7262,-4.6025,-4.6337,-4.7492,-4.8487,-4.8907,-5.0274,-5.1244,-5.1386,-5.1406,-5.1406,-5.1406,-5.1543,-5.1992,-5.2871,-5.373,-5.4609,-5.5488,-5.6211,-5.6601,-5.6601,-5.5742,-5.459,-5.3144,-5.2266,-5.2207,-5.293,-5.293,-5.3301,-5.4004,-5.4004,-5.3594,-5.291,-5.2754,-5.2285,-5.1601,-5.133,-5.1236,-5.123,-5.1148,-5.1135,-5.1261,-5.2183,-5.268,-5.3007,-5.3587,-5.3214,-5.275,-5.4064,-5.3972,-5.3375,-5.3279,-5.2894,-5.2308,-5.1466,-5.1319,-5.1406,-5.1406,-5.1406,-5.1406,-5.1406,-5.1406,-5.1406,-5.1406,-5.1406,-5.1406,-5.1406,-5.1406,-5.1406,-5.1406,-5.1406,-5.1406,-5.1406,-5.1406,-5.1406,-5.1406,-5.1406,-5.1365,-5.1242,-5.1208,-5.1128,-5.0966,-5.1042,-5.1004,-5.0773,-5.0871,-5.0871,-5.074,-5.073,-5.0712,-5.0712,-5.0712,-5.0712,-5.0712,-5.0846,-5.0827,-5.0712,-5.1,-5.1895,-5.3222,-5.351,-5.4414,-5.5703,-5.5703,-5.5703,-5.5703,-5.5703,-5.5703,-5.5703,-5.5703,-5.5703,-5.5703,-5.1387,-5.0058,-4.8906,-4.8906,-4.7327,-4.6584,-4.8084,-4.8402,-4.9039,-5.0636,-5.1043,-5.1244,-5.1386,-5.1406,-5.1406,-5.1406,-5.209,-5.2891,-5.3769,-5.4648,-5.5508,-5.6387,-5.6543,-5.6601,-5.6601,-5.5742,-5.5176,-5.4941,-5.4082,-5.3711,-5.3828,-5.3828,-5.3887,-5.4004,-5.4004,-5.3926,-5.3769,-5.3027,-5.2637,-5.2461,-5.1679,-5.1366,-5.1365,-5.1232,-5.126,-5.146,-5.2234,-5.3071,-5.3806,-5.3662,-5.3541,-5.3441,-5.3536,-5.3495,-5.3303,-5.2765,-5.2561,-5.2338,-5.1577,-5.1386,-5.1406,-5.1406,-5.1406,-5.1406,-5.1406,-5.1406,-5.1406,-5.1406,-5.1406,-5.1406,-5.1406,-5.1406,-5.1406,-5.1406,-5.1406,-5.1406,-5.1406,-5.1406,-5.1406,-5.1406,-5.1406,-5.1387,-5.1366,-5.1268,-5.1196,-5.1154,-5.1124,-5.1074,-5.1056,-5.1053,-5.1016,-5.0879,-5.0871,-5.0822,-5.0693,-5.0712,-5.0712,-5.0712,-5.1414,-5.1375,-5.075,-5.2202,-5.2991,-5.328,-5.4722,-5.5491,-5.5703,-5.5703,-5.5703,-5.5703,-5.5703,-5.5703,-5.5703,-5.5703,-5.5703,-5.5703,-5.1406,-5.0058,-4.8906,-4.8906,-4.7351,-4.6518,-4.7786,-4.8349,-4.9064,-5.0364,-5.0995,-5.1323,-5.1387,-5.1406,-5.1601,-5.207,-5.248,-5.3281,-5.4648,-5.5098,-5.5683,-5.6562,-5.6601,-5.6601,-5.6601,-5.6211,-5.6035,-5.6035,-5.4668,-5.4258,-5.4726,-5.4726,-5.498,-5.5449,-5.5449,-5.5176,-5.4668,-5.3808,-5.3144,-5.2617,-5.1758,-5.1406,-5.1387,-5.1323,-5.1344,-5.1562,-5.2866,-5.3611,-5.4042,-5.4348,-5.4106,-5.3697,-5.3538,-5.3238,-5.2835,-5.2578,-5.2214,-5.1807,-5.1484,-5.1406,-5.1406,-5.1406,-5.1406,-5.1406,-5.1406,-5.1406,-5.1406,-5.1406,-5.1406,-5.1406,-5.1406,-5.1406,-5.1406,-5.1406,-5.1406,-5.1406,-5.1406,-5.1406,-5.1406,-5.1406,-5.1406,-5.1406,-5.1406,-5.1344,-5.1273,-5.1206,-5.1247,-5.1216,-5.1118,-5.1137,-5.1069,-5.0916,-5.0908,-5.0827,-5.0693,-5.0712,-5.0712,-5.0712,-5.1529,-5.1712,-5.1414,-5.2645,-5.3472,-5.3972,-5.4703,-5.528,-5.5703,-5.5703,-5.5703,-5.5703,-5.5703,-5.5703,-5.5703,-5.5703,-5.5703,-5.5703]},{"header":{"parameterUnit":"m.s-1","parameterCategory":1,"la1":30.6,"la2":28.766,"lo1":-90.7593,"lo2":-88.6598,"dx":0.0162,"dy":0.0183,"nx":116,"ny":114,"refTime":"2022-12-05T18:00:00:Z","depth":0,"parameterNumber":3,"parameterNumberName":"V-component_of_WINDS"},"data":[0.0,0.0,0.0,0.0,0.0,0.0,0.0,0.0,0.0,0.0,0.0,0.0,0.0,0.0,0.0,0.0,0.0,0.0,0.0,0.0,0.0,0.0,0.0,0.0,0.0,0.0,0.0,0.0,0.0,0.0,0.0,0.0,0.0,0.0,0.0,0.0,0.0,0.0,0.0,0.0,0.0,0.0,0.0,0.0,0.0,0.0,0.0,0.0,0.0,0.0,0.0,0.0,0.0,0.0,0.0,0.0,0.0,0.0,0.0,0.0,0.0,0.0,0.0,0.0,0.0,0.0,0.0,0.0,0.0,0.0,0.0,0.0,0.0,0.0,0.0,0.0,0.0,0.0,0.0,0.0,0.0,0.0,0.0,0.0,0.0,0.0,0.0,0.0,0.0,0.0,0.0,0.0,0.0,0.0,0.0,0.0,0.0,0.0,0.0,0.0,0.0,0.0,0.0,0.0,0.0,0.0,0.0,0.0,0.0,0.0,0.0,0.0,0.0,0.0,0.0,0.0,0.0,0.0,0.0,0.0,0.0,0.0,0.0,0.0,0.0,0.0,0.0,0.0,0.0,0.0,0.0,0.0,0.0,0.0,0.0,0.0,0.0,0.0,0.0,0.0,0.0,0.0,0.0,0.0,0.0,0.0,0.0,0.0,0.0,0.0,0.0,0.0,0.0,0.0,0.0,0.0,0.0,0.0,0.0,0.0,0.0,0.0,0.0,0.0,0.0,0.0,0.0,0.0,0.0,0.0,0.0,0.0,0.0,0.0,0.0,0.0,0.0,0.0,0.0,0.0,0.0,0.0,0.0,0.0,0.0,0.0,0.0,0.0,0.0,0.0,0.0,0.0,0.0,0.0,0.0,0.0,0.0,0.0,0.0,0.0,0.0,0.0,0.0,0.0,0.0,0.0,0.0,0.0,0.0,0.0,0.0,0.0,0.0,0.0,0.0,0.0,0.0,0.0,0.0,0.0,0.0,0.0,0.0,0.0,0.0,0.0,0.0,0.0,0.0,0.0,0.0,0.0,0.0,0.0,0.0,0.0,0.0,0.0,0.0,0.0,0.0,0.0,0.0,0.0,0.0,0.0,0.0,0.0,0.0,0.0,0.0,0.0,0.0,0.0,0.0,0.0,0.0,0.0,0.0,0.0,0.0,0.0,0.0,0.0,0.0,0.0,0.0,0.0,0.0,0.0,0.0,0.0,0.0,0.0,0.0,0.0,0.0,0.0,0.0,0.0,0.0,0.0,0.0,0.0,0.0,0.0,0.0,0.0,0.0,0.0,0.0,0.0,0.0,0.0,0.0,0.0,0.0,0.0,0.0,0.0,0.0,0.0,0.0,0.0,0.0,0.0,0.0,0.0,0.0,0.0,0.0,0.0,0.0,0.0,0.0,0.0,0.0,0.0,0.0,0.0,0.0,0.0,0.0,0.0,0.0,0.0,0.0,0.0,0.0,0.0,0.0,0.0,0.0,0.0,0.0,0.0,0.0,0.0,0.0,0.0,0.0,0.0,0.0,0.0,0.0,0.0,0.0,0.0,0.0,0.0,0.0,0.0,0.0,0.0,0.0,0.0,0.0,0.0,0.0,0.0,0.0,0.0,0.0,0.0,0.0,0.0,0.0,0.0,0.0,0.0,0.0,0.0,0.0,0.0,0.0,0.0,0.0,0.0,0.0,0.0,0.0,0.0,0.0,0.0,0.0,0.0,0.0,0.0,0.0,0.0,0.0,0.0,0.0,0.0,0.0,0.0,0.0,0.0,0.0,0.0,0.0,0.0,0.0,0.0,0.0,0.0,0.0,0.0,0.0,0.0,0.0,0.0,0.0,0.0,0.0,0.0,0.0,0.0,0.0,0.0,0.0,0.0,0.0,0.0,0.0,0.0,0.0,0.0,0.0,0.0,0.0,0.0,0.0,0.0,0.0,0.0,0.0,0.0,0.0,0.0,0.0,0.0,0.0,0.0,0.0,0.0,0.0,0.0,0.0,0.0,0.0,0.0,0.0,0.0,0.0,0.0,0.0,0.0,0.0,0.0,0.0,0.0,0.0,0.0,0.0,0.0,0.0,0.0,0.0,0.0,0.0,0.0,0.0,0.0,0.0,0.0,0.0,0.0,0.0,0.0,0.0,0.0,0.0,0.0,0.0,0.0,0.0,0.0,0.0,0.0,0.0,0.0,0.0,0.0,0.0,0.0,0.0,0.0,0.0,0.0,0.0,0.0,0.0,0.0,0.0,0.0,0.0,0.0,0.0,0.0,0.0,0.0,0.0,0.0,0.0,0.0,0.0,0.0,0.0,0.0,0.0,0.0,0.0,0.0,0.0,0.0,0.0,0.0,0.0,0.0,0.0,0.0,0.0,0.0,0.0,0.0,0.0,0.0,0.0,0.0,0.0,0.0,0.0,0.0,0.0,0.0,0.0,0.0,0.0,0.0,0.0,0.0,0.0,0.0,0.0,0.0,0.0,0.0,0.0,0.0,0.0,0.0,0.0,0.0,0.0,0.0,0.0,0.0,0.0,0.0,0.0,0.0,0.0,0.0,0.0,0.0,0.0,0.0,0.0,0.0,0.0,0.0,0.0,0.0,0.0,0.0,0.0,0.0,0.0,0.0,0.0,0.0,0.0,0.0,0.0,0.0,0.0,0.0,0.0,0.0,0.0,0.0,0.0,0.0,0.0,0.0,0.0,0.0,0.0,0.0,0.0,0.0,0.0,0.0,0.0,0.0,0.0,0.0,0.0,0.0,0.0,0.0,0.0,0.0,0.0,0.0,0.0,0.0,0.0,0.0,0.0,0.0,0.0,0.0,0.0,0.0,0.0,0.0,0.0,0.0,0.0,0.0,0.0,0.0,0.0,0.0,0.0,0.0,0.0,0.0,0.0,0.0,0.0,0.0,0.0,0.0,0.0,0.0,0.0,0.0,0.0,0.0,0.0,0.0,0.0,0.0,0.0,0.0,0.0,0.0,0.0,0.0,0.0,0.0,0.0,0.0,0.0,0.0,0.0,0.0,0.0,0.0,0.0,0.0,0.0,0.0,0.0,0.0,0.0,0.0,0.0,0.0,0.0,0.0,0.0,0.0,0.0,0.0,0.0,0.0,0.0,0.0,0.0,0.0,0.0,0.0,0.0,0.0,0.0,0.0,0.0,0.0,0.0,0.0,0.0,0.0,0.0,0.0,0.0,0.0,0.0,0.0,0.0,0.0,0.0,0.0,0.0,0.0,0.0,0.0,0.0,0.0,0.0,0.0,0.0,0.0,0.0,0.0,0.0,0.0,0.0,0.0,0.0,0.0,0.0,0.0,0.0,0.0,0.0,0.0,0.0,0.0,0.0,0.0,0.0,0.0,0.0,0.0,0.0,0.0,0.0,0.0,0.0,0.0,0.0,0.0,0.0,0.0,0.0,0.0,0.0,0.0,0.0,0.0,0.0,0.0,0.0,0.0,0.0,0.0,0.0,0.0,0.0,0.0,0.0,0.0,0.0,0.0,0.0,0.0,0.0,0.0,0.0,0.0,0.0,0.0,0.0,0.0,0.0,0.0,0.0,0.0,0.0,0.0,0.0,0.0,0.0,0.0,0.0,0.0,0.0,0.0,0.0,0.0,0.0,0.0,0.0,0.0,0.0,0.0,0.0,0.0,0.0,0.0,0.0,0.0,0.0,0.0,0.0,0.0,0.0,0.0,0.0,0.0,0.0,0.0,0.0,0.0,0.0,0.0,0.0,0.0,0.0,0.0,0.0,0.0,0.0,0.0,0.0,0.0,0.0,0.0,0.0,0.0,0.0,0.0,0.0,0.0,0.0,0.0,0.0,0.0,0.0,0.0,0.0,0.0,0.0,0.0,0.0,0.0,0.0,0.0,0.0,0.0,0.0,0.0,0.0,0.0,0.0,0.0,0.0,0.0,0.0,0.0,0.0,0.0,0.0,0.0,0.0,0.0,0.0,0.0,0.0,0.0,0.0,0.0,0.0,0.0,0.0,0.0,0.0,0.0,0.0,0.0,0.0,0.0,0.0,0.0,0.0,0.0,0.0,0.0,0.0,0.0,0.0,0.0,0.0,0.0,0.0,0.0,0.0,0.0,0.0,0.0,0.0,0.0,0.0,0.0,0.0,0.0,0.0,0.0,0.0,0.0,0.0,0.0,0.0,0.0,0.0,0.0,0.0,0.0,0.0,0.0,0.0,0.0,0.0,0.0,0.0,0.0,0.0,0.0,0.0,0.0,0.0,0.0,0.0,0.0,0.0,0.0,0.0,0.0,0.0,0.0,0.0,0.0,0.0,0.0,0.0,0.0,0.0,0.0,0.0,0.0,0.0,0.0,0.0,0.0,0.0,0.0,0.0,0.0,0.0,0.0,0.0,0.0,0.0,0.0,0.0,0.0,0.0,0.0,0.0,0.0,0.0,0.0,0.0,0.0,0.0,0.0,0.0,0.0,0.0,0.0,0.0,0.0,0.0,0.0,0.0,0.0,0.0,0.0,0.0,0.0,0.0,0.0,0.0,0.0,0.0,0.0,0.0,0.0,0.0,0.0,0.0,0.0,0.0,0.0,0.0,0.0,0.0,0.0,0.0,0.0,0.0,0.0,0.0,0.0,0.0,0.0,0.0,0.0,0.0,0.0,0.0,0.0,0.0,0.0,0.0,0.0,0.0,0.0,0.0,0.0,0.0,0.0,0.0,0.0,0.0,0.0,0.0,0.0,0.0,0.0,0.0,0.0,0.0,0.0,0.0,0.0,0.0,0.0,0.0,0.0,0.0,0.0,0.0,0.0,0.0,0.0,0.0,0.0,0.0,0.0,0.0,0.0,0.0,0.0,0.0,0.0,0.0,0.0,0.0,0.0,0.0,0.0,0.0,0.0,0.0,0.0,0.0,0.0,0.0,0.0,0.0,0.0,0.0,0.0,0.0,0.0,0.0,0.0,0.0,0.0,0.0,0.0,0.0,0.0,0.0,0.0,0.0,0.0,0.0,0.0,0.0,0.0,0.0,0.0,0.0,0.0,0.0,0.0,0.0,0.0,0.0,0.0,0.0,0.0,0.0,0.0,0.0,0.0,0.0,0.0,0.0,0.0,0.0,0.0,0.0,0.0,0.0,0.0,0.0,0.0,0.0,0.0,0.0,0.0,0.0,0.0,0.0,0.0,0.0,0.0,0.0,0.0,0.0,0.0,0.0,0.0,0.0,0.0,0.0,0.0,0.0,0.0,0.0,0.0,0.0,0.0,0.0,0.0,0.0,0.0,0.0,0.0,0.0,0.0,0.0,0.0,0.0,0.0,0.0,0.0,0.0,0.0,0.0,0.0,0.0,0.0,0.0,0.0,0.0,0.0,0.0,0.0,0.0,0.0,0.0,0.0,0.0,0.0,0.0,0.0,0.0,0.0,0.0,0.0,0.0,0.0,0.0,0.0,0.0,0.0,0.0,0.0,0.0,0.0,0.0,0.0,0.0,0.0,0.0,0.0,0.0,0.0,0.0,0.0,0.0,0.0,0.0,0.0,0.0,0.0,0.0,0.0,0.0,0.0,0.0,0.0,0.0,0.0,0.0,0.0,0.0,0.0,0.0,0.0,0.0,0.0,0.0,0.0,0.0,0.0,0.0,0.0,0.0,0.0,0.0,0.0,0.0,0.0,0.0,0.0,0.0,0.0,0.0,0.0,0.0,0.0,0.0,0.0,0.0,0.0,0.0,0.0,0.0,0.0,0.0,0.0,0.0,0.0,0.0,0.0,0.0,0.0,0.0,0.0,0.0,0.0,0.0,0.0,0.0,0.0,0.0,0.0,0.0,0.0,0.0,0.0,0.0,0.0,0.0,0.0,0.0,0.0,0.0,0.0,0.0,0.0,0.0,0.0,0.0,0.0,0.0,0.0,0.0,0.0,0.0,0.0,0.0,0.0,0.0,0.0,0.0,0.0,0.0,0.0,0.0,0.0,0.0,0.0,0.0,0.0,0.0,0.0,0.0,0.0,0.0,0.0,0.0,0.0,0.0,0.0,0.0,0.0,0.0,0.0,0.0,0.0,0.0,0.0,0.0,0.0,0.0,0.0,0.0,0.0,0.0,0.0,0.0,0.0,0.0,0.0,0.0,0.0,0.0,0.0,0.0,0.0,-0.5524,0.0,0.0,0.0,0.0,0.0,0.0,0.0,0.0,0.0,0.0,0.0,0.0,0.0,0.0,0.0,0.0,0.0,0.0,0.0,0.0,0.0,0.0,0.0,0.0,-0.1452,-0.1675,-0.1675,-0.2676,0.0,0.0,0.0,0.0,0.0,0.0,0.0,0.0,0.0,-0.0829,-0.0463,-0.0141,0.0266,0.0754,0.0772,0.0483,0.0,0.0,0.0,0.0,0.0,0.0,0.0,0.0,0.0,0.0,0.0,0.0,0.0,0.0,0.0,0.0,0.0,0.0,0.0,0.0,0.0,0.0,0.0,0.0,0.0,0.0,0.0,0.0,0.0,0.0,0.0,0.0,0.0,0.0,0.0,0.0,0.0,0.0,0.0,0.0,0.0,0.0,0.0,0.0,0.0,0.0,0.0,0.0,0.0,0.0,0.0,0.0,0.0,0.0,0.0,0.0,0.0,0.0,0.0,0.0,0.0,0.0,0.0,0.0,0.0,0.0,0.0,0.0,0.0,0.0,0.0,0.0,-0.4734,0.0,0.0,0.0,0.0,0.0,0.0,0.0,0.0,0.0,0.0,0.0,0.0,0.0,0.0,0.0,0.0,0.0,0.0,0.0,0.0,0.0,-0.0781,-0.0084,-0.0532,-0.0895,-0.0895,-0.2148,-0.2982,-0.3093,-0.3873,0.0,0.0,0.0,0.0,0.0,-0.1284,-0.0599,0.0,0.0,0.0554,0.1598,0.1598,0.1229,0.0539,0.0358,0.0,0.0,0.0,0.0,0.0,0.0,0.0,0.0,0.0,0.0,0.0,0.0,0.0,0.0,0.0,0.0,0.0,0.0,0.0,0.0,0.0,0.0,0.0,0.0,0.0,0.0,0.0,0.0,0.0,0.0,0.0,0.0,0.0,0.0,0.0,0.0,0.0,0.0,0.0,0.0,0.0,0.0,0.0,0.0,0.0,0.0,0.0,0.0,0.0,0.0,0.0,0.0,0.0,0.0,0.0,0.0,0.0,0.0,0.0,0.0,0.0,0.0,0.0,-0.3828,-0.3742,-0.3542,-0.2817,-0.2474,-0.2392,-0.2172,-0.2876,-0.4218,-0.3939,0.0,0.0,0.0,0.0,0.0,0.0,0.0,0.0,0.0,0.0,0.0,0.0,0.0,0.0,0.0,0.0,0.0,0.0,0.0,-0.0701,-0.0056,-0.0084,-0.014,-0.014,-0.0895,-0.1675,-0.2313,-0.3093,0.0,0.0,0.0,0.0,-0.1257,-0.0532,-0.0087,0.0,0.0,0.0537,0.1584,0.1584,0.2007,0.2664,0.1782,0.1378,0.134,0.0,0.0,0.0,0.0,0.0,0.0,0.0,0.0,0.0,0.0,0.0,0.0,0.0,0.0,0.0,0.0,0.0,0.0,0.0,0.0,0.0,0.0,0.0,0.0,0.0,0.0,0.0,0.0,0.0,0.0,0.0,0.0,0.0,0.0,0.0,0.0,0.0,0.0,0.0,0.0,0.0,-0.1731,-0.2894,0.0,0.0,0.0,0.0,0.0,0.0,0.0,0.0,0.0,0.0,0.0,0.0,0.0,-0.2889,-0.2954,-0.3001,-0.3057,-0.3048,-0.3147,-0.2774,-0.1894,-0.1817,-0.1246,-0.0377,-0.0331,0.0,-0.3124,-0.3066,0.0,0.0,0.0,0.0,0.0,0.0,0.0,0.0,0.0,0.0,0.0,0.0,0.0,0.0,0.0,0.0,0.0,0.0,0.0,0.0,0.0,0.0,0.0,0.0,-0.068,-0.1406,-0.2155,-0.2523,0.0,0.0,0.0,-0.1424,-0.1118,-0.0378,0.0,0.0,0.0614,0.1421,0.2462,0.3066,0.39,0.4844,0.3808,0.3015,0.2409,0.1927,0.0,0.0,0.0,0.0,0.0,0.0,0.0,0.0,0.0,0.0,0.0,0.0,0.0,0.0,0.0,0.0,0.0,0.0,0.0,0.0,0.0,0.0,0.0,0.0,0.0,0.0,0.0,0.0,0.0,0.0,0.0,0.0,0.0,0.0,0.0,0.0,0.0,0.0,0.0,-0.0735,-0.1475,-0.1951,-0.2755,-0.3466,0.0,0.0,0.0,0.0,0.0,0.0,0.0,0.0,0.0,-0.2817,-0.222,-0.1984,-0.209,-0.2773,-0.3142,-0.3174,-0.3899,-0.4004,-0.3537,-0.2987,-0.245,-0.2,-0.1307,-0.1516,-0.2265,-0.2058,-0.2307,-0.2855,0.0,0.0,0.0,0.0,-0.2963,-0.2677,0.0,0.0,0.0,0.0,0.0,0.0,0.0,0.0,0.0,0.0,0.0,0.0,0.0,0.0,0.0,0.0,-0.0493,-0.1128,-0.1872,-0.209,-0.2347,-0.2713,-0.1878,-0.1202,-0.0838,-0.0273,0.0133,0.0401,0.1202,0.2267,0.3513,0.4334,0.5276,0.6261,0.5473,0.4502,0.3487,0.32,0.2674,0.196,0.0,0.0,0.0,0.0,0.0,0.0,0.0,0.0,0.0,0.0,0.0,0.0,0.0,0.0,0.0,0.0,0.0,0.0,0.0,0.0,0.0,0.0,0.0,0.0,0.0,0.0,0.0,0.0,0.0,0.0,0.0,0.0,0.0,0.0,0.0,0.0,0.0,-0.0553,-0.1081,-0.1352,-0.1959,-0.2466,0.0,0.0,0.0,0.0,0.0,0.0,-0.2354,-0.2131,-0.2043,-0.2172,-0.1384,-0.1208,-0.1637,-0.2493,-0.3109,-0.3465,-0.4305,-0.4737,-0.4706,-0.3926,-0.3608,-0.357,-0.2637,-0.2102,-0.1739,-0.1191,-0.1448,-0.2162,-0.2286,-0.2261,-0.2158,-0.2304,-0.2162,-0.1924,0.0,0.0,0.0,0.0,0.0,0.0,0.0,0.0,0.0,0.0,0.0,0.0,0.0,0.0,0.0,0.0,-0.0031,-0.037,-0.1106,-0.1819,-0.1904,-0.123,-0.1816,-0.148,-0.0084,-0.0032,0.0483,0.1527,0.1567,0.2618,0.4608,0.4686,0.5276,0.63,0.6261,0.5616,0.4563,0.3544,0.3071,0.2929,0.1997,0.0,0.0,0.0,0.0,0.0,0.0,0.0,0.0,0.0,0.0,0.0,0.0,0.0,0.0,0.0,0.0,0.0,0.0,0.0,0.0,0.0,0.0,0.0,0.0,0.0,0.0,0.0,0.0,0.0,0.0,0.0,0.0,0.0,0.0,0.0,0.0,0.0,0.0,-0.1467,-0.1467,0.0,0.0,0.0,0.0,-0.27,-0.1881,-0.1385,-0.1369,-0.0566,-0.0123,-0.0126,-0.0084,-0.0629,-0.18,-0.1843,-0.2457,-0.3588,-0.3633,-0.3671,-0.3653,-0.3609,-0.3611,-0.3614,-0.3525,-0.2858,-0.17,-0.0537,-0.0087,-0.021,-0.1048,-0.1286,-0.1177,-0.1314,-0.1294,-0.1057,0.0,0.0,0.0,-0.4491,-0.4491,-0.4491,-0.4491,-0.3204,-0.2202,-0.2202,-0.0921,0.0,0.0,0.0,0.0,0.0,0.0,-0.0324,-0.1047,-0.0894,-0.0886,-0.1091,-0.0909,-0.0526,0.0,0.0,0.0509,0.1603,0.225,0.3281,0.4727,0.5395,0.5944,0.63,0.63,0.6103,0.5702,0.5337,0.475,0.4085,0.3726,0.2794,0.0,0.0,0.0,0.0,0.0,0.0,0.0,0.0,0.0,0.0,0.0,0.0,0.0,0.0,0.0,0.0,0.0,0.0,0.0,0.0,0.0,0.0,0.0,0.0,0.0,0.0,0.0,0.0,0.0,0.0,0.0,0.0,0.0,0.0,0.0,0.0,0.0,-0.0518,-0.0494,0.0,-0.1009,-0.0998,-0.0981,-0.095,-0.0643,-0.0449,-0.0457,-0.0166,0.0,0.0,-0.0767,-0.1371,-0.1799,-0.3339,-0.4339,-0.477,-0.5517,-0.5849,-0.5844,-0.5844,-0.5844,-0.5797,-0.5087,-0.4063,-0.2858,-0.1657,-0.0711,-0.0044,-0.0351,-0.0908,-0.1567,-0.1592,-0.1601,-0.1518,0.0,0.0,0.0,-0.4491,-0.4491,-0.4491,-0.4491,-0.34,-0.2491,-0.2237,-0.114,-0.0272,-0.0031,0.0,0.0,0.0,0.0,-0.0201,-0.0688,-0.0509,-0.0472,-0.073,-0.0249,0.0,0.0,0.0,0.0709,0.2113,0.2773,0.3826,0.5237,0.5983,0.63,0.63,0.63,0.63,0.63,0.63,0.5873,0.52,0.4854,0.3859,0.2601,0.0,0.0,0.0,0.0,0.0,0.0,0.0,0.0,0.0,0.0,0.0,0.0,0.0,0.0,0.0,0.0,0.0,0.0,0.0,0.0,0.0,0.0,0.0,0.0,0.0,0.0,0.0,0.0,0.0,0.0,0.0,0.0,0.0,0.0,0.0,0.0,0.0,0.0,0.0,0.0,0.0,0.0,0.0,0.0,0.0,0.0,0.0,-0.0172,-0.0602,-0.1393,-0.219,-0.302,-0.4612,-0.5581,-0.5983,-0.6738,-0.7095,-0.7095,-0.7095,-0.7095,-0.7051,-0.6293,-0.5309,-0.415,-0.335,-0.2281,-0.1121,-0.0314,-0.0494,-0.121,-0.121,-0.121,-0.121,0.0,0.0,-0.4491,-0.4491,-0.4491,-0.4491,-0.4491,-0.3818,-0.3046,-0.2305,-0.1568,-0.081,-0.0097,-0.0033,-0.0034,-0.0034,-0.0067,-0.0067,-0.0034,-0.072,-0.0763,-0.0031,0.0,0.0,0.0,0.0,0.1008,0.3046,0.3046,0.4139,0.6261,0.6261,0.6261,0.63,0.63,0.63,0.63,0.63,0.63,0.6195,0.5154,0.4718,0.4566,0.0,0.0,0.0,0.0,0.0,0.0,0.0,0.0,0.0,0.0,0.0,0.0,0.0,0.0,0.0,0.0,0.0,0.0,0.0,0.0,0.0,0.0,0.0,0.0,0.0,0.0,0.0,0.0,0.0,0.0,0.0,0.0,0.0,0.0,0.0,0.0,0.0,0.0,0.0,0.0,0.0,0.0,0.0,0.0,0.0,0.0,-0.0045,-0.0584,-0.1701,-0.1835,-0.304,-0.5314,-0.5403,-0.6027,-0.7095,-0.7095,-0.7095,-0.7095,-0.7095,-0.7095,-0.7095,-0.7095,-0.6473,-0.5403,-0.5403,-0.4688,-0.3349,-0.1031,-0.0135,-0.018,-0.018,-0.0135,-0.009,-0.4491,-0.4491,-0.4491,-0.4491,-0.4491,-0.4491,-0.4491,-0.3846,-0.3102,-0.2305,-0.1568,-0.081,-0.0097,-0.0562,-0.0939,-0.0939,-0.1575,-0.1676,-0.0973,-0.1122,-0.0888,-0.0033,0.0,0.0,0.0,0.0,0.0658,0.1996,0.1996,0.3088,0.5157,0.5157,0.555,0.63,0.63,0.63,0.63,0.63,0.63,0.6293,0.5975,0.5399,0.4665,0.0,0.0,0.0,0.0,0.0,0.0,0.0,0.0,0.0,0.0,0.0,0.0,0.0,0.0,0.0,0.0,0.0,0.0,0.0,0.0,0.0,0.0,0.0,0.0,0.0,0.0,0.0,0.0,0.0,0.0,0.0,0.0,0.0,0.0,0.0,0.0,0.0,0.0,0.0,0.0,0.0,0.0,0.0,0.0,0.0,0.0,-0.0807,-0.1076,-0.0494,-0.304,-0.4332,-0.4105,-0.58,-0.6786,-0.7095,-0.7095,-0.7095,-0.7095,-0.7095,-0.7095,-0.7095,-0.7095,-0.6473,-0.5403,-0.5403,-0.4688,-0.3525,-0.2858,-0.3127,-0.3933,-0.3933,-0.3352,-0.2503,-0.4491,-0.4491,-0.4491,-0.4491,-0.4491,-0.4491,-0.4491,-0.4125,-0.3601,-0.2882,-0.2401,-0.1875,-0.1207,-0.1594,-0.1876,-0.1876,-0.2437,-0.2363,-0.1353,-0.0959,-0.0516,-0.0034,0.0,0.0,0.0,0.0,0.051,0.1607,0.1607,0.2426,0.4021,0.4021,0.4373,0.496,0.496,0.5198,0.5628,0.5628,0.5906,0.63,0.63,0.5921,0.5349,0.5289,0.4847,0.4286,0.4191,0.4157,0.4159,0.418,0.0,0.0,0.0,0.0,0.0,0.0,0.0,0.0,0.0,0.0,0.0,0.0,0.0,0.0,0.0,0.0,0.0,0.0,0.0,0.0,0.0,0.0,0.0,0.0,0.0,0.0,0.0,0.0,0.0,0.0,0.0,0.0,0.0,0.0,0.0,0.0,0.0,0.0,0.0,-0.1165,-0.1701,-0.1522,-0.402,-0.5312,-0.5082,-0.6425,-0.7095,-0.7095,-0.7095,-0.7095,-0.7095,-0.7095,-0.7095,-0.7095,-0.7095,-0.6738,-0.6115,-0.6115,-0.5711,0.0,0.0,0.0,0.0,0.0,-0.4194,-0.3481,-0.4519,-0.457,-0.4598,-0.4519,-0.4491,-0.4491,-0.4491,-0.4505,-0.4301,-0.3689,-0.3605,-0.3373,-0.2762,-0.2778,-0.2845,-0.2845,-0.3063,-0.2749,-0.1573,-0.0558,0.0,0.0,0.0,0.0,0.0,0.0,0.0471,0.1411,0.1411,0.1957,0.2929,0.2929,0.3007,0.3085,0.3085,0.3632,0.453,0.453,0.5157,0.6103,0.6103,0.6183,0.6286,0.6108,0.602,0.602,0.5759,0.5667,0.565,0.5579,0.0,0.0,0.0,0.0,0.0,0.0,0.0,0.0,0.0,0.0,0.0,0.0,0.0,0.0,0.0,0.0,0.0,0.0,0.0,0.0,0.0,0.0,0.0,0.0,0.0,0.0,0.0,0.0,0.0,0.0,0.0,0.0,0.0,0.0,0.0,0.0,0.0,0.0,0.0,0.0,0.0,0.0,0.0,-0.6027,-0.6915,-0.7068,-0.7112,-0.7095,-0.7112,-0.7112,-0.7095,-0.7112,-0.7122,-0.7122,-0.7122,-0.7122,-0.7122,-0.7102,-0.7095,-0.6871,-0.4816,-0.4014,-0.4014,-0.4014,-0.3927,-0.3794,-0.465,-0.4921,-0.5136,-0.4598,-0.4491,-0.4491,-0.4491,-0.4597,-0.4416,-0.3699,-0.3698,-0.3478,-0.2767,-0.3311,-0.3747,-0.3747,-0.4656,-0.4514,-0.2878,-0.1016,0.0,0.0,0.0,0.0,0.0,0.0,0.0118,0.0314,0.0314,0.0863,0.188,0.188,0.2308,0.3085,0.3085,0.3202,0.3396,0.3396,0.4021,0.5002,0.5002,0.5512,0.6296,0.6265,0.6255,0.6248,0.619,0.617,0.6201,0.6373,0.5691,0.4781,0.4849,0.345,0.0,0.0,0.0,0.0,0.0,0.0,0.0,0.0,0.0,0.0,0.0,0.0,0.0,0.0,0.0,0.0,0.0,0.0,0.0,0.0,0.0,0.0,0.0,0.0,0.0,0.0,0.0,0.0,0.0,0.0,0.0,0.0,0.0,0.0,0.0,-0.2057,-0.2903,-0.2191,-0.5176,-0.6428,-0.5714,-0.6812,-0.7265,-0.7098,0.0,0.0,-0.7098,-0.7272,-0.7326,-0.7326,-0.7326,-0.7326,-0.7316,-0.7146,-0.7095,-0.7051,-0.6602,-0.6425,-0.6425,-0.6425,-0.5847,-0.5045,-0.5942,-0.577,-0.5485,-0.4639,-0.4491,-0.4491,-0.4491,-0.4621,-0.4595,-0.4284,-0.4378,-0.4341,-0.4069,-0.4361,-0.4552,-0.4552,-0.4773,-0.4343,-0.308,-0.1618,-0.0557,-0.0037,0.0,0.0,0.0,0.0,0.0,0.0,0.0,0.0275,0.0784,0.0784,0.1058,0.1565,0.1565,0.1839,0.2347,0.2347,0.3242,0.4688,0.4688,0.5354,0.63,0.63,0.63,0.63,0.63,0.6344,0.6429,0.6536,0.6252,0.5727,0.5358,0.4039,0.2497,0.0,0.0,0.0,0.0,0.0,0.0,0.0,0.0,0.0,0.0,0.0,0.0,0.0,0.0,0.0,0.0,0.0,0.0723,0.0088,0.049,0.0675,0.0091,0.0,0.0,0.0,0.0,0.0,0.0,0.0,0.0,0.0,0.0,0.0,0.0,-0.2352,-0.3408,-0.2812,-0.5753,-0.7093,-0.6496,-0.7168,-0.7448,-0.7373,-0.7448,-0.7444,-0.7373,-0.7451,-0.7485,-0.7485,-0.6777,-0.6829,-0.7405,-0.7204,-0.7095,-0.7095,-0.7095,-0.7095,-0.7095,-0.7095,-0.6738,-0.6248,-0.751,-0.6942,-0.6131,-0.4947,-0.4643,-0.4569,-0.4539,-0.4665,-0.4779,-0.4874,-0.5012,-0.5189,-0.5378,-0.5223,-0.5123,-0.5184,-0.4467,-0.3684,-0.297,-0.2102,-0.1118,-0.0038,0.0,0.0,0.0,0.0,0.0,0.0,0.0,0.0,0.0,0.0,0.0,0.0,0.0,0.0471,0.1293,0.1293,0.2503,0.4375,0.4375,0.5157,0.63,0.63,0.63,0.63,0.63,0.6392,0.6518,0.6549,0.6491,0.6238,0.5415,0.4198,0.2908,0.2035,0.0936,0.0,0.0,0.0,0.0,0.0,0.0,0.0,0.0,0.0,-0.229,-0.1605,-0.0663,0.0,0.0,0.0786,0.1144,0.018,0.0823,0.111,0.0139,0.0,0.0,0.0,0.0,0.0,0.0,0.0,0.0,0.0,0.0,-0.0094,-0.0381,-0.2565,-0.394,-0.4175,-0.6408,-0.76,-0.76,-0.7628,-0.7628,-0.76,-0.7628,-0.7628,-0.76,-0.7628,-0.7641,-0.7594,-0.6484,-0.654,-0.7409,-0.7238,-0.7122,-0.7095,-0.7095,-0.7095,-0.7095,-0.7095,-0.7095,-0.7095,-0.8692,-0.8539,-0.7748,-0.5973,-0.5214,-0.4823,-0.4684,-0.4796,-0.487,-0.4887,-0.5012,-0.5189,-0.5378,-0.5223,-0.5208,-0.5515,-0.4597,-0.3752,-0.3123,-0.2135,-0.1129,-0.0039,0.0,0.0,0.0,0.0,0.0,0.0,0.0,0.0,0.0,0.0,0.0,0.0,0.0,0.0079,0.0196,0.0196,0.137,0.3279,0.3279,0.4491,0.63,0.63,0.63,0.63,0.63,0.6392,0.6532,0.6627,0.605,0.5271,0.5331,0.3815,0.1953,0.1856,0.0961,0.0,0.0,0.0,0.0,0.0,-0.0168,-0.0339,0.0,0.0,-0.0303,-0.0221,-0.0089,0.0,0.0,0.009,0.0135,0.0,0.0092,0.014,0.0,0.0,0.0,0.0,0.0,0.0,0.0,0.0,0.0,0.0,0.0,-0.0523,-0.1714,-0.3041,-0.4366,-0.5546,-0.6882,-0.76,-0.76,-0.7726,-0.7726,-0.76,-0.7726,-0.7723,-0.7604,-0.7729,-0.7787,-0.7787,-0.7639,-0.7483,-0.7415,-0.7398,-0.7265,-0.7095,-0.7095,-0.7095,-0.7095,-0.7095,-0.7095,-0.7095,-0.8569,-0.7855,-0.7122,-0.6824,-0.6577,-0.6057,-0.4979,-0.5288,-0.5483,-0.4979,-0.4938,-0.5002,-0.5098,-0.5047,-0.5029,-0.5186,-0.5026,-0.4594,-0.3808,-0.354,-0.266,-0.102,-0.0941,-0.0628,0.0,0.0,0.0,0.0,0.0,0.0,0.0,0.0,0.0,0.0,0.0,0.0,0.0,0.0,0.0862,0.2268,0.2851,0.4021,0.5354,0.5354,0.5354,0.5362,0.5359,0.586,0.0,0.5102,0.4894,0.5033,0.4522,0.3189,0.1805,0.1784,0.0927,0.0,0.0,0.0,0.0,0.0,-0.1597,-0.2268,-0.298,-0.3125,-0.314,-0.3124,-0.2014,-0.1031,-0.1031,0.0091,0.0824,0.0,0.0566,0.0816,0.0097,0.0,0.0,0.0,0.0,0.0,0.0,0.0,0.0,0.0,0.0,-0.0584,-0.1917,-0.324,-0.4512,-0.5886,-0.7164,-0.7855,-0.7855,-0.7867,-0.7867,-0.7855,-0.7867,-0.7864,-0.7858,-0.7867,-0.7497,-0.6796,-0.7505,-0.7257,-0.6409,-0.7129,-0.7282,-0.7095,-0.7095,-0.7095,-0.7095,-0.7095,-0.7095,-0.7095,-0.8428,-0.7446,-0.68,-0.752,-0.7752,-0.734,-0.5789,-0.6104,-0.6177,-0.5277,-0.515,-0.5063,-0.4857,-0.4857,-0.4874,-0.4884,-0.5291,-0.5149,-0.4275,-0.4525,-0.3906,-0.2074,-0.1996,-0.1644,-0.0862,-0.0588,-0.0432,-0.0432,-0.0157,0.0,0.0,0.0,0.0,0.0,0.0,0.0,0.0,0.0,0.0628,0.1646,0.2386,0.332,0.4256,0.4256,0.424,0.4269,0.4251,0.4866,0.5402,0.3839,0.3692,0.4077,0.3338,0.2292,0.1297,0.1289,0.0666,0.0,0.0,0.0,0.0,-0.156,-0.2726,-0.3822,-0.4683,-0.49,-0.491,-0.491,-0.3261,-0.1793,-0.1804,-0.0091,0.102,0.0141,0.0722,0.0983,0.0099,0.0,0.0,0.0,0.0,-0.0145,-0.0532,-0.0241,-0.0145,-0.0543,-0.0198,-0.0746,-0.2463,-0.3465,-0.4768,-0.6481,-0.7487,-0.7988,-0.7988,-0.7988,-0.7988,-0.7988,-0.7988,-0.7988,-0.7988,-0.7988,-0.7484,-0.6575,-0.7475,-0.725,-0.6253,-0.7156,-0.738,-0.7207,-0.7206,-0.7169,-0.7102,-0.7142,-0.7132,-0.7095,-0.8685,-0.8082,-0.7568,-0.7911,-0.8421,-0.8423,-0.7379,-0.726,-0.6919,-0.5917,-0.578,-0.5497,-0.4784,-0.4697,-0.4758,-0.4877,-0.5196,-0.5046,-0.427,-0.4525,-0.4217,-0.3085,-0.3046,-0.3046,-0.3007,-0.2035,-0.1568,-0.1568,-0.051,0.0,0.0,0.0,0.0,0.0,0.0,0.0,0.0,0.0,0.0628,0.1607,0.1646,0.2229,0.3163,0.3163,0.3158,0.3145,0.314,0.3293,0.3469,0.3435,0.2749,0.1881,0.1882,0.1033,0.0043,0.0044,0.0045,0.0,0.0,0.0,-0.1734,-0.1777,-0.2726,-0.3614,-0.3655,-0.3657,-0.3659,-0.3659,-0.2681,-0.1802,-0.1792,-0.0785,0.0047,0.0,0.0049,0.0049,0.0,0.0,0.0,0.0,0.0,-0.0504,0.0,-0.0743,-0.0543,-0.1858,-0.0756,-0.1158,-0.3815,-0.3966,-0.522,-0.7839,-0.7988,-0.7988,-0.7988,-0.7988,-0.7988,-0.7988,-0.7988,-0.7988,-0.7988,-0.7988,-0.7988,-0.7939,-0.7985,-0.7897,-0.7752,-0.7752,-0.7628,-0.7422,-0.7529,-0.7404,-0.7112,-0.7309,-0.7272,-0.7095,-0.7901,-0.6958,-0.6493,-0.7785,-0.8153,-0.8463,-0.9053,-0.8104,-0.6968,-0.6054,-0.5519,0.0,0.0,0.0,0.0,0.0,-0.5338,-0.5454,-0.5281,-0.5467,-0.5146,-0.4215,-0.4178,-0.3826,-0.3124,-0.2773,-0.2579,-0.2579,-0.1567,-0.1058,-0.1058,-0.0314,0.0,0.0,0.0,0.0,0.0,0.0,0.0196,0.0588,0.1293,0.1819,0.2087,0.2117,0.2121,0.2019,0.0,0.1954,0.2991,0.1593,0.1371,0.153,0.0831,0.0319,0.0,0.0,0.0,-0.0179,-0.0978,-0.149,-0.2173,-0.3787,-0.4486,-0.4999,-0.5753,-0.5933,-0.5933,-0.5933,-0.4375,-0.3016,-0.299,-0.1368,0.0,0.0,0.0,0.0,0.0,0.0,0.0,0.0,0.0,0.0,0.0,0.0,0.0,-0.1912,-0.1561,-0.2113,-0.3915,-0.482,-0.6126,-0.7939,-0.7988,-0.7988,-0.7988,-0.7988,-0.7988,-0.7988,-0.7988,-0.7988,-0.7988,-0.7988,-0.7988,-0.7988,-0.7988,-0.7904,-0.7811,-0.7811,-0.7695,-0.7529,-0.758,-0.7475,-0.7299,-0.7398,-0.7275,-0.7095,-0.7161,-0.6448,-0.6325,-0.7805,-0.8205,0.0,0.0,0.0,0.0,0.0,0.0,0.0,0.0,0.0,0.0,0.0,0.0,-0.5569,-0.5718,-0.5918,-0.5767,-0.5201,-0.5166,-0.4857,-0.4162,-0.3707,-0.3568,-0.3669,-0.2599,-0.2145,-0.222,-0.1455,-0.1096,-0.1096,-0.1096,-0.0902,-0.0589,-0.0554,-0.036,0.004,0.0757,0.1047,0.1028,0.1025,0.1041,0.0,0.0237,0.0841,0.1787,0.0449,0.0451,0.0898,0.0228,0.0,0.0,0.0,0.0,-0.0267,-0.1475,-0.2115,-0.2917,-0.4886,-0.5714,-0.6204,-0.6918,-0.7095,-0.7112,-0.721,-0.5289,-0.3607,-0.366,-0.1637,0.0,0.0,0.0,0.0,0.0,0.0,0.0,0.0,0.0,-0.0857,0.0,0.0,0.0,-0.3267,-0.2565,-0.2815,-0.4618,-0.5072,-0.5877,-0.7235,-0.7285,-0.7285,-0.7285,-0.7736,-0.7988,-0.7988,-0.7988,-0.7988,-0.7988,-0.7988,-0.7988,-0.7988,-0.7988,-0.7934,-0.7892,-0.7892,-0.7807,-0.7682,-0.7736,-0.7597,-0.7426,-0.7434,-0.7322,-0.7095,-0.6588,-0.6585,-0.7036,0.0,0.0,0.0,0.0,0.0,0.0,0.0,0.0,0.0,0.0,0.0,0.0,0.0,0.0,0.0,-0.5579,-0.585,-0.5976,-0.5993,-0.5993,-0.5996,-0.6003,-0.4905,-0.4477,-0.4766,-0.3591,-0.3172,-0.3473,-0.3197,-0.3085,-0.3085,-0.3085,-0.2582,-0.1691,-0.1607,-0.1027,-0.0084,-0.0041,0.0,0.0,0.0,0.0,0.0,0.0,0.0,0.0,0.0,0.0,0.0,0.0,0.0,0.0,0.0,-0.0043,-0.035,-0.1558,-0.2776,-0.3966,-0.5201,-0.6293,-0.7095,-0.7095,-0.7102,-0.7149,-0.7249,-0.5349,-0.3645,0.0,0.0,0.0,0.0,0.0,0.0,0.0,0.0,0.0,0.0,0.0,0.0,0.0,0.0,0.0,-0.5677,0.0,-0.3268,-0.5677,-0.472,-0.467,-0.5879,-0.5879,-0.5929,-0.5979,-0.7335,-0.7988,-0.7988,-0.7988,-0.7988,-0.7988,-0.7988,-0.7988,-0.7988,-0.7988,-0.7988,-0.7988,-0.7988,-0.7904,-0.7838,-0.7934,-0.777,-0.7446,-0.7546,-0.7404,-0.7095,0.0,0.0,0.0,0.0,0.0,0.0,0.0,0.0,0.0,0.0,0.0,0.0,0.0,0.0,0.0,0.0,0.0,0.0,-0.5579,-0.5661,-0.58,-0.5983,-0.5993,-0.6084,-0.6238,-0.593,-0.5797,-0.5906,-0.4776,-0.4285,-0.4335,-0.3485,-0.3085,-0.3085,-0.3085,-0.3038,-0.2889,-0.1986,-0.1483,-0.1266,-0.036,0.0,0.0,0.0,0.0,0.0,0.0,0.0,0.0,0.0,0.0,0.0,0.0,0.0,0.0,0.0,-0.0656,-0.1601,-0.281,-0.4003,-0.5235,-0.6375,-0.6874,-0.7095,-0.7095,-0.7227,-0.7047,-0.6119,-0.4763,-0.343,0.0,0.0,0.0,0.0,0.0,0.0,0.0,0.0,0.0,0.0,0.0,-0.0504,-0.1862,-0.1109,0.0,0.0,-0.4822,-0.4422,-0.3067,-0.4572,-0.5172,-0.4518,-0.4518,-0.497,-0.5979,-0.7335,-0.7988,-0.7988,-0.7988,-0.7988,-0.7988,-0.7988,-0.7988,-0.7988,-0.7988,-0.7988,-0.7988,-0.7988,-0.7968,-0.7934,-0.7975,-0.7834,-0.7546,-0.7587,-0.7404,-0.7095,0.0,0.0,0.0,0.0,0.0,0.0,0.0,0.0,0.0,0.0,0.0,0.0,0.0,0.0,0.0,0.0,0.0,0.0,0.0,-0.5647,-0.5755,-0.5922,-0.5928,-0.5969,-0.6095,-0.5969,-0.6033,-0.63,-0.5491,-0.5246,-0.5553,-0.4706,-0.4334,-0.438,-0.438,-0.4183,-0.3847,-0.3206,-0.2496,0.0,0.0,-0.0404,0.0,0.0,0.0,0.0,0.0,0.0,0.0,0.0,0.0,0.0,0.0,0.0,-0.0086,-0.0649,0.0,-0.2191,-0.3929,-0.4865,-0.5669,-0.6827,-0.7095,-0.7095,-0.7095,-0.6805,-0.6325,-0.5634,-0.4115,0.0,0.0,0.0,0.0,0.0,0.0,0.0,0.0,0.0,0.0,0.0,0.0,0.0,-0.1058,-0.0958,-0.126,0.0,-0.3468,-0.3869,-0.2914,-0.3768,-0.3919,-0.3165,-0.3115,-0.4069,-0.5979,-0.7335,-0.7988,-0.7988,-0.7988,-0.7988,-0.7988,-0.7988,-0.7988,-0.7988,0.0,-0.7988,-0.7988,-0.7988,-0.7988,-0.7988,-0.7988,-0.7858,-0.76,-0.76,-0.7404,-0.7095,0.0,0.0,0.0,0.0,0.0,0.0,0.0,0.0,0.0,-0.5481,-0.545,-0.5477,0.0,0.0,0.0,0.0,0.0,0.0,0.0,0.0,-0.581,-0.583,-0.5813,-0.581,-0.583,-0.5593,-0.5709,-0.6238,-0.581,-0.5949,-0.6569,-0.6067,-0.5901,-0.5993,-0.6013,-0.5573,-0.4763,-0.4718,-0.3592,-0.1832,-0.1794,-0.1146,-0.0208,0.0,-0.0197,-0.0197,-0.004,0.0,0.0,0.0,0.0,0.0,0.0,-0.0127,-0.0437,-0.1481,-0.2029,-0.2727,-0.4823,-0.5492,-0.5849,-0.6874,-0.7095,-0.7102,-0.7122,-0.624,-0.5395,-0.5355,0.0,-0.1828,-0.1756,-0.0807,0.0,0.0,0.0,0.0,0.0,0.0,0.0,0.0,0.0,0.0,0.0,-0.1058,-0.126,-0.0101,-0.1058,-0.2264,-0.3416,-0.2514,-0.1913,-0.1762,-0.2063,-0.3367,-0.5727,-0.7235,-0.7988,-0.7988,-0.7988,-0.7988,-0.7988,-0.7988,-0.7988,-0.7988,-0.7988,-0.7988,-0.7988,-0.7988,-0.7988,-0.7988,-0.7988,-0.7858,-0.76,-0.76,-0.7404,-0.7095,0.0,0.0,0.0,0.0,0.0,0.0,0.0,0.0,0.0,0.0,-0.5701,-0.5559,0.0,0.0,0.0,0.0,0.0,0.0,0.0,0.0,0.0,-0.5946,-0.5867,-0.5861,-0.5949,-0.5817,-0.5776,-0.5881,-0.5803,-0.583,-0.5959,-0.5979,-0.5969,-0.5996,-0.6162,-0.6207,-0.611,-0.5095,-0.4064,-0.3089,-0.2898,-0.2249,-0.1309,-0.1337,0.0,0.0,-0.033,0.0,0.0,0.0,0.0,0.0,0.0,-0.0665,-0.1514,-0.1736,-0.3207,-0.4868,-0.527,-0.6071,-0.6874,-0.7051,-0.7095,-0.7129,-0.7302,-0.6418,0.0,0.0,0.0,-0.1655,-0.0555,-0.0151,0.0,0.0,0.0,0.0,0.0,0.0,0.0,0.0,0.0,0.0,0.0,0.0,0.0,0.0,0.0,-0.0454,-0.0706,-0.1511,-0.1511,-0.0404,-0.2514,-0.3865,-0.4368,-0.6778,-0.7988,-0.7988,-0.7988,-0.7988,-0.7988,-0.7988,-0.7988,-0.7988,-0.7988,0.0,-0.7988,-0.7988,-0.7988,-0.7988,-0.7988,-0.7858,-0.76,-0.76,-0.7404,-0.7095,0.0,0.0,0.0,0.0,0.0,0.0,0.0,-0.582,-0.5925,-0.622,-0.6207,-0.6112,-0.5992,-0.5928,-0.5952,0.0,0.0,0.0,0.0,0.0,0.0,-0.676,-0.6213,-0.6173,-0.676,-0.6128,-0.5878,-0.6078,0.0,-0.5922,-0.6146,-0.5986,-0.5919,-0.5996,-0.6108,-0.6179,-0.6205,-0.5744,-0.4956,-0.4093,-0.4058,-0.3423,-0.2513,0.0,0.0,0.0,0.0,0.0,0.0,0.0,0.0,-0.009,-0.0718,-0.0897,-0.1255,-0.3129,-0.4063,-0.473,-0.5935,-0.6694,-0.7095,-0.7095,-0.72,-0.7098,-0.6478,0.0,0.0,0.0,0.0,-0.0756,-0.0101,0.0,0.0,0.0,0.0,0.0,0.0,0.0,0.0,0.0,0.0,0.0,0.0,0.0,0.0,0.0,0.0,0.0,0.0,-0.0605,-0.0656,0.0,-0.2614,-0.4016,-0.4016,-0.6678,-0.7988,-0.7988,-0.7988,-0.7988,-0.7988,-0.7988,-0.7988,-0.7988,-0.7988,0.0,-0.7988,-0.7988,-0.7988,-0.7988,-0.7988,-0.7858,-0.76,-0.76,-0.7404,-0.7095,0.0,0.0,0.0,0.0,0.0,0.0,0.0,-0.6125,-0.6254,-0.6658,-0.6742,-0.6705,-0.6515,-0.6285,-0.6196,0.0,0.0,0.0,0.0,0.0,0.0,0.0,0.0,0.0,0.0,0.0,0.0,-0.6201,-0.5918,0.0,0.0,0.0,0.0,0.0,-0.6027,-0.6078,-0.6088,-0.6248,-0.567,0.0,0.0,-0.4613,0.0,0.0,0.0,0.0,0.0,0.0,0.0,0.0,-0.0177,-0.058,-0.1787,-0.1522,-0.1391,-0.4535,-0.4926,-0.4772,-0.6602,-0.7095,-0.7095,-0.7095,-0.703,-0.6688,-0.5696,-0.4385,0.0,0.0,-0.0849,0.0,0.0,0.0,0.0,0.0,0.0,0.0,0.0,0.0,0.0,0.0,0.0,0.0,0.0,0.0,0.0,0.0,0.0,0.0,0.0,0.0,0.0,0.0,-0.2314,-0.3715,-0.4016,-0.6376,-0.7736,-0.7988,-0.7988,-0.7988,-0.7988,-0.7988,-0.7988,-0.7988,-0.7988,0.0,0.0,-0.7988,-0.7988,-0.7988,-0.7988,-0.7858,-0.76,-0.76,-0.7404,-0.7095,0.0,0.0,0.0,0.0,0.0,0.0,0.0,-0.647,-0.6678,-0.7258,-0.7177,-0.7045,-0.7018,-0.6807,-0.6536,0.0,0.0,0.0,0.0,0.0,0.0,0.0,0.0,0.0,0.0,0.0,0.0,-0.5844,-0.5817,0.0,0.0,0.0,0.0,0.0,0.0,-0.6279,-0.6279,-0.6293,0.0,0.0,0.0,0.0,0.0,0.0,0.0,0.0,0.0,0.0,0.0,0.0,0.0,-0.1832,-0.3062,-0.3349,-0.3585,-0.5118,0.0,0.0,-0.7051,-0.7095,-0.7095,-0.7095,-0.6349,-0.5598,-0.5603,0.0,0.0,-0.2001,-0.0907,0.0,0.0,0.0,0.0,0.0,0.0,0.0,0.0,0.0,0.0,0.0,0.0,0.0,0.0,0.0,0.0,0.0,0.0,0.0,0.0,0.0,0.0,0.0,-0.1411,-0.2764,-0.3966,-0.5475,-0.6783,-0.7988,-0.7988,-0.7988,-0.7988,-0.7988,-0.7988,-0.7988,-0.7988,0.0,0.0,-0.7988,-0.7988,-0.7988,-0.7988,-0.7858,-0.76,-0.76,-0.7404,-0.7095,0.0,0.0,0.0,0.0,0.0,0.0,-0.6701,-0.6573,-0.6764,-0.7417,-0.7373,-0.7278,-0.7278,-0.7177,-0.6912,-0.647,0.0,0.0,0.0,0.0,0.0,0.0,0.0,0.0,0.0,0.0,-0.6156,-0.6207,-0.6207,0.0,0.0,0.0,0.0,0.0,0.0,-0.6378,-0.63,-0.63,0.0,0.0,0.0,0.0,0.0,0.0,0.0,0.0,0.0,0.0,0.0,0.0,0.0,0.0,-0.3295,-0.415,0.0,0.0,-0.6346,-0.6307,-0.6941,-0.7095,-0.6938,-0.6256,-0.5818,-0.5136,-0.3655,0.0,-0.1698,-0.0956,-0.0353,0.0,0.0,0.0,0.0,0.0,0.0,0.0,0.0,0.0,0.0,0.0,0.0,0.0,0.0,0.0,0.0,0.0,0.0,0.0,0.0,0.0,0.0,0.0,-0.131,-0.2264,-0.2815,-0.4922,-0.6279,-0.6783,-0.7637,-0.7988,-0.7988,-0.7988,-0.7988,-0.7988,-0.7988,0.0,0.0,-0.7988,-0.7988,-0.7988,-0.7988,-0.7858,-0.76,-0.76,-0.7404,-0.7095,0.0,0.0,0.0,0.0,0.0,-0.6969,-0.6781,-0.6675,-0.6844,-0.7512,-0.7506,-0.7438,-0.7438,-0.7443,-0.7228,-0.6712,-0.659,0.0,0.0,0.0,0.0,0.0,0.0,0.0,0.0,0.0,-0.6368,-0.6511,-0.6511,-0.6552,0.0,0.0,-0.6644,-0.6536,0.0,0.0,0.0,0.0,0.0,0.0,0.0,0.0,0.0,0.0,0.0,0.0,0.0,0.0,0.0,0.0,0.0,0.0,-0.2904,-0.3991,-0.5233,0.0,-0.6698,-0.6195,-0.7,-0.6892,-0.6418,-0.5598,-0.4931,-0.3987,0.0,0.0,-0.1159,-0.0202,0.0,0.0,0.0,0.0,0.0,0.0,0.0,0.0,0.0,-0.0353,0.0,0.0,0.0,0.0,0.0,0.0,0.0,0.0,0.0,0.0,0.0,0.0,0.0,0.0,-0.0907,-0.1611,-0.2013,-0.427,-0.5625,-0.6029,-0.7335,-0.7988,-0.7988,-0.7988,-0.7988,-0.7988,-0.7988,0.0,0.0,-0.7988,-0.7988,-0.7988,-0.7988,-0.7858,-0.76,-0.76,-0.7404,-0.7095,0.0,0.0,0.0,0.0,0.0,0.0,-0.6858,-0.6883,-0.7085,-0.7539,-0.7597,-0.7597,-0.7597,-0.7461,-0.7309,-0.7102,-0.6729,0.0,0.0,0.0,0.0,0.0,0.0,0.0,0.0,0.0,-0.6368,-0.6511,-0.6511,-0.6552,-0.6702,-0.6702,-0.6702,-0.6692,0.0,0.0,0.0,0.0,0.0,0.0,0.0,0.0,0.0,0.0,0.0,0.0,0.0,0.0,0.0,0.0,0.0,0.0,0.0,-0.272,-0.4298,-0.6839,-0.7334,-0.7132,-0.7329,-0.6444,-0.5435,-0.539,-0.361,-0.1813,0.0,0.0,0.0,0.0,0.0,0.0,0.0,0.0,0.0,0.0,0.0,0.0,0.0,-0.1159,0.0,0.0,0.0,0.0,0.0,0.0,0.0,0.0,0.0,0.0,0.0,0.0,0.0,0.0,0.0,-0.0656,-0.1963,-0.3366,-0.467,-0.6029,-0.7335,-0.7988,-0.7988,-0.7988,-0.7988,0.0,0.0,0.0,0.0,-0.7988,-0.7988,-0.7988,-0.7988,-0.7858,-0.76,-0.76,-0.7404,-0.7095,0.0,0.0,0.0,0.0,0.0,0.0,0.0,-0.6617,-0.6776,-0.7183,-0.724,-0.7366,-0.7577,-0.7461,-0.7353,-0.7302,-0.6983,0.0,0.0,0.0,0.0,0.0,0.0,0.0,0.0,-0.6446,-0.6125,-0.5542,-0.6451,-0.6526,-0.5816,-0.6754,-0.7051,-0.6854,-0.6807,-0.6725,0.0,0.0,0.0,0.0,0.0,0.0,0.0,0.0,0.0,0.0,0.0,0.0,0.0,0.0,0.0,0.0,0.0,0.0,0.0,-0.5847,-0.6298,-0.6224,-0.6184,-0.586,-0.512,-0.3388,-0.2354,-0.1574,-0.0748,0.0,0.0,0.0,0.0,0.0,0.0,0.0,0.0,0.0,0.0,-0.0298,0.0,0.0,0.0,0.0,0.0,0.0,0.0,0.0,0.0,0.0,0.0,0.0,0.0,0.0,0.0,0.0,0.0,-0.0202,-0.0605,-0.2864,-0.4216,-0.467,-0.693,-0.7988,-0.7988,-0.7988,-0.7988,0.0,0.0,0.0,0.0,-0.7988,-0.7988,-0.7978,-0.7923,-0.7767,-0.7587,-0.7482,-0.7316,-0.7095,0.0,0.0,0.0,0.0,0.0,0.0,0.0,-0.6511,-0.6614,-0.6964,-0.7018,-0.7132,-0.7478,-0.7377,-0.7329,-0.7448,-0.7238,0.0,0.0,0.0,0.0,0.0,0.0,0.0,-0.6511,-0.6569,-0.6074,-0.5087,-0.5935,-0.6068,-0.5496,-0.6331,-0.6866,-0.7092,-0.6991,-0.6883,0.0,0.0,0.0,0.0,0.0,0.0,-0.7262,0.0,0.0,0.0,0.0,0.0,0.0,0.0,0.0,0.0,0.0,0.0,0.0,0.0,-0.5131,-0.5215,-0.5578,-0.5322,-0.4413,-0.2308,-0.1465,-0.0945,-0.0151,0.0,0.0,0.0,0.0,0.0,0.0,-0.0397,-0.0592,-0.0101,-0.04,-0.0846,0.0,0.0,0.0,0.0,0.0,0.0,0.0,0.0,0.0,0.0,0.0,0.0,0.0,0.0,0.0,0.0,0.0,0.0,0.0,-0.2665,-0.4016,-0.4016,-0.6728,-0.7988,-0.7988,-0.7988,-0.7988,0.0,0.0,0.0,0.0,-0.7988,-0.7988,-0.7975,-0.7872,-0.7726,-0.758,-0.7428,-0.7275,-0.7095,0.0,0.0,0.0,0.0,0.0,0.0,0.0,-0.6504,-0.6576,-0.6832,-0.6879,-0.7037,-0.7322,-0.7224,-0.7216,-0.7556,0.0,0.0,0.0,0.0,0.0,0.0,0.0,0.0,-0.6528,-0.6637,-0.6135,-0.4975,-0.5109,-0.5216,-0.532,-0.5509,-0.6199,-0.7272,-0.7176,-0.7034,0.0,0.0,0.0,0.0,0.0,-0.7426,0.0,0.0,0.0,0.0,0.0,0.0,0.0,0.0,0.0,0.0,0.0,0.0,0.0,0.0,0.0,0.0,0.0,-0.4746,-0.3477,-0.2009,-0.0846,0.0,0.0,0.0,0.0,0.0,0.0,0.0,0.0,-0.1091,-0.1576,-0.0201,-0.1109,-0.1611,0.0,-0.2414,0.0,0.0,0.0,0.0,0.0,0.0,0.0,0.0,0.0,0.0,0.0,0.0,0.0,0.0,0.0,0.0,0.0,-0.2665,-0.4016,-0.4016,-0.6728,-0.7988,-0.7988,-0.7988,-0.7988,0.0,0.0,0.0,0.0,-0.7988,-0.7988,-0.7975,-0.7872,-0.7726,-0.758,-0.7428,-0.7275,-0.7095,0.0,0.0,0.0,0.0,0.0,0.0,0.0,0.0,0.0,0.0,-0.6858,-0.6953,-0.7132,-0.7119,-0.7173,0.0,0.0,0.0,0.0,0.0,0.0,0.0,0.0,0.0,-0.6644,-0.6797,-0.5879,-0.393,-0.5002,-0.4547,-0.2722,-0.4802,-0.5808,-0.5896,-0.6872,-0.7234,0.0,0.0,0.0,0.0,-0.7417,-0.7441,0.0,0.0,0.0,0.0,-0.2211,-0.1037,0.0,0.0,0.0,0.0,0.0,0.0,0.0,0.0,-0.3998,-0.404,-0.4338,0.0,-0.3383,-0.1033,-0.0199,0.0,0.0,0.0,0.0,0.0,0.0,0.0,0.0,-0.1081,-0.1576,-0.0201,-0.1109,-0.2264,-0.2964,0.0,0.0,-0.4868,0.0,0.0,0.0,0.0,0.0,0.0,0.0,0.0,0.0,0.0,0.0,0.0,0.0,0.0,0.0,-0.2665,-0.4016,-0.4016,-0.6728,-0.7988,-0.7988,-0.7988,-0.7988,0.0,0.0,0.0,-0.7988,-0.7988,-0.7988,-0.7975,-0.7872,-0.7726,-0.758,-0.7428,-0.7275,-0.7095,0.0,0.0,0.0,0.0,0.0,0.0,0.0,0.0,0.0,0.0,0.0,-0.6905,-0.7071,-0.7095,0.0,0.0,0.0,0.0,0.0,0.0,0.0,0.0,0.0,-0.6719,-0.6803,-0.6906,-0.5858,-0.3607,-0.4316,-0.3706,-0.1935,-0.4007,-0.5135,-0.5549,-0.673,-0.7258,0.0,0.0,0.0,0.0,-0.7607,0.0,0.0,0.0,0.0,0.0,-0.2976,-0.154,0.0,0.0,0.0,-0.0099,0.0,0.0,0.0,0.0,-0.4484,-0.4016,-0.4016,-0.3565,-0.2608,-0.0498,0.0,0.0,0.0,0.0,0.0,0.0,0.0,0.0,0.0,-0.1077,-0.1772,-0.1055,-0.2063,0.0,0.0,0.0,-0.492,-0.492,0.0,0.0,0.0,0.0,0.0,0.0,0.0,0.0,0.0,0.0,0.0,0.0,0.0,0.0,0.0,-0.2665,-0.4016,-0.4016,-0.6728,-0.7988,-0.7988,-0.7988,-0.7988,0.0,0.0,0.0,-0.7988,-0.7988,-0.7988,-0.7975,-0.7872,-0.7763,-0.7678,-0.7533,-0.7424,-0.7343,0.0,0.0,0.0,0.0,0.0,0.0,0.0,0.0,0.0,0.0,0.0,0.0,0.0,0.0,0.0,0.0,0.0,0.0,0.0,0.0,0.0,0.0,-0.691,-0.6896,-0.6916,-0.7034,-0.5964,-0.3654,-0.3607,-0.2951,-0.1704,-0.3261,-0.4673,-0.5962,-0.6795,-0.7248,0.0,0.0,0.0,0.0,-0.7811,0.0,0.0,0.0,0.0,0.0,0.0,0.0,0.0,-0.0299,-0.0301,-0.0554,-0.185,0.0,0.0,0.0,0.0,0.0,-0.4016,-0.2864,-0.1411,-0.0303,0.0,0.0,0.0,0.0,0.0,0.0,0.0,0.0,0.0,-0.1075,-0.192,-0.1706,0.0,0.0,-0.4974,-0.5425,-0.5527,0.0,0.0,0.0,0.0,0.0,0.0,0.0,0.0,0.0,0.0,0.0,0.0,0.0,0.0,-0.0101,-0.0303,-0.2764,-0.4016,-0.4016,-0.6728,-0.7988,-0.7988,-0.7988,-0.7988,-0.7988,0.0,0.0,-0.7988,-0.7988,-0.7988,-0.7978,-0.7896,-0.7831,-0.7797,-0.7675,-0.7617,-0.758,0.0,0.0,0.0,0.0,0.0,0.0,0.0,0.0,0.0,0.0,0.0,0.0,0.0,0.0,0.0,0.0,0.0,0.0,0.0,0.0,0.0,-0.7312,-0.7065,-0.6943,-0.7061,-0.7085,-0.6009,-0.3749,-0.3654,-0.2451,-0.0345,-0.2844,-0.5165,-0.7305,-0.7319,-0.7395,-0.7429,-0.7536,0.0,-0.7811,-0.7811,0.0,0.0,0.0,0.0,0.0,0.0,0.0,0.0,-0.1552,-0.1619,-0.1902,-0.3146,0.0,0.0,0.0,0.0,0.0,-0.4016,-0.2213,-0.0252,-0.005,0.0,0.0,0.0,0.0,0.0,0.0,0.0,0.0,0.0,-0.1114,-0.1625,-0.0503,0.0,-0.3265,0.0,0.0,0.0,0.0,0.0,0.0,0.0,0.0,0.0,0.0,0.0,0.0,0.0,0.0,0.0,0.0,0.0,-0.0555,-0.1661,-0.3215,-0.4016,-0.4016,-0.6728,-0.7988,-0.7988,-0.7988,-0.7988,-0.7988,0.0,-0.7988,-0.7988,-0.7988,-0.7988,-0.7988,-0.7965,-0.7877,-0.7811,-0.7787,-0.7702,-0.758,0.0,0.0,0.0,0.0,0.0,0.0,0.0,0.0,0.0,0.0,0.0,0.0,0.0,0.0,0.0,0.0,0.0,0.0,0.0,0.0,-0.7567,-0.7499,-0.7363,-0.7285,-0.7265,-0.6535,-0.5419,-0.3809,-0.2992,-0.2098,-0.1144,-0.3673,-0.5838,-0.7594,-0.7441,-0.7463,-0.7506,-0.7651,-0.7797,-0.7884,0.0,0.0,0.0,0.0,0.0,0.0,0.0,0.0,0.0,0.0,-0.2856,-0.321,-0.446,0.0,0.0,0.0,0.0,0.0,-0.4016,-0.2063,0.0,0.0,0.0,0.0,0.0,0.0,0.0,0.0,0.0,0.0,0.0,-0.0492,-0.0948,-0.1057,0.0,-0.3565,0.0,0.0,0.0,0.0,0.0,0.0,0.0,0.0,0.0,0.0,0.0,0.0,0.0,0.0,0.0,0.0,0.0,-0.0656,-0.1963,-0.3316,-0.4368,-0.5122,-0.7083,-0.7988,-0.7988,-0.7988,-0.7988,-0.7988,0.0,-0.7988,-0.7988,-0.7988,-0.7988,-0.7988,-0.7988,-0.8386,-0.9096,-0.9769,-0.9512,-0.8769,0.0,0.0,0.0,0.0,0.0,0.0,0.0,0.0,0.0,0.0,0.0,0.0,0.0,0.0,0.0,0.0,0.0,0.0,0.0,0.0,-0.7614,-0.7648,-0.7617,-0.756,-0.7478,-0.6464,-0.538,-0.43,-0.3277,-0.2816,-0.2964,-0.4802,-0.635,-0.7641,-0.7492,-0.7509,-0.7655,-0.7767,-0.7899,-0.7988,0.0,0.0,0.0,0.0,0.0,0.0,0.0,0.0,0.0,0.0,0.0,0.0,0.0,0.0,0.0,-0.7686,-0.6106,-0.3995,-0.4011,-0.2056,0.0,0.0,0.0,0.0,0.0,0.0,0.0,0.0,0.0,0.0,0.0,0.0,0.0,-0.136,-0.2665,0.0,0.0,0.0,0.0,0.0,0.0,0.0,0.0,0.0,0.0,0.0,0.0,0.0,0.0,0.0,0.0,0.0,0.0,-0.0807,-0.2464,-0.3465,-0.467,-0.6029,-0.7335,-0.7988,-0.7988,-0.7988,-0.7988,-0.7988,-0.7988,-0.7988,-0.7988,-0.7988,-0.7988,-0.7988,-0.7988,-0.8825,-1.0096,-1.1121,-1.0969,-1.0227,0.0,0.0,0.0,0.0,0.0,0.0,0.0,0.0,0.0,0.0,0.0,0.0,0.0,0.0,0.0,0.0,0.0,0.0,0.0,0.0,-0.7658,-0.779,-0.7672,-0.7655,-0.7777,-0.7553,-0.694,-0.5858,-0.5616,-0.5571,-0.5724,-0.5755,-0.6477,-0.779,-0.7648,-0.7662,-0.7797,-0.7807,-0.7899,-0.7988,-0.7988,0.0,0.0,0.0,0.0,0.0,0.0,0.0,0.0,0.0,0.0,0.0,0.0,0.0,-0.7889,-0.7988,-0.6103,-0.3983,-0.3999,-0.2036,0.0,0.0,0.0,0.0,0.0,0.0,0.0,0.0,0.0,0.0,0.0,0.0,-0.0051,-0.0151,0.0,0.0,0.0,0.0,0.0,0.0,0.0,0.0,0.0,0.0,0.0,0.0,0.0,0.0,0.0,0.0,0.0,0.0,0.0,-0.126,-0.3815,-0.3966,-0.467,-0.6029,-0.7335,-0.7988,-0.7988,-0.7988,-0.7988,-0.7988,-0.7988,-0.7988,-0.7988,-0.7988,-0.7988,-0.7988,-0.7988,-0.8825,-0.9998,-1.0096,-1.0818,-1.155,0.0,0.0,0.0,0.0,0.0,0.0,0.0,0.0,0.0,0.0,0.0,0.0,0.0,0.0,0.0,0.0,0.0,0.0,0.0,-0.7458,-0.7563,-0.7801,-0.776,-0.7756,-0.7811,-0.6933,-0.6377,-0.6165,-0.6115,-0.6052,-0.6027,-0.6623,-0.7197,-0.7678,-0.7624,-0.7631,-0.7692,-0.7875,-0.7938,-0.7988,-0.7988,-0.7988,0.0,0.0,0.0,0.0,0.0,0.0,0.0,0.0,-0.6868,-0.7006,-0.7536,-0.7845,-0.7971,-0.7877,-0.6041,-0.4015,-0.3993,-0.2017,0.0,0.0,0.0,0.0,0.0,0.0,0.0,0.0,0.0,0.0,0.0,0.0,0.0,0.0,0.0,0.0,0.0,0.0,0.0,0.0,0.0,0.0,0.0,0.0,0.0,0.0,0.0,0.0,0.0,0.0,0.0,0.0,0.0,-0.131,-0.3966,-0.4016,-0.5068,-0.7235,-0.7736,-0.7988,-0.7988,-0.7988,-0.7988,-0.7988,-0.7988,-0.7988,-0.7988,-0.7988,-0.7988,-0.8088,-0.892,-1.0047,-1.1263,-1.2134,-1.2716,-1.2925,0.0,0.0,0.0,0.0,0.0,0.0,0.0,0.0,0.0,0.0,0.0,0.0,0.0,0.0,0.0,0.0,0.0,0.0,-0.7405,-0.7415,-0.7482,-0.7733,-0.7743,-0.7767,-0.7811,-0.6882,-0.6524,-0.6793,-0.6833,-0.6558,-0.6027,-0.671,-0.6825,-0.6475,-0.6867,-0.7066,-0.7119,-0.7753,-0.7988,-0.7988,-0.7988,-0.7988,0.0,0.0,0.0,0.0,0.0,0.0,0.0,0.0,-0.7665,-0.7675,-0.7723,-0.783,-0.7961,-0.7858,-0.6298,-0.4545,-0.4058,-0.2339,-0.0535,-0.0098,0.0,0.0,0.0,0.0,0.0,0.0,0.0,0.0,0.0,0.0,0.0,0.0,0.0,0.0,0.0,0.0,0.0,0.0,0.0,0.0,0.0,0.0,0.0,0.0,0.0,0.0,0.0,0.0,0.0,0.0,0.0,-0.131,-0.3966,-0.4016,-0.537,-0.7988,-0.7988,-0.7988,-0.7988,-0.7988,-0.7988,-0.7988,-0.7988,-0.7988,-0.7988,-0.7988,-0.7988,-0.8088,-0.9019,-1.0141,-1.1409,-1.2328,-1.2909,-1.3117,0.0,0.0,0.0,0.0,0.0,0.0,0.0,0.0,0.0,0.0,0.0,0.0,0.0,0.0,0.0,0.0,0.0,0.0,-0.7405,-0.7415,-0.7438,-0.759,-0.76,-0.7665,-0.7804,-0.7811,-0.7811,-0.7814,-0.7917,-0.7338,-0.5977,-0.586,-0.5174,-0.4061,-0.5265,-0.5871,-0.6077,-0.7431,-0.7988,-0.7988,-0.7988,-0.7939,-0.7939,0.0,0.0,0.0,0.0,0.0,0.0,0.0,-0.7814,-0.7838,-0.7941,-0.7988,-0.7961,-0.7855,-0.693,-0.5664,-0.4201,-0.2893,-0.1674,-0.0342,0.0,0.0,0.0,0.0,0.0,0.0,0.0,0.0,0.0,0.0,0.0,0.0,0.0,0.0,0.0,0.0,0.0,0.0,0.0,0.0,0.0,0.0,0.0,0.0,0.0,0.0,0.0,0.0,0.0,0.0,0.0,-0.126,-0.3966,-0.4016,-0.532,-0.7988,-0.7988,-0.7988,-0.7988,-0.7988,-0.7988,-0.7988,-0.7988,-0.7988,-0.7988,-0.7988,-0.7988,-0.7988,-0.7988,-0.8821,-0.9998,-0.9998,-1.0823,-1.1856,0.0,0.0,0.0,0.0,0.0,0.0,0.0,0.0,0.0,0.0,0.0,0.0,0.0,0.0,0.0,0.0,0.0,0.0,-0.7412,-0.7272,-0.7278,-0.7434,-0.7543,-0.7617,-0.7662,-0.776,-0.7865,-0.7921,-0.8126,-0.7434,-0.5974,-0.5779,-0.5036,-0.3911,-0.5204,-0.5792,-0.5735,-0.633,-0.6551,-0.6399,-0.5517,-0.5163,-0.5261,0.0,0.0,0.0,0.0,0.0,0.0,0.0,0.0,0.0,-0.7865,-0.7904,-0.7941,-0.7736,-0.6222,-0.4486,-0.3953,-0.222,-0.0477,-0.0096,0.0,0.0,0.0,0.0,0.0,0.0,0.0,0.0,0.0,0.0,0.0,0.0,0.0,0.0,0.0,0.0,0.0,0.0,0.0,0.0,0.0,0.0,0.0,0.0,0.0,0.0,0.0,0.0,0.0,0.0,0.0,-0.0857,-0.2564,-0.3516,-0.487,-0.6581,-0.7537,-0.7988,-0.7988,-0.7988,-0.7988,-0.7988,-0.7988,-0.7988,-0.7988,-0.7988,-0.7988,-0.7988,-0.7988,-0.875,-0.9847,-0.9847,-1.0616,-1.16,0.0,0.0,0.0,0.0,0.0,0.0,0.0,0.0,0.0,0.0,-0.7951,-0.7968,0.0,0.0,0.0,-0.7811,-0.7543,-0.7415,-0.7415,-0.7224,-0.721,-0.7409,-0.7458,-0.7563,-0.7682,-0.7889,-0.7977,-0.7897,-0.8041,-0.7083,-0.5115,-0.4949,-0.3952,-0.2384,-0.4226,-0.5002,-0.4962,-0.6189,-0.6346,-0.5713,-0.503,-0.4445,-0.4061,0.0,0.0,0.0,0.0,0.0,0.0,0.0,0.0,0.0,-0.7902,-0.7566,-0.7143,-0.6927,-0.5502,-0.3869,-0.318,-0.1907,-0.0676,-0.0146,0.0,0.0,0.0,0.0,0.0,0.0,0.0,0.0,0.0,0.0,0.0,0.0,0.0,0.0,0.0,0.0,0.0,0.0,0.0,0.0,0.0,0.0,0.0,0.0,0.0,0.0,0.0,0.0,0.0,0.0,0.0,-0.0656,-0.1963,-0.3316,-0.467,-0.6029,-0.7335,-0.7988,-0.7988,-0.7988,-0.7988,-0.7988,-0.7988,-0.7988,-0.7988,-0.7988,-0.7988,-0.7988,-0.7988,-0.8421,-0.9098,-0.9027,-0.9453,-1.0123,0.0,0.0,0.0,0.0,0.0,0.0,0.0,0.0,0.0,-0.7831,-0.7904,-0.7938,0.0,0.0,0.0,-0.7831,-0.7563,-0.7439,-0.7439,-0.7248,-0.7224,-0.7412,-0.7443,-0.7543,-0.7824,-0.8106,-0.8099,-0.779,-0.7804,-0.6492,-0.3959,-0.3855,-0.2563,-0.0453,-0.2908,-0.3963,-0.4132,-0.6458,-0.675,-0.5584,-0.5342,-0.4616,-0.3648,-0.3752,0.0,0.0,0.0,0.0,0.0,0.0,0.0,0.0,-0.7988,-0.7083,-0.5956,-0.5843,-0.4843,-0.3542,-0.216,-0.1809,-0.1523,-0.0301,0.0,0.0,0.0,0.0,0.0,0.0,0.0,0.0,0.0,0.0,0.0,0.0,0.0,0.0,0.0,0.0,0.0,0.0,0.0,0.0,0.0,0.0,0.0,0.0,0.0,0.0,0.0,0.0,0.0,0.0,0.0,-0.0605,-0.1812,-0.3265,-0.4618,-0.5827,-0.7285,-0.7988,-0.7988,-0.7988,-0.7988,-0.7988,-0.7988,-0.7988,-0.7988,-0.7988,-0.7988,-0.7988,-0.7988,-0.7975,-0.7934,-0.7841,-0.7773,-0.8039,0.0,0.0,0.0,0.0,0.0,0.0,0.0,0.0,-0.7855,-0.7924,-0.7968,-0.7978,-0.7944,-0.7941,0.0,-0.7941,-0.7723,-0.755,-0.755,-0.7407,-0.7336,-0.7415,-0.7594,-0.7801,-0.7938,-0.8005,-0.7943,-0.7645,-0.7756,-0.6979,-0.5368,-0.4183,-0.3475,-0.315,-0.3638,-0.434,-0.5181,-0.4804,-0.4429,-0.3917,-0.2008,-0.1089,-0.0965,-0.2006,-0.2606,0.0,0.0,0.0,0.0,0.0,0.0,0.0,-0.7988,-0.7083,-0.5956,-0.5843,-0.421,-0.2351,-0.1925,-0.1115,-0.0344,-0.0049,0.0,0.0,0.0,0.0,0.0,0.0,0.0,0.0,0.0,0.0,0.0,0.0,0.0,0.0,0.0,0.0,0.0,0.0,0.0,0.0,0.0,0.0,0.0,0.0,0.0,0.0,0.0,0.0,0.0,0.0,0.0,-0.0151,-0.0404,-0.2815,-0.4166,0.0,-0.688,-0.7988,-0.7988,-0.7988,-0.7988,-0.7988,-0.7988,-0.7988,-0.7988,-0.7988,-0.7988,-0.7988,-0.7988,-0.785,-0.7689,-0.7658,-0.7492,-0.7586,0.0,0.0,0.0,0.0,0.0,0.0,0.0,0.0,-0.7865,-0.7971,-0.7928,-0.788,-0.788,-0.7868,0.0,0.0,-0.7621,-0.7492,-0.7492,-0.746,-0.7434,-0.7577,-0.7797,-0.7911,-0.7988,-0.7917,-0.7821,-0.76,-0.7526,-0.682,-0.5603,-0.4842,-0.3926,-0.2992,-0.3569,-0.3794,-0.3779,-0.3777,-0.341,-0.2627,-0.1385,-0.0515,-0.0095,-0.077,-0.1449,-0.2177,-0.3595,0.0,0.0,0.0,0.0,0.0,0.0,0.0,-0.5012,-0.4961,-0.3071,-0.1041,-0.0933,-0.0494,0.0,0.0,0.0,0.0,0.0,0.0,0.0,0.0,0.0,0.0,0.0,0.0,0.0,0.0,0.0,0.0,0.0,0.0,0.0,0.0,0.0,0.0,0.0,0.0,0.0,0.0,0.0,0.0,0.0,0.0,0.0,0.0,0.0,0.0,0.0,-0.2665,-0.4016,-0.4016,-0.6728,-0.7988,-0.7988,-0.7988,-0.7988,-0.7988,-0.7988,-0.7988,-0.7988,-0.7988,-0.7988,-0.7988,-0.7988,-0.7897,-0.7794,-0.7651,-0.7499,-0.7563,0.0,0.0,0.0,0.0,0.0,0.0,0.0,0.0,0.0,-0.7931,-0.7913,-0.7841,-0.7814,-0.7706,-0.7628,0.0,0.0,0.0,-0.7415,-0.7443,-0.7533,-0.7797,-0.7907,-0.7988,-0.7988,-0.7889,-0.7743,-0.76,-0.7111,-0.6349,-0.5408,-0.5362,-0.4316,-0.2519,-0.3595,-0.3364,-0.2203,-0.3299,-0.3019,-0.1783,-0.156,-0.0883,0.0,0.0,-0.0711,-0.1662,-0.1934,-0.273,-0.3676,-0.3929,0.0,0.0,0.0,0.0,-0.3665,-0.3665,-0.1913,0.0,0.0,0.0,0.0,0.0,0.0,0.0,0.0,0.0,0.0,0.0,0.0,0.0,0.0,0.0,0.0,0.0,0.0,0.0,0.0,0.0,0.0,0.0,0.0,0.0,0.0,0.0,0.0,0.0,0.0,0.0,0.0,0.0,0.0,0.0,0.0,0.0,0.0,-0.2665,-0.4016,-0.4016,-0.6728,-0.7988,-0.7988,-0.7988,-0.7988,-0.7988,-0.7988,-0.7988,-0.7988,-0.7988,-0.8137,-0.8333,-0.8088,-0.8269,-0.855,-0.7838,-0.7721,-0.798,0.0,0.0,0.0,0.0,0.0,0.0,0.0,0.0,0.0,0.0,-0.7891,-0.7911,-0.7824,-0.7794,-0.7733,-0.7611,-0.7458,-0.7415,-0.7415,0.0,0.0,-0.7804,-0.7907,-0.7988,-0.7988,-0.7889,-0.7743,-0.76,-0.6382,-0.568,-0.5382,-0.5245,-0.5168,-0.5258,-0.522,-0.4572,-0.3542,-0.3585,-0.2929,-0.1708,-0.0671,-0.0136,0.0,0.0,-0.0093,-0.0419,-0.1565,-0.2123,-0.2446,-0.3627,-0.4115,0.0,0.0,0.0,-0.2264,-0.2264,-0.1209,0.0,0.0,0.0,0.0,0.0,0.0,0.0,0.0,0.0,0.0,0.0,0.0,0.0,0.0,0.0,0.0,0.0,0.0,0.0,0.0,0.0,0.0,0.0,0.0,0.0,0.0,0.0,0.0,0.0,0.0,0.0,0.0,0.0,0.0,0.0,0.0,0.0,0.0,-0.2665,-0.4016,-0.4016,-0.6728,-0.7988,-0.7988,-0.7988,-0.7988,-0.7988,-0.7988,-0.7988,-0.7988,-0.7988,-0.8676,-0.9608,-0.8432,-0.9315,-1.0915,-0.8502,-0.8201,-0.9038,0.0,0.0,0.0,0.0,0.0,0.0,0.0,0.0,0.0,0.0,0.0,-0.7767,-0.7699,-0.7614,-0.7472,-0.7244,-0.7163,-0.7156,-0.7238,-0.7387,-0.7573,-0.7801,-0.7875,-0.7913,-0.7913,-0.7767,-0.7577,-0.7343,-0.6558,-0.5898,-0.5259,-0.576,-0.5112,-0.3577,-0.4043,-0.3277,-0.1758,-0.2859,-0.2333,-0.0782,-0.0877,-0.0536,0.0,0.0,0.0,-0.0093,-0.0654,-0.0895,-0.0951,-0.1555,-0.2262,-0.2875,-0.2856,0.0,0.0,0.0,-0.1058,0.0,0.0,0.0,0.0,0.0,0.0,0.0,0.0,0.0,0.0,0.0,0.0,0.0,0.0,0.0,0.0,0.0,0.0,0.0,0.0,0.0,0.0,0.0,0.0,0.0,0.0,0.0,0.0,0.0,0.0,0.0,0.0,0.0,0.0,0.0,0.0,0.0,0.0,-0.2665,-0.4768,-0.6274,-0.7434,-0.7988,-0.7988,-0.7988,-0.7988,-0.7988,-0.7988,-0.7988,-0.7988,-0.7988,-0.8775,-0.9948,-0.9361,-1.0236,-1.1662,-1.0202,-0.9984,-1.0271,0.0,0.0,0.0,0.0,0.0,0.0,0.0,0.0,0.0,0.0,0.0,-0.7587,-0.7546,0.0,0.0,0.0,-0.6852,-0.6873,-0.6977,-0.7207,-0.7411,-0.7631,-0.7716,-0.7756,-0.7756,-0.7577,-0.737,-0.7095,-0.6544,-0.59,-0.5183,-0.5673,-0.4624,-0.2387,-0.3699,-0.2838,-0.0569,-0.2432,-0.1965,-0.0087,-0.0873,-0.0714,0.0,0.0,0.0,0.0,0.0,0.0,0.0,0.0,0.0,0.0,0.0,0.0,0.0,0.0,0.0,0.0,0.0,0.0,0.0,0.0,0.0,0.0,0.0,0.0,0.0,0.0,0.0,0.0,0.0,0.0,0.0,0.0,0.0,0.0,0.0,0.0,0.0,0.0,0.0,0.0,0.0,0.0,0.0,0.0,0.0,0.0,0.0,0.0,0.0,0.0,0.0,0.0,0.0,-0.2665,-0.537,-0.7988,-0.7988,-0.7988,-0.7988,-0.7988,-0.7988,-0.7988,-0.7988,-0.7988,-0.8038,-0.8382,-0.9266,-1.0485,-1.0485,-1.1458,-1.2769,-1.1791,-1.1595,-1.1671,0.0,0.0,0.0,0.0,0.0,0.0,0.0,0.0,0.0,0.0,0.0,-0.7546,-0.7446,-0.7244,-0.7048,-0.69,-0.6797,-0.6715,-0.6722,-0.695,-0.7115,-0.7129,-0.7455,0.0,-0.7611,-0.727,-0.7112,-0.7095,-0.5811,-0.5259,-0.5349,-0.4278,-0.3758,-0.3813,-0.5936,-0.4945,-0.1785,-0.3054,-0.2209,0.0,-0.0044,-0.0045,0.0,0.0,0.0,0.0,0.0,0.0,0.0,0.0,0.0,0.0,0.0,0.0,0.0,0.0,0.0,0.0,0.0,0.0,0.0,0.0,0.0,0.0,0.0,0.0,0.0,0.0,0.0,0.0,0.0,0.0,0.0,0.0,0.0,0.0,0.0,0.0,0.0,0.0,0.0,0.0,0.0,0.0,0.0,0.0,0.0,0.0,0.0,0.0,0.0,0.0,0.0,0.0,0.0,-0.2665,-0.537,-0.7988,-0.7988,-0.7988,-0.7988,-0.7988,-0.7988,-0.7988,-0.7988,-0.7988,-0.8088,-0.9361,-1.0632,-1.1804,-1.1804,-1.3355,-1.5257,-1.2631,-1.2491,-1.3321,0.0,0.0,0.0,0.0,0.0,0.0,0.0,0.0,0.0,0.0,0.0,0.0,0.0,-0.7129,-0.696,-0.6664,-0.6586,-0.6556,-0.6556,-0.6837,-0.7001,-0.7092,-0.7339,-0.7455,-0.7455,-0.7343,-0.7146,-0.6858,-0.637,-0.5781,-0.5102,-0.5445,-0.5332,-0.4869,-0.5445,-0.4667,-0.3014,-0.3942,-0.3096,-0.1149,-0.1045,-0.0625,0.0,0.0,0.0,0.0,0.0,0.0,0.0,0.0,0.0,0.0,0.0,0.0,0.0,0.0,0.0,0.0,0.0,0.0,0.0,0.0,0.0,0.0,0.0,0.0,0.0,0.0,0.0,0.0,0.0,0.0,0.0,0.0,0.0,0.0,0.0,0.0,0.0,0.0,0.0,0.0,0.0,0.0,0.0,0.0,0.0,0.0,0.0,0.0,0.0,0.0,0.0,-0.0807,-0.2564,-0.3516,-0.537,-0.7988,-0.7988,-0.7988,-0.7988,-0.7988,-0.7988,-0.7988,-0.7988,-0.7988,-0.8088,-0.946,-1.073,-1.1994,-1.2866,-1.4268,-1.565,-1.45,-1.4399,-1.4587,0.0,0.0,0.0,0.0,0.0,0.0,0.0,0.0,-0.7132,-0.7282,0.0,0.0,0.0,0.0,-0.6362,-0.6437,-0.6443,-0.6443,-0.6443,-0.6634,-0.6841,-0.6943,-0.7143,-0.7244,-0.7292,-0.7197,-0.7,-0.6702,-0.6651,-0.6236,-0.5529,-0.6373,-0.6474,-0.5971,-0.5639,-0.5002,-0.423,-0.4279,0.0,-0.1743,0.0,0.0,0.0,0.0,0.0,0.0,0.0,0.0,0.0,0.0,0.0,0.0,0.0,0.0,0.0,0.0,0.0,0.0,0.0,0.0,0.0,0.0,0.0,0.0,0.0,0.0,0.0,0.0,0.0,0.0,0.0,0.0,0.0,0.0,0.0,0.0,0.0,0.0,0.0,0.0,0.0,0.0,0.0,0.0,0.0,0.0,0.0,0.0,0.0,0.0,0.0,0.0,0.0,-0.131,-0.3966,-0.4016,-0.537,-0.7988,-0.7988,-0.7988,-0.7988,-0.7988,-0.7988,-0.7988,-0.7988,-0.7988,-0.8137,-0.9899,-1.1121,-1.2091,-1.383,-1.5045,-1.5758,-1.5611,-1.5538,-1.5358,0.0,0.0,0.0,0.0,0.0,0.0,0.0,0.0,-0.7095,-0.7095,0.0,0.0,0.0,0.0,0.0,-0.6181,-0.6268,-0.6306,-0.6306,-0.6436,-0.6539,-0.6695,-0.6848,-0.6953,-0.7092,-0.6861,-0.6709,-0.6702,-0.6552,-0.6552,-0.6698,-0.6848,-0.6947,-0.7071,-0.6827,-0.6205,-0.5314,0.0,-0.2895,-0.1737,0.0,0.0,0.0,0.0,0.0,0.0,0.0,0.0,0.0,0.0,0.0,0.0,0.0,0.0,0.0,0.0,0.0,0.0,0.0,0.0,0.0,0.0,0.0,0.0,0.0,0.0,0.0,0.0,0.0,0.0,0.0,0.0,0.0,0.0,0.0,0.0,0.0,0.0,0.0,0.0,0.0,0.0,0.0,0.0,0.0,0.0,0.0,-0.005,-0.005,0.0,0.0,0.0,0.0,-0.131,-0.3966,-0.4016,-0.537,-0.7988,-0.7988,-0.7988,-0.7988,-0.7988,-0.7988,-0.7988,-0.7988,-0.7988,-0.8187,-1.0828,-1.1896,-1.2139,-1.4758,-1.5784,-1.5784,-1.5784,-1.5784,-1.5744,0.0,0.0,0.0,0.0,0.0,-0.7095,-0.7095,-0.7095,-0.7095,0.0,0.0,0.0,-0.5597,-0.5177,-0.4994,-0.5262,-0.5993,-0.6453,-0.6453,-0.6491,-0.6539,-0.6695,-0.6848,-0.6953,-0.7092,-0.7018,-0.6912,-0.6702,-0.6658,-0.6603,-0.6576,-0.658,-0.6678,-0.6817,-0.6736,-0.6131,-0.5099,-0.3773,0.0,-0.273,-0.0768,0.0,0.0,0.0,0.0,0.0,0.0,0.0,0.0,0.0,0.0,0.0,0.0,0.0,0.0,0.0,0.0,0.0,0.0,0.0,0.0,0.0,0.0,0.0,0.0,0.0,0.0,0.0,0.0,0.0,0.0,0.0,0.0,0.0,0.0,0.0,0.0,0.0,0.0,0.0,0.0,0.0,0.0,0.0,0.0,0.0,-0.2013,-0.1461,-0.1461,-0.0504,0.0,0.0,0.0,-0.131,-0.3966,-0.4016,-0.537,-0.7988,-0.7988,-0.7988,-0.7988,-0.7988,-0.7988,-0.7988,-0.7988,-0.7988,-0.8187,-1.0828,-1.1896,-1.2139,-1.4758,-1.5784,-1.5784,-1.5784,-1.5784,-1.5771,0.0,0.0,-0.7641,-0.7492,-0.739,-0.7309,-0.7248,-0.7238,-0.7032,0.0,0.0,0.0,-0.3703,-0.4402,-0.4919,-0.49,-0.5862,-0.6511,-0.6511,-0.6457,-0.6491,-0.66,-0.6753,-0.6859,-0.7004,-0.7007,-0.6893,-0.6702,-0.6637,-0.6529,-0.6426,-0.6484,-0.6559,-0.6607,-0.6607,-0.6025,-0.4941,-0.3649,0.0,0.0,-0.0737,0.0,0.0,0.0,0.0,0.0,0.0,0.0,0.0,0.0,0.0,0.0,0.0,0.0,0.0,0.0,0.0,0.0,0.0,0.0,0.0,0.0,0.0,0.0,0.0,0.0,0.0,0.0,0.0,0.0,0.0,0.0,0.0,0.0,0.0,0.0,0.0,0.0,0.0,0.0,0.0,0.0,0.0,0.0,0.0,-0.3966,-0.2764,-0.1762,-0.1209,-0.0404,0.0,0.0,0.0,-0.1008,-0.3165,-0.3715,-0.507,-0.7182,-0.7739,-0.7988,-0.7988,-0.7988,-0.7988,-0.7988,-0.7988,-0.7988,-0.8187,-1.0243,-1.1414,-1.2091,-1.4172,-1.5337,-1.5784,-1.5784,-1.5784,-1.5784,0.0,0.0,-0.7753,-0.7641,-0.7597,-0.7486,-0.7227,-0.7197,-0.6733,0.0,-0.4164,-0.2885,-0.1574,-0.3296,-0.4556,-0.4538,-0.5656,-0.6334,-0.6334,-0.631,-0.6325,-0.6304,-0.6576,-0.6679,-0.6685,-0.6847,-0.6868,-0.6702,-0.6563,-0.6463,-0.6327,-0.6436,-0.6491,-0.6491,-0.6491,-0.5802,-0.4631,-0.3545,0.0,-0.1524,-0.0409,0.0,0.0,0.0,0.0,0.0,0.0,0.0,0.0,0.0,0.0,0.0,0.0,0.0,0.0,0.0,0.0,0.0,0.0,0.0,0.0,0.0,0.0,0.0,0.0,0.0,0.0,0.0,0.0,0.0,0.0,0.0,0.0,0.0,0.0,0.0,0.0,0.0,0.0,0.0,0.0,0.0,0.0,-0.3316,-0.4116,-0.4416,-0.3065,-0.1662,-0.0303,-0.0101,0.0,0.0,0.0,-0.0706,-0.2213,-0.3416,-0.477,-0.6232,-0.7437,-0.7988,-0.7988,-0.7988,-0.7988,-0.7988,-0.7988,-0.7988,-0.8088,-0.9266,-1.0632,-1.2042,-1.3392,-1.4657,-1.5784,-1.5784,-1.5784,-1.5784,-0.7746,-0.7699,-0.7668,-0.7753,-0.7573,-0.7119,-0.6117,-0.5956,-0.546,-0.412,-0.292,-0.1664,-0.0456,-0.1548,-0.2411,-0.2396,-0.413,-0.5201,-0.5201,-0.5888,-0.597,-0.5256,-0.6163,-0.629,-0.5471,-0.6495,-0.6923,-0.6702,-0.6671,-0.658,-0.647,-0.6381,-0.634,-0.634,-0.634,-0.5271,-0.3418,-0.3209,0.0,-0.0344,-0.0088,0.0,0.0,0.0,0.0,0.0,0.0,0.0,0.0,0.0,0.0,0.0,0.0,0.0,0.0,0.0,0.0,0.0,0.0,0.0,0.0,0.0,0.0,0.0,0.0,0.0,0.0,0.0,0.0,0.0,0.0,0.0,0.0,0.0,0.0,0.0,0.0,0.0,0.0,0.0,0.0,0.0,0.0,-0.3865,-0.4918,-0.708,-0.4968,-0.3015,-0.1661,-0.0605,0.0,0.0,0.0,-0.1159,-0.3565,-0.3865,-0.522,-0.7637,-0.7889,-0.7988,-0.7988,-0.7988,-0.7988,-0.7988,-0.7988,-0.7988,-0.8038,-0.8283,-0.9752,-1.2042,-1.3392,-1.4657,-1.5784,-1.5784,-1.5784,-1.5784,-0.7692,-0.7767,-0.7818,-0.7814,-0.775,-0.727,-0.5915,-0.5681,-0.4982,-0.2945,-0.1636,-0.0693,-0.0046,-0.1078,-0.1822,-0.1815,-0.3683,-0.4886,-0.4897,-0.5784,-0.6097,-0.561,-0.5736,-0.5835,-0.5898,-0.6135,-0.6436,-0.6814,-0.6736,-0.662,-0.6508,-0.6368,-0.6419,-0.6583,-0.6402,-0.5221,-0.3447,0.0,-0.1917,0.0,0.0,0.0,0.0,0.0,0.0,0.0,0.0,0.0,0.0,0.0,0.0,0.0,0.0,0.0,0.0,0.0,0.0,0.0,0.0,0.0,0.0,0.0,0.0,0.0,0.0,0.0,0.0,0.0,0.0,0.0,0.0,0.0,0.0,0.0,0.0,0.0,0.0,0.0,0.0,0.0,0.0,0.0,0.0,0.0,-0.5575,-0.6883,-0.512,-0.3416,-0.2063,-0.0706,0.0,0.0,0.0,-0.0958,-0.2964,-0.3665,-0.5018,-0.7033,-0.7686,-0.7988,-0.7988,-0.7988,-0.7988,-0.7988,-0.7988,-0.7988,-0.7988,-0.7988,-0.9164,-1.1068,-1.2377,-1.3686,-1.4949,-1.5581,-1.5784,-1.5784,-0.7594,-0.779,-0.7867,-0.779,-0.7896,-0.7405,-0.5676,-0.5419,-0.4512,-0.1812,-0.0621,0.0,0.0,-0.0872,-0.1453,-0.1458,-0.3404,-0.464,-0.4578,-0.5531,-0.5959,-0.5747,-0.5034,-0.4951,-0.5687,-0.5517,-0.5783,-0.6537,-0.6634,-0.6637,-0.6552,-0.6381,-0.6454,-0.6745,-0.6226,-0.5146,0.0,0.0,0.0,0.0,0.0,0.0,0.0,0.0,0.0,0.0,0.0,0.0,0.0,0.0,0.0,0.0,0.0,0.0,0.0,0.0,0.0,0.0,0.0,0.0,0.0,0.0,0.0,0.0,0.0,0.0,0.0,0.0,0.0,0.0,0.0,0.0,0.0,0.0,0.0,0.0,0.0,0.0,0.0,0.0,0.0,0.0,0.0,0.0,-0.6306,-0.6376,-0.507,-0.3724,-0.2463,-0.1109,-0.0252,0.0,0.0,-0.0756,-0.2363,-0.3465,-0.4818,-0.6381,-0.7484,-0.7988,-0.7988,-0.7988,-0.7988,-0.7988,-0.7988,-0.7988,-0.7988,-0.7988,-0.8627,-0.9752,-1.1023,-1.2522,-1.4022,-1.5045,-1.5588,-1.5784,-0.7573,-0.7628,-0.7645,-0.7628,-0.7743,-0.6949,-0.4397,-0.4105,-0.3253,-0.0573,-0.0097,0.0,0.0,-0.0144,-0.0191,-0.0194,0.0,0.0,-0.351,-0.4596,-0.4775,-0.3765,-0.3635,-0.3151,-0.2219,-0.4276,-0.5355,-0.529,-0.6245,-0.6692,-0.6668,-0.6429,-0.6327,-0.631,-0.5313,0.0,0.0,0.0,-0.1089,0.0,0.0,0.0,0.0,0.0,0.0,0.0,0.0,0.0,0.0,0.0,0.0,0.0,0.0,0.0,0.0,0.0,0.0,0.0,0.0,0.0,0.0,0.0,0.0,0.0,0.0,0.0,0.0,0.0,0.0,0.0,0.0,0.0,0.0,0.0,0.0,0.0,0.0,0.0,0.0,0.0,0.0,0.0,0.0,0.0,0.0,-0.776,-0.6183,-0.4808,-0.3806,-0.2514,-0.1209,-0.0051,0.0,-0.1209,-0.3765,-0.3915,-0.527,-0.7786,-0.7939,-0.7988,-0.7988,-0.7988,-0.7988,-0.7988,-0.7988,-0.7988,-0.7988,-0.7988,-0.8088,-0.8382,-0.9702,-1.1745,-1.3926,-1.407,-1.4854,-1.5784,-0.7288,-0.7478,-0.757,-0.7482,-0.759,-0.7088,-0.5215,-0.3749,-0.2174,-0.0243,0.0,0.0,0.0,0.0,0.0,0.0,0.0,-0.2391,0.0,0.0,-0.3705,-0.3228,-0.267,-0.2448,-0.2638,-0.3086,-0.3884,-0.51,-0.5492,-0.5994,-0.6563,-0.6399,-0.6484,-0.6689,-0.5331,0.0,-0.3532,0.0,-0.0965,0.0,0.0,0.0,0.0,0.0,0.0,0.0,0.0,0.0,0.0,0.0,0.0,0.0,0.0,0.0,0.0,0.0,0.0,0.0,0.0,0.0,0.0,0.0,0.0,0.0,0.0,0.0,0.0,0.0,0.0,0.0,0.0,0.0,0.0,0.0,0.0,0.0,0.0,0.0,0.0,0.0,0.0,0.0,0.0,0.0,0.0,0.0,0.0,-0.4258,-0.4005,-0.2013,-0.0605,0.0,0.0,-0.131,-0.3966,-0.4016,-0.537,-0.7988,-0.7988,-0.7988,-0.7988,-0.7988,-0.7988,-0.7988,-0.7988,-0.7988,-0.7988,-0.7988,-0.7988,-0.8038,-0.863,-0.9993,-1.1745,-1.2474,-1.359,-1.4704,-0.6581,-0.7037,-0.7428,-0.7275,-0.7444,-0.7061,-0.5511,-0.3091,-0.1088,0.0,0.0,0.0,0.0,0.0,0.0,0.0,-0.1036,-0.1708,0.0,0.0,-0.2779,-0.2739,-0.171,0.0,-0.2953,-0.2207,-0.2889,-0.51,-0.4951,-0.5479,-0.6569,-0.6385,-0.6512,-0.687,-0.5058,-0.4055,-0.3639,0.0,0.0,0.0,0.0,0.0,0.0,0.0,0.0,0.0,0.0,0.0,0.0,0.0,0.0,0.0,0.0,0.0,0.0,0.0,0.0,0.0,0.0,0.0,0.0,0.0,0.0,0.0,0.0,0.0,0.0,0.0,0.0,0.0,0.0,0.0,0.0,0.0,0.0,0.0,0.0,0.0,0.0,0.0,0.0,0.0,0.0,0.0,0.0,0.0,0.0,0.0,-0.4004,-0.2163,-0.0756,0.0,-0.0353,-0.1661,-0.3966,-0.4368,-0.5722,-0.7988,-0.7988,-0.7988,-0.7988,-0.7988,-0.7988,-0.7988,-0.7988,-0.7988,-0.7988,-0.7988,-0.7988,-0.7988,-0.7988,-0.8577,-0.9608,-1.0925,-1.2231,-1.3392,-0.5363,-0.6208,-0.7065,-0.6923,-0.7305,-0.6744,-0.4227,-0.1715,0.0,0.0,0.0,0.0,0.0,0.0,0.0,0.0,0.0,-0.1941,-0.181,0.0,-0.1985,-0.1847,-0.0674,-0.0613,0.0,-0.184,-0.2889,-0.51,-0.4951,-0.5525,-0.6685,-0.6436,-0.6381,-0.6431,-0.4167,-0.3139,-0.3011,-0.0928,-0.0049,0.0,0.0,0.0,0.0,0.0,0.0,0.0,0.0,0.0,0.0,0.0,0.0,0.0,0.0,0.0,0.0,0.0,0.0,0.0,0.0,0.0,0.0,0.0,0.0,0.0,0.0,0.0,0.0,0.0,0.0,0.0,0.0,0.0,0.0,0.0,0.0,0.0,0.0,0.0,0.0,0.0,0.0,0.0,0.0,0.0,0.0,0.0,0.0,0.0,-0.4097,-0.3915,-0.2665,-0.0101,-0.126,-0.2614,-0.3966,-0.5275,-0.6631,-0.7988,-0.7988,-0.7988,-0.7988,-0.7988,-0.7988,-0.7988,-0.7988,-0.7988,-0.7988,-0.7988,-0.7988,-0.7988,-0.7988,-0.8038,-0.8233,-0.9558,-1.0877,-1.2139,-0.5073,-0.5984,-0.6764,-0.6021,-0.6611,-0.6361,-0.4031,-0.3014,0.0,0.0,0.0,0.0,0.0,0.0,0.0,0.0,0.0,-0.0654,-0.06,-0.0634,0.0,0.0,0.0,-0.0184,0.0,0.0,0.0,-0.3976,-0.3806,-0.4747,-0.6695,-0.6436,-0.6429,-0.6514,0.0,-0.3143,0.0,0.0,0.0,0.0,0.0,0.0,0.0,0.0,0.0,0.0,0.0,0.0,0.0,0.0,0.0,0.0,0.0,0.0,0.0,0.0,0.0,0.0,0.0,0.0,0.0,0.0,0.0,0.0,0.0,0.0,0.0,0.0,0.0,0.0,0.0,0.0,0.0,0.0,0.0,0.0,0.0,0.0,0.0,0.0,0.0,0.0,0.0,0.0,0.0,0.0,0.0,0.0,0.0,-0.3165,-0.1862,-0.005,-0.131,-0.2665,-0.3966,-0.5322,-0.6681,-0.7988,-0.7988,-0.7988,-0.7988,-0.7988,-0.7988,-0.7988,-0.7988,-0.7988,-0.7988,-0.7988,-0.7988,-0.7988,-0.7988,-0.7988,-0.8038,-0.8528,-0.9509,-1.097,-0.5025,-0.5844,-0.6457,-0.5478,-0.5915,-0.5659,0.0,0.0,0.0,0.0,0.0,0.0,0.0,0.0,0.0,0.0,0.0,0.0,0.0,0.0,0.0,0.0,0.0,0.0,0.0,0.0,0.0,0.0,0.0,-0.4426,-0.6776,-0.6515,-0.6508,-0.6584,0.0,-0.3136,-0.3102,0.0,0.0,0.0,0.0,0.0,0.0,0.0,0.0,0.0,0.0,0.0,0.0,0.0,0.0,0.0,0.0,0.0,0.0,0.0,0.0,0.0,0.0,0.0,0.0,0.0,0.0,0.0,0.0,0.0,0.0,0.0,0.0,0.0,0.0,0.0,0.0,0.0,0.0,0.0,0.0,0.0,0.0,0.0,0.0,0.0,0.0,0.0,0.0,0.0,0.0,0.0,0.0,0.0,-0.2113,-0.0756,-0.2013,-0.3366,-0.472,-0.6027,-0.7135,-0.7988,-0.7988,-0.7988,-0.7988,-0.7988,-0.7988,-0.7988,-0.7988,-0.7988,-0.7988,-0.7988,-0.7988,-0.7988,-0.7988,-0.7988,-0.7988,-0.7988,-0.9118,-1.0921,-0.5052,-0.5606,-0.5984,0.0,-0.5245,0.0,0.0,0.0,-0.1522,0.0,0.0,0.0,0.0,0.0,0.0,0.0,0.0,0.0,0.0,0.0,0.0,0.0,0.0,-0.0514,-0.17,0.0,0.0,0.0,0.0,0.0,-0.6889,-0.6617,-0.6549,-0.6523,-0.4141,0.0,-0.2908,-0.0844,0.0,0.0,0.0,0.0,0.0,0.0,0.0,0.0,0.0,0.0,0.0,0.0,0.0,0.0,0.0,0.0,0.0,0.0,0.0,0.0,0.0,0.0,0.0,0.0,0.0,0.0,0.0,0.0,0.0,0.0,0.0,0.0,0.0,0.0,0.0,0.0,0.0,0.0,0.0,0.0,0.0,0.0,0.0,0.0,0.0,0.0,0.0,0.0,0.0,0.0,0.0,0.0,0.0,-0.2063,-0.3316,-0.4618,-0.5879,-0.7285,-0.7988,-0.7988,-0.7988,-0.7988,-0.7988,-0.7988,-0.7988,-0.7988,-0.7988,-0.7988,-0.7988,-0.7988,-0.7988,-0.7988,-0.8088,-0.8137,-0.8187,-0.8137,-0.9702,-1.1901,-0.3822,-0.324,-0.2913,0.0,-0.3477,-0.3587,0.0,0.0,0.0,0.0,0.0,0.0,0.0,0.0,0.0,0.0,0.0,0.0,0.0,0.0,0.0,0.0,0.0,-0.0159,-0.048,-0.0151,0.0,-0.414,0.0,0.0,-0.7034,-0.6664,-0.6086,-0.5314,0.0,0.0,-0.1907,-0.0546,0.0,0.0,0.0,0.0,0.0,0.0,0.0,0.0,0.0,0.0,0.0,0.0,0.0,0.0,0.0,0.0,0.0,0.0,0.0,0.0,0.0,0.0,0.0,0.0,0.0,0.0,0.0,0.0,0.0,0.0,0.0,0.0,0.0,0.0,0.0,0.0,0.0,0.0,0.0,0.0,0.0,0.0,0.0,0.0,0.0,0.0,0.0,0.0,0.0,0.0,0.0,0.0,0.0,-0.2011,-0.3316,-0.4166,-0.4518,-0.6828,-0.7988,-0.7988,-0.7988,-0.7988,-0.7988,-0.7988,-0.7988,-0.7988,-0.7988,-0.7988,-0.7988,-0.7988,-0.7988,-0.8088,-0.9118,-1.0047,-1.0779,-0.985,-1.0534,-1.2042,-0.3449,0.0,0.0,-0.1773,0.0,0.0,-0.1139,0.0,0.0,-0.0145,0.0,0.0,0.0,0.0,0.0,0.0,0.0,0.0,0.0,0.0,0.0,0.0,0.0,0.0,0.0,0.0,0.0,-0.2921,0.0,0.0,-0.5586,-0.5738,0.0,0.0,0.0,-0.2524,0.0,-0.0452,0.0,0.0,0.0,0.0,0.0,0.0,0.0,0.0,0.0,0.0,0.0,0.0,0.0,0.0,0.0,0.0,0.0,0.0,0.0,0.0,0.0,0.0,0.0,0.0,0.0,0.0,0.0,0.0,0.0,0.0,0.0,0.0,0.0,0.0,0.0,0.0,0.0,0.0,0.0,0.0,0.0,0.0,0.0,0.0,0.0,0.0,0.0,0.0,0.0,0.0,0.0,0.0,0.0,-0.2911,-0.3539,-0.4233,-0.487,-0.6874,-0.7924,-0.7988,-0.7988,-0.7988,-0.7988,-0.7988,-0.7988,-0.7988,-0.7988,-0.7988,-0.7988,-0.7988,-0.7988,-0.8137,-0.946,-1.1116,-1.2668,-1.1989,-1.2183,-1.2866,-0.3143,0.0,0.0,0.0,0.0,0.0,0.0,-0.1006,0.0,-0.0144,0.0,0.0,0.0,0.0,0.0,0.0,0.0,0.0,0.0,0.0,0.0,0.0,0.0,0.0,0.0,0.0,0.0,0.0,0.0,0.0,-0.3635,0.0,0.0,0.0,0.0,0.0,0.0,-0.0407,0.0,0.0,0.0,0.0,0.0,0.0,0.0,0.0,0.0,0.0,0.0,0.0,0.0,0.0,0.0,0.0,0.0,0.0,0.0,0.0,0.0,0.0,0.0,0.0,0.0,0.0,0.0,0.0,0.0,0.0,0.0,0.0,0.0,0.0,0.0,0.0,0.0,0.0,0.0,0.0,0.0,0.0,0.0,0.0,0.0,0.0,0.0,0.0,0.0,0.0,0.0,0.0,0.0,0.0,-0.3907,0.0,-0.5956,0.0,-0.7896,-0.7961,-0.7982,-0.7988,-0.7988,-0.7988,-0.7988,-0.7988,-0.7988,-0.7988,-0.7988,-0.7988,-0.8088,-0.8382,-0.9706,-1.1745,-1.392,-1.407,-1.4166,-1.4166,-0.0804,0.0,0.0,0.0,0.0,0.0,0.0,-0.0197,-0.0244,-0.0049,0.0,0.0,0.0,0.0,0.0,0.0,0.0,0.0,0.0,0.0,0.0,0.0,0.0,0.0,0.0,0.0,-0.0635,0.0,0.0,-0.2403,-0.3592,-0.3598,0.0,0.0,0.0,0.0,-0.0291,-0.0102,0.0,0.0,0.0,0.0,0.0,0.0,0.0,0.0,0.0,0.0,0.0,0.0,0.0,0.0,0.0,0.0,0.0,0.0,0.0,0.0,0.0,0.0,0.0,0.0,0.0,0.0,0.0,0.0,0.0,0.0,0.0,0.0,0.0,0.0,0.0,0.0,0.0,0.0,0.0,0.0,0.0,0.0,0.0,0.0,0.0,0.0,0.0,0.0,0.0,0.0,0.0,0.0,0.0,0.0,0.0,0.0,0.0,0.0,-0.7901,-0.7851,-0.7931,-0.7988,-0.7988,-0.7988,-0.7988,-0.7988,-0.7988,-0.7988,-0.7988,-0.7988,-0.8627,-0.9752,-1.1072,-1.2522,-1.4022,-1.5092,-1.5486,-1.5486,-0.0094,0.0,0.0,0.0,0.0,0.0,0.0,0.0,0.0,0.0,0.0,0.0,0.0,0.0,0.0,0.0,0.0,0.0,0.0,0.0,0.0,0.0,0.0,0.0,0.0,0.0,-0.0321,-0.0971,0.0,-0.1149,-0.1747,-0.2184,-0.1843,-0.0787,0.0,-0.0491,0.0,0.0,0.0,0.0,0.0,0.0,0.0,0.0,0.0,0.0,0.0,0.0,0.0,0.0,0.0,0.0,0.0,0.0,0.0,0.0,0.0,0.0,0.0,0.0,0.0,0.0,0.0,0.0,0.0,0.0,0.0,0.0,0.0,0.0,0.0,0.0,0.0,0.0,0.0,0.0,0.0,0.0,0.0,0.0,0.0,0.0,0.0,0.0,0.0,0.0,0.0,0.0,0.0,0.0,0.0,0.0,0.0,0.0,0.0,0.0,0.0,-0.788,-0.7955,-0.7988,-0.7988,-0.7988,-0.7988,-0.7988,-0.7988,-0.7988,-0.7988,-0.7988,-0.8775,-1.0145,-1.1409,-1.2716,-1.407,-1.5337,-1.5784,-1.5784,0.0,0.0,0.0,0.0,0.0,0.0,0.0,0.0,0.0,0.0,0.0,0.0,0.0,0.0,0.0,0.0,0.0,0.0,0.0,0.0,0.0,0.0,0.0,0.0,0.0,0.0,0.0,0.0,0.0,0.0,0.0,-0.0867,-0.0809,0.0,0.0,0.0,0.0,0.0,0.0,0.0,0.0,0.0,0.0,0.0,0.0,0.0,0.0,0.0,0.0,0.0,0.0,0.0,0.0,0.0,0.0,0.0,0.0,0.0,0.0,0.0,0.0,0.0,0.0,0.0,0.0,0.0,0.0,0.0,0.0,0.0,0.0,0.0,0.0,0.0,0.0,0.0,0.0,0.0,0.0,0.0,0.0,0.0,0.0,0.0,0.0,0.0,0.0,0.0,0.0,0.0,0.0,0.0,0.0,-0.4118,-0.4732,0.0,-0.7902,0.0,-0.7975,-0.7988,-0.7988,-0.7988,-0.7988,-0.7988,-0.7988,-0.7988,-0.7988,-0.7988,-0.8627,-0.9756,-1.1312,-1.2528,-1.3638,-1.5242,-1.5784,-1.5784,0.0,0.0,0.0,0.0,0.0,0.0,0.0,0.0,0.0,0.0,0.0,0.0,0.0,0.0,0.0,0.0,0.0,0.0,0.0,0.0,0.0,0.0,0.0,0.0,0.0,0.0,0.0,0.0,0.0,0.0,0.0,-0.0084,-0.0083,0.0,0.0,0.0,0.0,0.0,0.0,0.0,0.0,0.0,0.0,0.0,0.0,0.0,0.0,0.0,0.0,0.0,0.0,0.0,0.0,0.0,0.0,0.0,0.0,0.0,0.0,0.0,0.0,0.0,0.0,0.0,0.0,0.0,0.0,0.0,0.0,0.0,0.0,0.0,0.0,0.0,0.0,0.0,0.0,0.0,0.0,0.0,0.0,0.0,0.0,0.0,0.0,0.0,0.0,0.0,0.0,0.0,0.0,-0.5426,0.0,-0.5001,-0.7063,-0.7676,0.0,-0.7834,-0.7924,-0.7988,-0.7988,-0.7988,-0.7988,-0.7988,-0.7988,-0.7988,-0.7988,-0.7988,-0.8088,-0.8432,-1.0925,-1.1994,-1.2382,-1.4854,-1.5784,-1.5784,0.0,0.0,0.0,0.0,0.0,0.0,0.0,0.0,0.0,0.0,0.0,0.0,0.0,0.0,0.0,0.0,0.0,0.0,0.0,0.0,0.0,0.0,0.0,0.0,0.0,0.0,0.0,0.0,0.0,0.0,0.0,0.0,0.0,0.0,0.0,0.0,0.0,0.0,0.0,0.0,0.0,0.0,0.0,0.0,0.0,0.0,0.0,0.0,0.0,0.0,0.0,0.0,0.0,0.0,0.0,0.0,0.0,0.0,0.0,0.0,0.0,0.0,0.0,0.0,0.0,0.0,0.0,0.0,0.0,0.0,0.0,0.0,0.0,0.0,0.0,0.0,0.0,0.0,0.0,0.0,0.0,0.0,0.0,0.0,0.0,0.0,0.0,0.0,0.0,0.0,0.0,-0.5304,0.0,-0.556,-0.6328,-0.7417,-0.7961,-0.7897,-0.7961,-0.7988,-0.7988,-0.7988,-0.7988,-0.7988,-0.7988,-0.7988,-0.7988,-0.7988,-0.7988,-0.8283,-1.0872,-1.1896,-1.2237,-1.4854,-1.5945,-1.6092,0.0,0.0,0.0,0.0,0.0,0.0,0.0,0.0,0.0,0.0,0.0,0.0,0.0,0.0,0.0,0.0,0.0,0.0,0.0,0.0,0.0,0.0,0.0,0.0,0.0,0.0,0.0,0.0,0.0,0.0,0.0,0.0,0.0,0.0,0.0,0.0,0.0,0.0,0.0,0.0,0.0,0.0,0.0,0.0,0.0,0.0,0.0,0.0,0.0,0.0,0.0,0.0,0.0,0.0,0.0,0.0,0.0,0.0,0.0,0.0,0.0,0.0,0.0,0.0,0.0,0.0,0.0,0.0,0.0,0.0,0.0,0.0,0.0,0.0,0.0,0.0,0.0,0.0,0.0,0.0,0.0,-0.2509,0.0,0.0,0.0,0.0,0.0,0.0,0.0,0.0,0.0,0.0,0.0,0.0,0.0,-0.7394,-0.7988,-0.7988,-0.7988,-0.7988,-0.7988,-0.7988,-0.7988,-0.7988,-0.7988,-0.7988,-0.7988,-0.7988,-0.7988,-0.824,-1.0493,-1.1649,-1.2296,-1.4625,-1.5872,-1.64,0.0,0.0,0.0,0.0,0.0,0.0,0.0,0.0,0.0,0.0,0.0,0.0,0.0,0.0,0.0,0.0,0.0,0.0,0.0,0.0,0.0,0.0,0.0,0.0,0.0,0.0,0.0,0.0,0.0,0.0,0.0,0.0,0.0,0.0,0.0,0.0,0.0,0.0,0.0,0.0,0.0,0.0,0.0,0.0,0.0,0.0,0.0,0.0,0.0,0.0,0.0,0.0,0.0,0.0,0.0,0.0,0.0,0.0,0.0,0.0,0.0,0.0,0.0,0.0,0.0,0.0,0.0,0.0,0.0,0.0,0.0,0.0,0.0,0.0,0.0,0.0,0.0,0.0,0.0,0.0,-0.0774,-0.1517,-0.2017,0.0,0.0,0.0,0.0,0.0,0.0,0.0,0.0,-0.7543,-0.6528,0.0,-0.7553,-0.7843,-0.7988,-0.7988,-0.7988,-0.7988,-0.7988,-0.7988,-0.7988,-0.7988,-0.7988,-0.7988,-0.7988,-0.7988,-0.7988,-0.8151,-0.964,-1.1116,-1.2554,-1.4049,-1.5519,-1.67,0.0,0.0,0.0,0.0,0.0,0.0,0.0,0.0,0.0,0.0,0.0,0.0,0.0,0.0,0.0,0.0,0.0,0.0,0.0,0.0,0.0,0.0,0.0,0.0,0.0,0.0,0.0,0.0,0.0,0.0,0.0,0.0,0.0,0.0,0.0,0.0,0.0,0.0,0.0,0.0,0.0,0.0,0.0,0.0,0.0,0.0,0.0,0.0,0.0,0.0,0.0672,0.151,0.151,0.151,0.151,0.151,0.151,0.1287,0.028,0.0,0.0,0.0,0.0,0.0,0.0,0.0,0.0,0.0,0.0,0.0,0.0,0.0,0.0,0.0,0.0,0.0,0.0,0.0,0.0,0.0,0.0,-0.0812,0.0,-0.3116,0.0,0.0,0.0,0.0,0.0,0.0,0.0,0.0,-0.7343,0.0,-0.76,-0.7843,-0.7988,-0.7988,-0.7988,-0.7988,-0.7988,-0.7988,-0.7988,-0.7988,-0.7988,-0.8099,-0.8197,-0.8197,-0.8255,-0.8498,-0.982,-1.0608,-1.1182,-1.2577,-1.4145,-1.5542,0.0,0.0,0.0,0.0,0.0,0.0,0.0,0.0,0.0,0.0,0.0,0.0,0.0,0.0,0.0,0.0,0.0,0.0,0.0,0.0,0.0,0.0,0.0,0.0,0.0,0.0,0.0,0.0,0.0,0.0,0.0,0.0,0.0,0.0,0.0,0.0,0.0,0.0,0.0,0.0,0.0,0.0,0.0,0.0,0.0,0.0,0.0,0.0336,0.084,0.084,0.1846,0.3185,0.3741,0.3908,0.3685,0.2515,0.218,0.1901,0.0392,0.0,0.0,0.0,0.0,0.0,0.0,0.0,0.0,0.0,0.0,0.0,0.0,0.0,0.0,0.0,0.0,0.0,0.0,0.0,0.0,0.0,0.0,0.0,0.0,-0.2686,0.0,0.0,0.0,0.0,0.0,0.0,0.0,-0.7432,-0.7796,0.0,-0.7767,-0.7897,-0.7988,-0.7988,-0.7988,-0.7988,-0.7992,-0.8099,-0.8126,-0.813,-0.8184,-0.8262,-0.835,-0.835,-0.8404,-0.8591,-0.9429,-1.0076,-1.071,-1.1567,-1.3304,-1.5124,0.0,0.0,0.0,0.0,0.0,0.0,0.0,0.0,0.0,0.0,0.0,0.0,0.0,0.0,0.0,0.0,0.0,0.0,0.0,0.0,0.0,0.0,0.0,0.0,0.0,0.0,0.0,0.0,0.0,0.0,0.0,0.0,0.0,0.0,0.0,0.0,0.0,0.0,0.0,0.0,0.0,0.0056,0.0168,0.0168,0.0224,0.0336,0.0336,0.1175,0.2347,0.2347,0.3409,0.4916,0.6255,0.6702,0.6142,0.324,0.2347,0.2012,0.0448,0.0,0.0,0.0,0.0,0.0,0.0,0.0,0.0,0.0,0.0,0.0,0.0,0.0,0.0,0.0,0.0,0.0,0.0,0.0,0.0,0.0,0.0,0.0,0.0,-0.2413,-0.3978,0.0,0.0,0.0,0.0,0.0,-0.7392,-0.7971,-0.7988,-0.7988,-0.7988,-0.7988,-0.7995,-0.8005,-0.8005,-0.8012,-0.8025,-0.8218,-0.8337,-0.8344,-0.8425,-0.8486,-0.8499,-0.8499,-0.8506,-0.8526,-0.8669,-0.9574,-1.0757,-1.0879,-1.2724,-1.5097,0.0,0.0,0.0,0.0,0.0,0.0,0.0,0.0,0.0,0.0,0.0,0.0,0.0,0.0,0.0,0.0,0.0,0.0,0.0,0.0,0.0,0.0,0.0,0.0,0.0,0.0,0.0,0.0,0.0,0.0,0.0,0.0,0.0,0.0,0.0,0.0,0.0,0.0,0.0,0.0,0.0,0.0672,0.1677,0.1677,0.2404,0.341,0.341,0.3634,0.3967,0.3967,0.4972,0.6255,0.6589,0.6702,0.6366,0.4468,0.3967,0.3353,0.0728,0.0,0.0,0.0,0.0,0.0,0.0,0.0,0.0,0.0,0.0,0.0,0.0,0.0,0.0,0.0,0.0,0.0,0.0,0.0,0.0,0.0,0.0,0.0,0.0,-0.2416,-0.3912,0.0,0.0,0.0,0.0,-0.7567,-0.7658,-0.7978,-0.7988,-0.7988,-0.7988,-0.7988,-0.8099,-0.8214,-0.8214,-0.8272,-0.8381,-0.8414,-0.8431,-0.8435,-0.8469,-0.855,-0.8655,-0.8655,-0.8723,-0.8832,-0.8814,-0.9044,-0.9377,-0.9412,-1.0566,-1.2295,0.0,0.0,0.0,0.0,0.0,0.0,0.0,0.0,0.0,0.0,0.0,0.0,0.0,0.0,0.0,0.0,0.0,0.0,0.0,0.0,0.0,0.0,0.0,0.0,0.0,0.0,0.0,0.0,0.0,0.0,0.0,0.0,0.0,0.0,0.0,0.0,0.0,0.0,0.0,0.0056,0.0728,0.151,0.2291,0.2961,0.3744,0.4526,0.4526,0.4916,0.553,0.553,0.6478,0.7595,0.6924,0.6702,0.6253,0.4078,0.3465,0.2962,0.0616,0.0,0.0,0.0,0.0,0.0,0.0,0.0,0.0,0.0,0.0,0.0,0.0,0.0,0.0,0.0,0.0,0.0,0.0,0.0,0.0,0.0,0.0,0.0,0.0,-0.2414,-0.3932,-0.3804,0.0,0.0,-0.7801,-0.7801,-0.7875,-0.7985,-0.7988,-0.7988,-0.7988,-0.8109,-0.8221,-0.8367,-0.8367,-0.8408,-0.8482,-0.8554,-0.8584,-0.8591,-0.8662,-0.8737,-0.8815,-0.8815,-0.8807,-0.8885,-0.8885,-0.8885,-0.8885,-0.8885,-0.9809,-1.1214,-0.0303,-0.0303,-0.0253,-0.0051,0.0,0.0,0.0,0.0,0.0,0.0,0.0,0.0,0.0,0.0,0.0,0.0,0.0,0.0,0.0,0.0,0.0,0.0,0.0,0.0,0.0,0.0,0.0,0.0,0.0,0.0,0.0,0.0,0.0,0.0,0.0,0.0,0.0,0.0,0.0,0.0112,0.1622,0.2347,0.2738,0.4246,0.4973,0.514,0.514,0.5975,0.7035,0.7035,0.7706,0.8322,0.7091,0.6366,0.5526,0.296,0.2068,0.1622,0.0336,0.0,0.0,0.0,0.0,0.0,0.0,0.0,0.0,0.0,0.0,0.0,0.0,0.0,0.0,0.0,0.0,0.0,0.0,0.0,0.0,0.0,0.0,-0.0101,-0.0303,-0.2564,-0.4066,-0.4268,-0.6578,-0.8002,0.0,-0.8025,-0.8032,-0.8056,-0.8012,-0.8002,-0.8022,-0.8225,-0.8374,-0.8516,-0.8516,-0.853,-0.8557,-0.8686,-0.8747,-0.8754,-0.8828,-0.8885,-0.8885,-0.8885,-0.8885,-0.8885,-0.8885,-0.8885,-0.8885,-0.8885,-0.9699,-1.0785,-0.1711,-0.1711,-0.1317,-0.0206,0.0,0.0,0.0,0.0,0.0,0.0,0.0,0.0,0.0,0.0,0.0,0.0,0.0,0.0,0.0,0.0,0.0,0.0,0.0,0.0,0.0,0.0,0.0,0.0,0.0,0.0,0.0,0.0,0.0,0.0,0.0,0.0,0.0,0.0,0.0,0.0112,0.1622,0.2961,0.4303,0.5808,0.7149,0.8211,0.8211,0.8377,0.8546,0.8546,0.7875,0.698,0.6758,0.4968,0.2793,0.2347,0.1343,0.028,0.0056,0.0,0.0,0.0,0.0,0.0,0.0,0.0,0.0,0.0,0.0,0.0,0.0,0.0,0.0,0.0,0.0,0.0,0.0,0.0,0.0,0.0,0.0,-0.0454,-0.1561,-0.3115,-0.4468,-0.5625,-0.7132,-0.8096,-0.8228,-0.8235,-0.8289,-0.8408,-0.817,-0.8102,-0.8235,-0.8377,-0.8526,-0.8676,-0.8676,-0.8743,-0.8814,-0.8838,-0.8848,-0.8851,-0.8871,-0.8885,-0.8885,-0.8885,-0.8885,-0.8885,-0.8885,-0.8885,-0.8885,-0.8885,-0.9047,-0.9445,-0.2163,-0.2013,-0.157,-0.0259,0.0,0.0,0.0,0.0,0.0,0.0,0.0,0.0,0.0,0.0,0.0,0.0,0.0,0.0,0.0,0.0,0.0,0.0,0.0,0.0,0.0,0.0,0.0,0.0,0.0,0.0,0.0,0.0,0.0,0.0,0.0,0.0,0.0,0.0,0.0,0.0224,0.2516,0.3855,0.4751,0.7035,0.8322,0.8885,0.8885,0.8885,0.8771,0.7986,0.726,0.6422,0.4801,0.3295,0.2068,0.1231,0.056,0.0,0.0,0.0,0.0,0.0,0.0,0.0,0.0,0.0,0.0,0.0,0.0,0.0,0.0,0.0,0.0,0.0,0.0,0.0,0.0,0.0,0.0,0.0,0.0,-0.0256,-0.087,-0.2832,-0.4346,-0.4967,-0.7032,-0.8309,-0.8381,-0.8384,-0.8414,-0.8479,-0.835,-0.8353,-0.8506,-0.857,-0.8682,-0.8832,-0.8832,-0.8814,-0.8885,-0.8885,-0.8885,-0.8885,-0.8885,-0.8885,-0.8885,-0.8885,-0.8885,-0.8885,-0.8885,-0.8885,-0.8892,-0.9025,-0.9055,-0.9185,-0.2665,-0.2213,-0.1572,-0.026,0.0,0.0,0.0,-0.0278,-0.0392,-0.0056,-0.028,-0.0392,-0.0056,0.0,0.0,0.0,0.0,0.0,0.0,0.0,0.0,0.0,0.0,0.0,0.0,0.0,0.0,0.0,0.0,0.0,0.0,0.0,0.0,0.0,0.0,0.0,0.0,0.0,0.0,0.028,0.3299,0.4526,0.4804,0.7762,0.8885,0.8885,0.8885,0.8885,0.866,0.7202,0.6478,0.5697,0.3017,0.1956,0.1454,0.0336,0.0,0.0,0.0,0.0,0.0,0.0,0.0,0.0,0.0,0.0,0.0,0.0,0.0,0.0,0.0,0.0,0.0,0.0,0.0,0.0,0.0,0.0,0.0,0.0,0.0,-0.0104,-0.0418,-0.2425,-0.3979,-0.4612,-0.6729,-0.8177,-0.8533,-0.8533,-0.8554,-0.8587,-0.8554,-0.8591,-0.871,-0.8747,-0.8821,-0.8885,-0.8885,-0.8885,-0.8885,-0.8885,-0.8885,-0.8885,-0.8885,-0.8885,-0.8885,-0.8885,-0.8885,-0.8885,-0.8885,-0.8902,-0.9001,-0.9169,-0.9231,-0.9286,-0.3865,-0.2864,-0.1579,-0.0212,0.0,0.0,0.0,-0.1174,-0.1566,-0.0168,-0.1175,-0.151,-0.0168,0.0,0.0,0.0,0.0,0.0,0.0,0.0,0.0,0.0,0.0,0.0,0.0,0.0,0.0,0.0,0.0,0.0,0.0,0.0,0.0,0.0,0.0,0.0,0.0,0.0,0.0,0.028,0.3299,0.4526,0.4804,0.7762,0.8885,0.8885,0.8885,0.8885,0.866,0.7202,0.5808,0.4359,0.2738,0.1287,0.0168,0.0056,0.0,0.0,0.0,0.0,0.0,0.0,0.0,0.0,0.0,0.0,0.0,0.0,0.0,0.0,0.0,0.0,0.0,0.0,0.0,0.0,0.0,0.0,0.0,0.0,0.0,-0.0479,-0.1751,-0.2019,-0.3291,-0.5934,-0.6358,-0.7099,-0.8632,-0.8693,-0.8757,-0.8844,-0.8767,-0.8699,-0.871,-0.8797,-0.8871,-0.8885,-0.8885,-0.8885,-0.8885,-0.8885,-0.8885,-0.8885,-0.8885,-0.8885,-0.8885,-0.8885,-0.8885,-0.8885,-0.8885,-0.9022,-0.9193,-0.9207,-0.9299,-0.9388,-0.3065,-0.2364,-0.1574,-0.0209,0.0,-0.0323,-0.1209,-0.1833,-0.2012,-0.1454,-0.1845,-0.1622,-0.0168,0.0,0.0,0.0,0.0,0.0,0.0,0.0,0.0,0.0,0.0,0.0,0.0,0.0,0.0,0.0,0.0,0.0,0.0,0.0,0.0,0.0,0.0,0.0,0.0,0.0,0.0,0.028,0.3299,0.4526,0.4804,0.7762,0.8885,0.8885,0.8885,0.8885,0.8546,0.6144,0.4973,0.408,0.1623,0.0448,0.0,0.0,0.0,0.0,0.0,0.0,0.0,0.0,0.0,0.0,0.0,0.0,0.0,0.0,0.0,0.0,0.0,0.0,0.0,0.0,0.0,0.0,0.0,0.0,0.0,0.0,0.0,-0.0217,-0.0704,-0.1583,-0.296,-0.5039,-0.6025,-0.7196,-0.8739,-0.8797,-0.8824,-0.8881,-0.8828,-0.8797,-0.8797,-0.8854,-0.8885,-0.8885,-0.8885,-0.8885,-0.8885,-0.8885,-0.8885,-0.8885,-0.8885,-0.8885,-0.8885,-0.8885,-0.8991,-0.9069,-0.9069,-0.9164,-0.9306,-0.9401,-0.9473,-0.9544,-0.2367,-0.1669,-0.1072,-0.0155,0.0,-0.0483,-0.196,-0.26,-0.2738,-0.2235,-0.2626,-0.218,-0.0224,0.0,0.0,0.0,0.0,0.0,0.0,0.0,0.0,0.0,0.0,0.0,0.0,0.0,0.0,0.0,0.0,0.0,0.0,0.0,0.0,0.0,0.0,0.0,0.0,0.0,0.0,0.028,0.3299,0.4526,0.4804,0.7762,0.8885,0.8885,0.8885,0.8602,0.782,0.5361,0.4191,0.3353,0.0784,0.0,0.0112,0.056,0.0336,0.0112,0.056,0.0336,0.0,0.0,0.0,0.0,0.0,0.0,0.0,0.0,0.0,0.0,0.0,0.0,0.0,0.0,0.0,0.0,0.0,0.0,0.0,0.0,0.0,0.0,0.0,-0.089,-0.2125,-0.3688,-0.5139,-0.6869,-0.8771,-0.8885,-0.8885,-0.8885,-0.8885,-0.8885,-0.8885,-0.8885,-0.8885,-0.8885,-0.8885,-0.8885,-0.8885,-0.8885,-0.8885,-0.8885,-0.8885,-0.8885,-0.8888,-0.8988,-0.9062,-0.9214,-0.9262,-0.9317,-0.9466,-0.9571,-0.9639,-0.969,-0.197,-0.0921,0.0,0.0,0.0,-0.0536,-0.2014,-0.354,-0.3967,-0.2403,-0.3576,-0.3354,-0.0336,0.0,0.0,0.0,0.0,0.0,0.0,0.0,0.0,0.0,0.0,0.0,0.0,0.0,0.0,0.0,0.0,0.0,0.0,0.0,0.0,0.0,0.0,0.0,0.0,0.0,0.0,0.028,0.3299,0.4526,0.4804,0.7762,0.8885,0.8885,0.8881,0.7931,0.6478,0.4973,0.3463,0.1956,0.0448,0.0,0.028,0.179,0.1176,0.0336,0.179,0.1119,0.0,0.0,0.0,0.0,0.0,0.0,0.0,0.0,0.0,0.0,0.0,0.0,0.0,0.0,0.0,0.0,0.0,0.0,0.0,0.0,0.0,0.0,0.0,0.0,-0.0616,-0.2124,-0.3632,-0.5808,-0.8771,-0.8885,-0.8885,-0.8885,-0.8885,-0.8885,-0.8885,-0.8885,-0.8885,-0.8885,-0.8885,-0.8885,-0.8885,-0.8885,-0.8885,-0.8885,-0.8885,-0.8885,-0.8895,-0.9093,-0.921,-0.9228,-0.9323,-0.9476,-0.9612,-0.9612,-0.97,-0.9822,-0.0785,-0.0261,0.0,0.0,-0.0781,-0.1943,-0.3575,-0.4992,-0.5399,-0.4016,-0.4191,-0.3354,-0.0336,0.0,0.0,0.0,0.0,0.0,0.0,0.0,0.0,0.0,0.0,0.0,0.0,0.0,0.0,0.0,0.0,0.0,0.0,0.0,0.0,0.0,0.0,0.0,0.0,0.0,0.0,0.028,0.3299,0.4526,0.4804,0.7762,0.8885,0.8771,0.7706,0.7093,0.6311,0.3742,0.2571,0.1961,0.0455,0.0798,0.1825,0.2308,0.2811,0.3182,0.256,0.1974,0.1287,0.028,0.0,0.0,0.0,0.0,0.0,0.0,0.0,0.0,0.0,0.0,0.0,0.0,0.0,0.0,0.0,0.0,0.0,0.0,0.0,0.0,0.0,0.0,-0.1064,-0.3632,-0.6142,-0.7986,-0.8826,-0.8885,-0.8885,-0.8885,-0.8885,-0.8885,-0.8885,-0.8885,-0.8885,-0.8885,-0.8885,-0.8885,-0.8885,-0.8885,-0.8885,-0.8885,-0.8885,-0.8885,-0.8895,-0.9093,-0.9272,-0.9327,-0.9483,-0.9632,-0.9758,-0.9758,-0.9785,-0.9822,-0.016,0.0,0.0,0.0,-0.1088,-0.2543,-0.414,-0.5572,-0.6009,-0.4584,-0.4453,-0.3354,-0.0336,0.0,0.0,0.0,0.0,0.0,0.0,0.0,0.0,0.0,0.0,0.0,0.0,0.0,0.0,0.0,0.0,0.0,0.0,0.0,0.0,0.0,0.0,0.0,0.0,0.0,0.0,0.028,0.3299,0.4526,0.4804,0.7762,0.8885,0.8716,0.7204,0.6311,0.5472,0.3016,0.218,0.2074,0.1256,0.2064,0.3499,0.4054,0.4038,0.3774,0.3411,0.2311,0.1119,0.0224,0.0,0.0,0.0,0.0,0.0,0.0,0.0,0.0,0.0,0.0,0.0,0.0,0.0,0.0,0.0,0.0,0.0,0.0,0.0,0.0,0.0,-0.0504,-0.2125,-0.5139,-0.7035,-0.8266,-0.8881,-0.8885,-0.8885,-0.8885,-0.8885,-0.8885,-0.8885,-0.8885,-0.8885,-0.8885,-0.8885,-0.8885,-0.8885,-0.8885,-0.8967,-0.9022,-0.9022,-0.9059,-0.9123,-0.9273,-0.9388,-0.9486,-0.9635,-0.9744,-0.9822,-0.9822,-0.9822,-0.9822,0.0,0.0,0.0,0.0,-0.1191,-0.2634,-0.4035,-0.5638,-0.6086,-0.4419,-0.4372,-0.3354,-0.0336,0.0,0.0,0.0,0.0,0.0,0.0,0.0,0.0,0.0,0.0,0.0,0.0,0.0,0.0,0.0,0.0,0.0,0.0,0.0,0.0,0.0,0.0,0.0,0.0,0.0,0.0,0.0224,0.3131,0.4303,0.4637,0.7595,0.8605,0.8322,0.698,0.553,0.408,0.2687,0.2241,0.2304,0.2632,0.3737,0.5171,0.6374,0.4936,0.309,0.405,0.2296,0.0168,0.0056,0.0,0.0,0.0,0.0,0.0,0.0,0.0,0.0,0.0,0.0,0.0,0.0,0.0,0.0,0.0,0.0,0.0,0.0,0.0,0.0,0.0,-0.1454,-0.3519,-0.6308,-0.6758,-0.7485,-0.8826,-0.8885,-0.8885,-0.8885,-0.8885,-0.8885,-0.8885,-0.8885,-0.8885,-0.8885,-0.8885,-0.8885,-0.8885,-0.8895,-0.9028,-0.921,-0.9224,-0.9309,-0.9395,-0.9547,-0.9608,-0.9625,-0.9768,-0.9822,-0.9822,-0.9822,-0.9822,-0.9822,0.0,0.0,0.0,0.0,-0.1961,-0.3777,-0.4358,-0.6524,-0.7214,-0.4762,-0.446,-0.3354,-0.0336,0.0,0.0,0.0,0.0,0.0,0.0,0.0,0.0,0.0,0.0,0.0,0.0,0.0,0.0,0.0,0.0,0.0,0.0,0.0,0.0,0.0,0.0,0.0,0.0,0.0,0.0,0.0168,0.1957,0.2682,0.3016,0.6028,0.6478,0.5419,0.5085,0.4023,0.2687,0.2496,0.2452,0.2635,0.3948,0.5527,0.6594,0.5645,0.5712,0.5635,0.3491,0.2315,0.1454,0.028,0.0,0.0,0.0,0.0,0.0,0.0,0.0,0.0,0.0,0.0,0.0,0.0,0.0,0.0,0.0,0.0,0.0,0.0,0.0,0.0,0.0,-0.2405,-0.4246,-0.4916,-0.7091,-0.8546,-0.8881,-0.8885,-0.8885,-0.8885,-0.8885,-0.8885,-0.8885,-0.8885,-0.8885,-0.8885,-0.8885,-0.8885,-0.8888,-0.9055,-0.918,-0.9217,-0.9337,-0.9351,-0.9395,-0.9547,-0.9608,-0.9625,-0.9768,-0.9822,-0.9822,-0.9822,-0.9822,-0.9822,0.0,0.0,0.0,0.0,-0.2217,-0.4043,-0.4226,-0.6081,-0.6669,-0.4568,-0.376,-0.2516,-0.0224,0.0,0.0,0.0,0.0,0.0,0.0,0.0,0.0,0.0,0.0,0.0,0.0,0.0,0.0,0.0,0.0,0.0,0.0,0.0,0.0,0.0,0.0,0.0,0.0,0.0,0.0,0.0112,0.1622,0.218,0.2459,0.4747,0.5196,0.4419,0.3665,0.2433,0.1306,0.2192,0.2941,0.3858,0.5528,0.6627,0.7061,0.623,0.5457,0.4505,0.2843,0.1745,0.0952,0.0168,0.0,0.0,0.0,0.0,0.0,0.0,0.0,0.0,0.0,0.0,0.0,0.0,0.0,0.0,0.0,0.0,0.0,0.0,0.0,-0.028,-0.1008,-0.246,-0.4023,-0.5419,-0.6311,-0.7426,-0.8826,-0.8211,-0.8156,-0.8881,-0.8885,-0.8885,-0.8885,-0.8885,-0.8885,-0.8885,-0.8885,-0.8885,-0.8885,-0.9018,-0.9127,-0.9323,-0.9347,-0.9459,-0.9598,-0.9676,-0.971,-0.9717,-0.9791,-0.9822,-0.9822,-0.9822,-0.9822,-0.9822,0.0,0.0,0.0,0.0,-0.2012,-0.3673,-0.3698,-0.4992,-0.5417,-0.3903,-0.28,-0.1622,-0.0168,0.0,0.0,0.0,0.0,0.0,0.0,0.0,0.0,0.0,0.0,0.0,0.0,0.0,0.0,0.0,0.0,0.0,0.0,0.0,0.0,0.0,0.0,0.0,0.0,0.0,0.0,0.0113,0.1344,0.1845,0.2013,0.3521,0.3968,0.3585,0.2564,0.1264,0.0289,0.2223,0.3663,0.5021,0.6818,0.7225,0.6968,0.6483,0.4511,0.2398,0.1966,0.0952,0.0,0.0,0.0,0.0,0.0,0.0,0.0,0.0,0.0,0.0,0.0,0.0,0.0,0.0,0.0,0.0,0.0,0.0,0.0,0.0,0.0,-0.0504,-0.1677,-0.2068,-0.3239,-0.575,-0.5027,-0.5586,-0.8042,-0.698,-0.698,-0.8491,-0.8546,-0.8657,-0.8885,-0.8885,-0.8885,-0.8885,-0.8908,-0.8905,-0.8885,-0.8935,-0.915,-0.9384,-0.9435,-0.9595,-0.9822,-0.9822,-0.9822,-0.9822,-0.9822,-0.9822,-0.9822,-0.9822,-0.9822,-0.9822,0.0,0.0,0.0,0.0,-0.1239,-0.2289,-0.2415,-0.3597,-0.3967,-0.2598,-0.2284,-0.1622,-0.0168,0.0,0.0,0.0,0.0,0.0,0.0,0.0,0.0,0.0,0.0,0.0,0.0,0.0,0.0,0.0,0.0,0.0,0.0,0.0,0.0,0.0,0.0,0.0,0.0,0.0,0.0,0.0,0.0225,0.028,0.0448,0.1957,0.1734,0.073,0.1824,0.1274,0.047,0.34,0.4508,0.4969,0.6633,0.7102,0.6604,0.3921,0.2812,0.2171,0.0675,0.0168,0.0,0.0,0.0,0.0,0.0,0.0,0.0,0.0,0.0,0.0,0.0,0.0,0.0,0.0,0.0,0.0,0.0,0.0,0.0,0.0,0.0,-0.0056,-0.028,-0.1454,-0.2347,-0.2793,-0.3855,-0.4693,-0.5085,-0.4916,-0.5475,-0.6924,-0.698,-0.7595,-0.8881,-0.8885,-0.8885,-0.8885,-0.9066,-0.9059,-0.8892,-0.9205,-0.9344,-0.9395,-0.9649,-0.9785,-0.9822,-0.9822,-0.9822,-0.9822,-0.9822,-0.9822,-0.9822,-0.9822,-0.9822,-0.9822,0.0,0.0,0.0,0.0,-0.1085,-0.2031,-0.2086,-0.2587,-0.2732,-0.2144,-0.1447,-0.0728,-0.0056,0.0,0.0,0.0,0.0,0.0,0.0,0.0,0.0,0.0,0.0,0.0,0.0,0.0,0.0,0.0,0.0,0.0,0.0,0.0,0.0,0.0,0.0,0.0,0.0,0.0,0.0,0.0,0.0,0.0,0.0056,0.0728,0.056,0.0112,0.075,0.0526,0.0354,0.267,0.3487,0.3755,0.5391,0.5244,0.4274,0.2871,0.1823,0.0961,0.0225,0.0,0.0,0.0,0.0,0.0,0.0,0.0,0.0,0.0,0.0,0.0,0.0,0.0,0.0,0.0,0.0,0.0,0.0,0.0,0.0,0.0,0.0,0.0,0.0,-0.0616,-0.1287,-0.2124,-0.2069,-0.274,-0.4416,-0.3688,-0.43,-0.6647,-0.6702,-0.7426,-0.8881,-0.8885,-0.8885,-0.8885,-0.9086,-0.9176,-0.9066,-0.9283,-0.9429,-0.9517,-0.9646,-0.9747,-0.9822,-0.9822,-0.9822,-0.9822,-0.9822,-0.9822,-0.9822,-0.9822,-0.9822,-0.9822]}]]